GFSGL_con_3kmhel_000.txt.gz
Helicity
237 250 269 267 264 250 231 211 192 170 157 135 120 119 117 131 127 123 113 95 102 108 120 145 158 158 157 168 187 217 249 262 284 191 161 133 124 100 104 114 105 102 91
234 257 266 264 251 247 236 216 183 176 152 134 122 122 135 139 126 119 108 101 109 133 150 163 150 143 145 165 198 208 215 228 252 194 149 118 108 98 125 106 90 98 74
250 263 259 248 244 240 233 207 195 178 143 128 133 148 149 139 122 112 104 111 128 151 152 151 147 151 158 164 181 213 215 182 176 172 178 164 168 161 132 67 74 73 99
254 251 242 229 233 233 226 212 193 158 135 145 159 153 142 124 106 95 113 131 150 150 155 165 162 161 157 161 171 198 190 178 171 192 194 148 186 152 91 95 84 105 144
252 234 223 231 237 240 230 202 172 145 150 159 164 152 130 109 95 115 132 142 149 169 178 178 180 180 154 149 177 187 152 158 180 161 169 163 136 83 74 85 131 149 131
221 217 225 239 241 227 206 181 160 172 173 171 160 127 110 105 114 142 153 165 172 178 187 210 230 157 137 110 118 97 93 138 150 142 162 116 73 83 116 134 127 113 -35
218 217 225 223 214 200 183 178 178 172 170 157 129 112 113 121 128 154 168 173 172 174 193 209 200 184 144 151 96 42 67 67 103 110 91 94 101 115 96 74 109 147 171
203 204 204 197 199 187 175 167 163 163 150 137 119 109 110 115 143 169 163 166 166 178 193 183 174 153 133 93 94 110 126 163 85 74 122 125 106 85 82 106 117 93 163
185 191 197 193 179 157 159 170 165 155 137 118 103 100 119 119 126 144 149 159 153 153 156 151 133 130 80 27 83 122 94 83 71 66 50 9 13 15 13 -13 -16 -27 47
189 193 173 152 148 156 163 175 137 123 100 102 107 116 105 125 103 116 135 144 149 157 154 151 74 72 44 67 100 87 96 59 48 36 10 42 31 64 26 33 51 53 101
172 154 148 150 160 158 155 134 115 106 102 106 106 111 107 101 109 85 111 153 156 152 160 142 129 47 74 55 59 101 80 -45 -35 13 42 64 83 91 88 91 113 115 146
145 147 157 165 154 154 144 120 109 99 98 97 104 111 103 101 78 102 107 117 87 130 137 130 103 67 65 57 63 8 -16 10 63 40 54 68 79 119 132 127 132 153 173
149 171 169 156 152 140 121 104 101 103 105 114 116 119 106 109 142 96 88 77 103 119 125 100 76 67 69 70 -17 -13 17 45 29 40 50 87 123 154 159 157 156 162 174
172 159 148 148 132 110 97 99 101 106 120 121 125 119 118 125 135 141 127 122 99 110 75 111 80 75 53 -13 56 27 19 21 20 44 72 112 114 111 116 117 152 158 175
156 145 129 108 96 102 110 96 107 109 113 125 123 129 136 129 124 117 108 117 110 80 82 92 88 85 41 90 50 52 50 41 53 62 60 84 96 90 116 111 147 143 149
132 108 90 100 106 107 108 117 111 105 95 95 112 147 158 114 99 85 84 78 63 54 94 97 34 18 84 63 70 88 73 57 60 61 82 95 114 113 119 129 123 134 136
105 97 105 111 105 110 117 122 123 105 74 94 125 139 121 101 83 73 81 52 64 62 94 -52 18 88 93 54 79 82 78 92 73 82 113 141 135 144 104 128 134 131 135
110 112 108 100 108 116 116 116 122 121 115 122 125 112 102 77 55 79 56 67 71 72 -2 2 87 92 83 84 117 124 137 143 139 153 158 164 123 105 124 124 120 126 111
110 103 110 118 112 114 125 127 127 119 126 136 137 117 90 40 62 58 52 77 73 -59 66 85 83 101 117 135 145 144 144 146 104 134 178 206 83 62 92 82 106 50 31
118 128 125 116 120 128 127 122 122 132 139 139 128 116 88 63 73 70 72 68 -57 61 38 72 100 115 132 144 149 140 145 153 162 170 189 194 174 105 74 74 40 18 10
124 116 117 124 128 124 120 125 138 143 143 125 108 85 41 84 79 83 69 -53 60 34 70 93 108 139 159 161 153 147 159 178 172 177 199 201 173 130 84 62 7 -15 -15
118 113 119 127 125 129 134 145 152 149 122 105 91 76 42 84 81 56 -38 -5 20 51 84 102 149 171 169 165 162 176 187 186 194 209 229 217 177 155 126 34 -21 -27 -21
119 125 130 135 141 133 153 155 143 119 101 90 80 77 76 68 75 -37 1 20 45 79 104 121 157 186 175 161 163 187 215 223 232 233 277 274 222 151 73 34 -9 -22 -16
134 135 139 145 145 158 150 129 117 92 89 84 84 78 73 -26 -36 1 18 42 75 103 116 135 170 213 218 192 186 189 201 232 252 334 271 140 83 68 69 59 61 12 -37
144 151 152 152 153 142 122 123 117 106 96 88 78 73 -15 -35 -8 16 31 62 87 108 135 153 195 223 215 226 221 215 218 208 170 77 65 79 74 61 67 63 59 44 32
154 158 160 154 137 129 131 124 110 105 93 87 80 2 -39 -21 15 33 57 76 93 122 150 177 230 257 260 229 215 203 200 152 56 51 57 74 63 58 60 48 46 49 37

GFSGL_con_3kmhel_003.txt.gz
Helicity
253 255 260 253 254 256 262 255 244 227 221 200 177 174 162 156 160 151 144 127 130 113 118 120 122 128 149 147 134 152 190 229 288 241 214 174 152 130 124 100 100 128 102
251 268 263 254 256 263 262 258 245 242 226 198 194 183 171 167 152 152 143 128 114 115 116 128 133 153 140 128 150 171 212 237 262 236 198 191 174 145 112 126 64 63 59
255 266 258 249 247 252 257 253 251 248 229 216 203 185 174 159 149 143 127 112 112 118 124 139 140 137 154 169 182 210 202 189 204 218 226 217 173 153 135 97 59 24 6
248 248 241 229 233 247 253 263 261 240 229 216 196 180 169 148 135 120 112 110 114 127 146 153 153 182 201 195 187 176 195 191 187 202 218 190 188 142 134 103 40 16 34
239 235 228 227 242 256 270 269 247 237 220 204 189 171 160 141 118 118 112 114 129 145 140 152 178 188 185 180 190 185 164 179 178 196 179 186 184 126 104 92 108 87 97
227 222 213 232 251 267 264 246 244 240 219 189 180 174 154 121 92 116 141 151 147 133 147 159 183 168 154 114 108 67 88 131 141 155 202 184 171 173 149 127 89 -70 -18
208 205 225 240 252 247 243 251 247 213 191 198 184 142 124 109 93 125 144 153 130 138 162 178 184 157 122 162 91 59 79 107 141 143 175 205 132 110 73 65 88 124 116
214 232 235 231 230 235 244 235 204 196 197 178 141 121 112 105 118 123 111 146 149 159 169 167 154 137 134 85 110 150 121 103 106 130 133 129 116 58 35 49 28 66 170
228 224 210 210 228 224 216 214 208 185 157 131 121 108 107 109 106 105 135 160 175 157 168 160 122 101 70 52 128 116 116 116 90 51 54 37 45 37 26 21 35 41 123
195 197 219 219 204 206 214 215 164 136 127 123 106 108 101 114 98 114 136 160 169 160 150 134 77 89 51 72 99 112 110 88 99 98 65 60 68 88 35 38 55 101 157
210 214 207 207 213 214 189 153 142 130 117 113 115 101 103 112 124 112 122 154 162 167 153 137 127 61 62 58 55 104 88 74 76 23 79 103 103 93 93 101 124 160 167
202 209 220 224 198 175 169 141 123 113 113 107 99 109 119 120 97 99 126 145 133 166 136 124 119 59 62 61 66 43 39 45 65 86 93 102 90 102 110 118 139 164 192
215 222 208 190 178 152 135 121 111 112 102 101 106 122 125 109 119 89 118 104 111 111 131 92 92 72 69 61 45 37 29 77 80 97 92 108 120 113 117 131 145 150 160
209 196 175 158 145 129 114 100 94 94 106 105 118 129 128 117 128 151 141 139 93 109 93 131 84 83 55 56 76 72 83 77 75 97 110 120 123 118 118 109 127 145 151
184 162 153 137 122 107 100 86 95 91 98 120 127 126 130 135 123 119 129 128 105 95 99 102 96 82 88 86 77 76 80 74 89 114 114 119 150 145 142 116 139 146 140
166 143 122 113 105 98 98 106 90 99 107 107 101 116 141 126 124 115 93 84 68 68 104 96 80 87 80 77 81 76 99 78 127 126 120 151 185 182 149 145 127 137 141
135 119 110 105 95 99 106 111 121 117 97 96 114 127 135 130 107 76 86 60 77 74 94 85 84 84 87 103 104 112 125 139 131 138 144 172 146 132 45 72 118 147 141
123 117 102 95 101 105 112 116 115 114 116 118 113 124 118 89 55 78 69 76 82 77 87 86 92 90 104 115 123 131 138 140 121 130 126 142 157 117 69 66 57 46 100
106 99 107 112 106 112 121 124 126 125 127 130 134 110 87 42 51 64 61 88 75 75 79 87 89 101 125 136 136 140 139 142 109 106 153 158 127 120 66 61 50 19 13
117 122 124 116 118 130 133 126 125 132 136 130 116 101 86 62 76 67 73 74 70 78 82 87 97 119 141 146 144 145 153 153 150 152 163 156 164 169 58 66 50 36 15
126 118 122 131 135 129 124 126 140 141 128 114 111 93 52 82 81 76 77 68 73 78 83 90 113 144 167 171 159 153 161 178 170 174 182 183 173 152 125 92 50 9 -3
124 123 129 133 129 126 131 156 147 129 117 121 112 94 47 87 84 77 -8 50 61 79 102 111 131 164 180 179 173 179 186 191 179 168 184 191 173 145 135 124 76 -6 -15
130 133 135 133 131 133 164 148 131 122 123 115 103 94 86 82 34 -22 12 34 69 92 106 105 152 184 173 174 178 207 236 248 235 226 252 224 184 159 124 93 79 -24 -33
138 135 132 136 149 159 142 129 120 110 114 107 97 94 88 -2 -12 2 27 57 76 97 109 135 162 185 202 186 176 198 223 238 269 356 275 198 120 77 70 78 59 23 -37
144 142 142 145 144 134 123 120 122 123 114 100 92 89 -13 -20 -3 27 46 64 85 95 124 149 173 198 196 201 201 213 205 185 117 81 83 76 62 54 71 72 60 64 -29
146 143 138 138 136 130 122 126 124 116 102 92 88 -7 -32 -5 22 48 65 73 76 107 143 170 209 225 217 190 203 186 178 116 51 39 52 59 54 63 80 67 59 71 -2

GFSGL_con_3kmhel_006.txt.gz
Helicity
247 256 256 255 258 256 250 234 238 241 235 237 222 207 200 183 157 141 137 126 137 122 115 131 139 158 188 183 201 203 187 188 231 240 209 172 155 145 138 126 126 109 90
261 269 275 272 269 270 261 256 245 251 253 242 231 225 199 168 151 149 141 131 123 124 129 142 144 147 170 196 204 176 183 204 248 225 196 173 163 156 137 128 122 114 157
287 278 270 262 267 271 265 253 263 262 260 258 243 223 186 162 149 134 130 123 121 127 130 140 138 158 169 169 165 193 199 198 200 211 200 193 195 157 144 150 150 135 179
265 254 253 251 257 254 250 262 266 265 265 252 234 194 165 145 136 130 125 123 133 139 134 140 150 147 126 122 150 172 195 199 162 174 213 208 209 195 160 171 144 172 174
243 243 244 249 250 256 271 272 270 270 258 240 205 173 161 147 127 109 114 137 144 130 131 134 119 85 77 146 190 185 162 159 156 161 207 228 180 160 133 145 181 177 195
218 230 234 245 257 273 276 267 262 265 244 203 181 174 161 125 86 97 119 144 144 136 134 116 117 97 141 128 107 78 106 121 169 151 169 168 174 157 168 175 185 166 206
222 220 227 248 273 272 257 252 255 235 197 183 174 148 127 104 92 105 106 146 152 133 113 125 153 163 147 160 122 115 139 76 86 129 145 148 147 125 128 122 167 205 206
217 231 237 249 256 247 249 244 217 185 176 158 140 126 117 109 107 96 98 151 141 122 123 153 165 159 135 96 114 122 103 104 118 105 108 107 74 73 89 118 116 139 225
226 227 221 223 234 233 231 202 171 169 154 131 117 113 110 99 92 107 118 132 133 133 160 142 129 118 67 43 104 112 107 102 72 35 49 45 45 41 57 81 84 73 165
201 217 226 232 220 209 179 168 146 126 127 118 107 104 86 104 95 94 97 126 144 158 125 124 89 93 42 62 94 108 95 87 90 77 60 63 66 98 51 76 81 132 139
237 252 242 220 199 168 152 126 134 129 118 110 98 96 107 108 103 82 97 141 149 147 156 150 112 47 48 51 57 94 90 62 47 19 88 106 117 119 120 119 115 131 143
248 235 212 188 160 140 152 136 123 113 102 99 102 107 111 105 72 88 110 125 120 176 148 115 99 54 46 58 63 15 17 25 60 81 95 121 119 134 150 143 138 153 181
223 192 167 156 156 147 134 117 102 101 99 101 102 107 106 86 113 87 98 100 117 114 113 70 78 55 59 59 22 22 25 72 65 84 104 130 146 174 172 148 139 140 170
180 165 157 154 140 119 103 97 97 100 104 102 95 87 91 101 112 129 131 121 87 91 78 113 70 68 53 24 56 67 85 71 63 103 124 138 136 145 151 131 155 146 170
169 154 139 121 115 107 98 88 99 90 81 77 81 98 109 121 113 98 101 110 98 87 78 106 84 72 69 71 75 83 85 93 112 122 127 113 121 113 129 115 150 163 162
139 121 115 114 107 104 108 105 96 73 68 81 97 116 135 114 95 91 90 78 69 57 100 86 79 79 76 81 90 101 127 108 132 128 125 126 135 137 98 97 90 123 136
123 114 114 115 112 110 105 103 106 109 87 92 115 130 121 98 96 77 93 59 70 77 84 81 84 87 94 105 124 139 143 148 128 127 125 155 146 145 38 53 42 31 37
125 138 117 106 102 96 96 103 112 110 107 113 118 108 89 83 73 91 72 79 69 68 78 82 87 93 105 133 153 147 151 154 140 138 147 160 164 147 57 40 34 26 31
120 105 104 101 96 96 112 115 116 121 124 121 119 94 93 62 61 67 70 82 81 78 76 81 97 105 126 150 154 154 159 167 140 149 163 160 159 163 80 34 39 12 0
109 109 109 108 109 117 122 126 131 129 126 124 120 110 103 79 99 83 77 79 79 85 82 92 102 108 140 160 166 165 173 165 154 146 145 153 166 154 138 108 56 40 27
106 106 106 119 120 125 132 133 131 131 129 126 111 101 55 99 97 90 84 78 80 81 89 93 104 135 165 182 182 181 184 199 190 184 179 187 169 154 140 139 120 78 8
110 109 113 121 131 135 127 135 134 131 127 119 113 111 56 100 95 74 52 70 73 81 97 108 133 156 179 194 195 196 211 223 219 203 224 217 193 162 147 139 113 18 -32
115 119 131 140 140 125 139 139 136 129 116 112 115 108 94 94 60 5 41 58 71 83 96 111 138 173 180 181 183 205 236 250 225 230 253 237 199 164 157 141 70 -20 -34
129 134 140 140 135 141 140 131 126 100 101 111 108 98 92 69 -25 14 43 71 83 95 115 125 155 186 197 178 167 184 207 215 240 323 287 217 149 110 107 103 66 -23 -15
139 141 139 140 142 138 128 126 120 118 114 110 100 84 70 -30 1 30 61 80 93 107 124 139 178 194 192 193 192 194 178 154 121 93 94 91 98 100 109 104 81 41 -9
140 141 142 142 139 133 128 128 125 120 112 101 83 78 -24 7 32 63 83 92 97 119 144 177 214 218 219 192 186 154 128 108 86 41 58 80 95 118 106 80 78 85 48

GFSGL_con_3kmhel_009.txt.gz
Helicity
229 234 266 279 269 246 241 231 223 212 197 199 189 185 170 159 142 139 132 117 112 116 117 123 117 123 142 157 166 180 201 198 229 214 174 130 96 89 90 85 73 74 90
259 269 277 280 271 271 256 239 222 229 222 211 204 190 172 163 153 142 121 114 125 130 125 129 129 149 150 155 171 169 174 157 180 167 151 145 127 94 80 83 103 124 142
307 295 278 269 267 263 256 245 240 235 232 222 205 190 175 157 147 125 110 119 124 120 125 126 130 138 141 151 153 152 143 147 147 173 177 175 134 104 123 137 100 101 114
319 290 265 238 243 250 255 248 244 239 230 216 202 175 162 148 123 113 111 110 120 120 128 128 132 129 129 130 127 98 117 148 142 169 179 177 146 116 115 107 95 107 97
309 279 248 235 246 257 257 257 260 251 229 202 174 163 150 128 120 113 109 116 122 132 132 127 128 121 96 101 136 140 138 149 166 191 173 154 122 102 90 95 115 109 121
274 257 239 240 246 254 260 262 257 229 202 176 167 154 143 129 110 107 114 132 138 141 126 119 137 122 109 73 90 81 97 142 158 153 144 134 107 106 101 92 116 116 122
255 227 228 236 251 251 245 239 217 196 164 159 152 144 133 113 103 111 113 136 141 129 128 128 128 131 104 120 101 83 101 78 88 126 111 104 111 106 64 105 111 127 159
235 229 222 233 237 230 222 203 179 157 155 148 144 124 121 112 106 117 115 130 126 129 124 123 121 111 102 90 106 122 106 86 102 89 81 102 99 -2 93 116 106 116 196
212 202 201 211 208 186 182 167 153 147 143 136 121 128 118 106 112 109 116 125 123 128 129 101 96 92 79 47 114 105 90 83 58 33 42 48 32 29 57 104 131 126 119
204 209 193 171 167 168 153 148 130 128 135 127 128 105 88 104 101 100 106 121 133 122 79 82 71 91 52 65 92 91 100 68 53 51 67 56 40 55 55 80 102 123 118
207 197 187 172 162 142 132 126 130 136 132 115 100 108 106 99 97 96 113 134 112 103 115 106 105 52 53 51 49 83 69 32 30 57 56 51 66 75 81 76 77 116 119
189 185 171 150 133 130 141 133 132 119 109 109 108 108 99 92 95 101 94 80 77 122 115 100 82 49 46 44 56 32 13 23 63 55 48 62 79 105 112 112 110 132 147
180 160 147 145 143 133 136 120 102 103 104 102 96 95 97 97 88 59 50 54 75 100 97 58 61 51 45 52 31 15 22 52 45 49 69 95 104 116 128 105 98 97 124
155 136 129 140 139 121 101 98 102 95 92 97 98 94 85 65 59 66 74 85 80 83 69 98 68 56 49 41 37 45 54 51 56 67 75 88 73 96 109 79 66 66 64
133 135 139 124 109 103 99 86 89 81 79 89 85 71 60 68 76 73 84 93 97 82 75 96 77 59 46 45 54 59 60 67 79 80 77 86 79 75 98 69 55 42 26
138 120 107 102 96 89 88 92 104 112 106 96 81 82 91 78 76 86 69 75 66 62 89 82 64 52 51 52 63 91 98 83 83 94 101 115 118 98 89 62 30 -2 23
118 100 94 90 86 92 98 112 119 118 88 79 93 95 90 90 98 74 96 57 72 68 82 67 56 55 63 82 109 129 138 130 126 134 140 143 142 146 22 19 18 7 26
94 103 85 86 91 101 110 107 96 87 87 87 104 114 98 87 77 89 81 77 67 68 64 58 58 70 89 112 133 141 148 146 136 133 134 131 134 131 108 38 15 6 26
86 89 90 94 98 103 100 96 98 100 101 106 116 106 98 59 56 81 75 78 57 51 50 58 66 89 113 127 142 148 141 153 138 161 164 160 155 135 127 107 75 12 -10
96 110 105 96 98 102 104 107 113 115 120 124 118 110 92 76 98 79 67 52 51 49 48 62 78 100 111 130 140 137 140 153 162 171 165 177 180 161 156 131 80 18 -5
93 88 102 103 106 106 110 117 123 130 130 117 109 96 62 95 88 72 59 43 34 40 57 64 87 110 125 136 138 139 155 187 192 189 184 190 188 186 157 139 94 36 5
90 95 103 107 108 114 120 137 138 132 123 117 107 95 64 91 74 62 -4 15 30 46 66 84 113 130 146 158 152 157 177 201 201 199 211 211 212 197 173 150 73 13 11
101 108 110 114 119 124 144 141 135 129 120 113 101 93 81 70 46 -9 17 28 43 67 82 95 120 150 158 165 163 179 209 226 220 225 254 262 243 203 178 140 42 5 3
111 112 117 125 135 146 140 133 128 116 119 112 98 82 66 49 2 30 38 53 71 89 108 123 146 185 203 190 171 171 193 202 224 310 291 233 169 122 121 88 47 26 10
115 123 130 137 142 140 132 125 120 122 117 110 90 61 41 10 42 55 62 77 97 118 135 138 165 193 203 202 192 171 157 136 120 130 109 105 111 102 100 78 55 37 11
123 129 135 140 144 138 126 119 118 116 103 89 76 53 24 54 72 82 95 105 122 138 154 169 197 205 213 184 171 122 108 96 101 64 58 89 98 107 85 71 57 38 19

GFSGL_con_3kmhel_012.txt.gz
Helicity
198 317 298 252 250 298 236 228 218 199 183 172 159 146 129 117 109 92 107 115 130 145 143 144 124 119 116 128 139 152 168 180 211 211 204 186 167 135 128 123 107 118 106
301 327 273 269 288 274 246 232 203 204 195 182 168 155 140 132 119 117 120 139 144 141 143 133 118 128 119 138 167 171 188 199 223 194 188 168 141 126 122 94 103 99 87
321 318 274 261 274 266 243 229 216 207 198 187 170 160 152 139 128 123 140 138 136 133 127 132 128 129 136 169 168 179 195 209 204 218 197 150 145 129 106 116 81 75 79
306 274 276 281 267 247 229 224 219 205 190 177 178 169 158 143 130 146 132 130 128 121 118 117 126 137 153 160 168 173 195 209 183 167 162 164 166 123 113 100 85 78 65
281 290 305 299 265 241 234 235 225 206 185 184 172 166 149 137 159 139 138 128 113 118 112 115 135 154 135 146 193 191 194 185 144 154 180 182 135 117 92 93 86 73 68
265 298 284 289 254 232 226 219 210 192 191 174 170 154 145 149 148 141 131 121 114 109 117 136 148 148 158 149 160 146 104 127 119 157 147 153 100 97 91 64 81 28 56
280 270 272 241 237 218 200 195 190 191 173 162 150 144 143 139 146 135 116 100 115 129 139 143 154 183 173 173 133 59 80 49 75 109 120 94 91 70 72 85 -6 98 115
262 250 227 216 209 187 183 187 190 164 158 144 141 134 134 142 124 108 95 95 124 138 138 141 168 172 154 108 90 111 116 91 83 107 88 73 73 83 80 -48 36 -26 154
212 203 191 176 174 176 181 175 164 145 137 134 128 137 137 115 106 97 105 116 129 125 147 135 135 92 70 49 100 109 91 76 72 46 29 26 31 9 25 64 111 97 134
182 182 172 170 171 168 165 158 142 134 129 128 133 108 110 94 101 102 109 110 139 162 126 94 88 84 65 58 97 94 92 67 57 50 45 48 37 40 31 68 109 121 115
175 184 184 171 172 161 145 130 124 132 128 121 105 95 90 106 103 99 109 135 148 128 105 104 91 75 57 53 57 74 79 55 34 51 58 54 48 51 57 63 73 106 116
173 176 176 161 142 128 128 124 129 124 112 100 95 98 104 102 101 109 127 121 100 110 99 89 85 46 44 43 57 50 26 34 66 59 55 55 61 72 76 87 74 96 125
167 155 146 143 135 120 121 125 117 103 95 96 99 101 100 109 117 120 94 81 72 98 92 65 30 46 45 52 42 24 33 61 64 64 63 76 73 72 82 83 81 72 80
155 146 127 115 118 125 116 105 96 92 92 95 94 93 101 110 117 115 97 89 88 88 75 71 53 47 42 38 42 53 63 67 67 73 77 68 55 61 83 72 65 58 69
127 113 120 126 120 103 95 90 88 98 92 88 96 105 117 108 111 88 84 87 112 82 67 63 67 60 54 53 54 62 68 66 66 72 85 92 90 88 101 83 71 35 30
123 121 113 98 92 91 87 86 93 90 85 98 106 117 111 94 93 87 60 79 72 62 66 65 62 55 53 50 52 60 67 65 75 87 97 114 120 117 109 104 93 34 -6
119 104 93 92 94 95 95 96 97 102 98 106 111 110 106 101 103 85 101 71 61 62 64 62 54 54 52 54 59 76 103 95 91 95 121 139 133 129 92 113 104 98 -2
107 107 93 92 93 92 92 94 102 114 113 111 119 109 101 102 102 96 105 67 70 63 62 56 51 50 47 46 66 94 104 97 102 110 135 133 138 134 141 139 121 40 -9
93 90 87 85 86 93 99 106 111 110 107 111 116 119 129 100 80 94 80 73 57 45 46 44 39 44 45 61 85 103 101 117 123 142 149 151 154 151 178 160 149 25 7
92 90 84 92 99 105 109 112 115 112 115 122 132 135 124 93 90 74 62 53 39 26 14 29 33 40 49 76 101 110 112 125 139 144 149 159 169 176 179 162 163 41 46
82 88 101 100 103 108 116 115 113 117 123 130 129 129 97 94 78 61 44 -19 -19 -5 19 35 36 48 76 105 119 113 115 140 151 156 166 178 183 197 179 172 157 70 57
91 97 99 101 106 113 111 118 120 129 134 136 130 120 88 83 59 43 -25 -8 5 19 32 44 54 78 119 147 145 138 137 154 166 163 178 202 212 210 180 173 130 78 29
99 100 100 110 116 112 122 129 133 132 129 127 127 109 83 49 26 -15 9 20 24 32 42 57 79 128 147 156 152 159 173 184 184 180 219 259 264 236 187 160 78 24 22
103 106 111 119 121 125 132 130 132 124 124 120 102 86 53 18 5 30 38 41 45 61 70 84 111 151 168 167 153 151 166 177 195 273 294 273 194 121 106 74 31 22 57
108 115 120 126 131 133 128 130 128 124 118 99 80 57 27 22 43 55 59 59 68 84 104 119 149 159 167 169 170 164 154 132 161 185 142 103 92 84 77 46 29 52 72
119 121 122 129 137 133 130 127 121 113 98 79 59 35 28 53 72 77 74 79 91 107 123 146 163 161 164 160 153 131 127 151 183 38 65 84 93 73 55 38 37 56 70

GFSGL_con_3kmhel_015.txt.gz
Helicity
240 241 289 329 318 344 304 319 271 203 196 183 167 146 129 115 106 101 115 116 108 116 140 148 154 155 150 146 149 157 176 195 215 219 217 221 213 188 195 168 156 126 125
250 245 346 355 342 344 299 297 243 224 211 193 164 148 135 130 123 123 116 124 121 135 147 168 153 141 138 137 154 168 190 184 208 209 212 200 182 170 158 143 113 138 103
228 318 358 402 388 333 323 286 262 244 214 185 170 162 152 134 139 133 136 131 139 141 145 145 141 142 147 162 184 191 198 210 228 244 248 221 178 158 137 123 106 112 125
242 320 396 400 370 331 305 288 249 210 187 180 178 176 162 149 154 143 133 132 129 141 131 125 128 147 156 181 203 197 213 236 237 244 225 187 159 143 120 123 117 109 89
304 363 349 357 362 290 315 268 214 194 191 186 178 172 156 175 170 159 144 134 133 125 126 129 141 167 175 148 172 179 199 223 211 190 178 158 141 122 115 117 106 83 80
395 396 335 335 320 288 247 201 187 188 182 183 179 160 171 154 177 145 139 135 115 115 139 156 172 168 155 168 150 168 160 164 146 148 153 142 118 118 119 103 81 90 81
531 402 273 243 255 219 207 193 199 176 171 166 156 161 143 150 170 141 122 102 107 126 152 158 151 160 177 190 188 140 120 58 74 101 118 137 130 109 105 125 105 100 105
340 272 202 263 222 227 218 199 183 166 160 153 140 133 141 144 150 114 95 85 119 129 141 130 149 157 168 171 166 139 118 98 88 114 127 125 104 109 129 119 106 125 115
221 143 180 209 212 197 201 190 164 151 143 125 138 140 134 113 142 105 114 119 123 116 137 150 152 168 153 100 121 114 93 96 76 47 43 26 18 13 37 111 121 134 74
148 151 200 197 202 186 164 162 151 139 144 135 130 107 110 92 122 130 123 98 121 167 170 153 152 148 102 69 101 94 90 81 75 65 74 63 55 60 27 72 102 126 128
218 211 200 178 169 160 150 138 137 137 124 107 87 84 94 114 118 116 116 127 154 164 159 159 139 89 74 45 49 79 76 61 53 75 81 88 84 79 82 60 64 123 135
176 181 173 164 147 134 134 134 137 115 93 94 99 109 115 118 120 124 117 107 118 157 154 127 105 59 42 41 51 39 29 38 85 88 92 101 101 103 97 99 108 136 159
166 161 148 142 135 132 131 111 102 100 104 111 108 108 114 131 130 122 125 131 130 144 117 82 52 39 41 54 40 28 42 84 89 98 112 119 128 137 123 113 113 106 115
142 135 134 137 127 111 104 102 99 98 98 98 105 113 120 124 133 171 160 144 115 112 97 90 63 42 47 48 54 64 76 79 82 92 107 134 144 138 135 124 121 118 127
151 139 121 104 111 109 104 96 92 107 106 101 115 118 121 133 152 141 121 117 107 98 76 92 76 70 68 63 64 66 72 82 87 99 123 134 142 131 132 132 143 146 138
118 109 111 107 101 92 85 86 86 89 89 90 97 114 127 125 125 104 86 59 79 56 91 80 71 68 65 62 60 70 94 80 99 108 130 145 149 139 139 148 148 139 143
120 113 100 92 90 88 83 81 83 87 70 68 88 113 121 113 111 106 84 80 61 65 85 74 70 68 66 69 72 84 108 120 102 123 141 158 159 158 115 151 152 158 154
114 107 92 89 87 85 87 86 92 104 109 123 148 135 114 114 107 87 96 84 88 81 72 65 67 65 63 64 79 110 129 128 116 129 157 162 163 174 178 179 160 162 167
89 90 89 88 90 81 82 91 100 102 112 125 134 137 146 114 85 98 109 101 80 64 55 54 60 59 67 81 111 130 135 131 109 133 158 164 173 176 191 197 187 91 51
102 100 85 78 78 83 93 95 97 110 121 129 138 149 154 127 131 110 81 60 50 27 2 44 55 63 78 102 129 135 140 130 133 148 160 167 180 198 196 178 147 128 121
85 85 77 75 87 96 95 95 112 121 127 130 131 131 120 133 107 69 36 30 -3 8 22 40 52 73 99 126 132 138 137 152 159 165 173 182 193 208 204 179 156 149 153
80 82 85 93 94 101 101 111 118 124 123 125 122 120 92 105 70 32 22 20 25 30 38 48 71 104 133 152 152 160 163 167 181 183 195 215 224 218 203 173 164 139 44
88 92 94 103 107 96 108 122 125 127 126 120 116 103 86 64 29 24 31 36 36 46 57 74 107 143 154 161 170 180 188 213 217 219 260 267 260 252 211 151 73 24 46
95 101 108 112 110 114 123 133 131 122 117 106 102 89 69 32 16 35 43 51 61 78 92 115 142 168 174 177 175 174 185 218 244 313 334 305 212 117 89 49 30 50 58
105 114 113 116 125 132 134 130 130 126 116 103 93 72 40 11 36 49 60 65 93 123 135 130 152 169 174 174 173 157 167 170 186 181 130 118 117 102 82 69 62 59 49
118 116 115 127 140 143 136 135 133 123 107 96 75 52 15 39 54 61 69 94 118 137 147 152 160 155 155 151 140 112 120 132 168 66 94 105 109 100 90 83 78 56 42

GFSGL_con_3kmhel_018.txt.gz
Helicity
463 445 412 394 311 291 348 402 414 384 316 296 273 214 177 147 129 110 107 114 80 96 114 128 142 170 150 156 162 164 182 199 207 198 193 176 188 160 151 159 145 155 134
420 398 369 321 298 337 441 471 404 356 312 280 238 198 169 161 143 136 126 125 117 117 120 149 154 162 168 158 163 168 194 198 219 190 192 195 200 168 164 169 138 136 119
346 327 317 320 370 446 469 432 398 374 314 269 225 197 173 156 146 148 143 138 147 134 139 159 157 162 170 176 181 210 209 198 219 223 208 199 182 167 158 145 127 128 122
352 308 345 369 408 450 443 419 418 328 271 245 227 205 171 147 147 145 149 157 157 156 156 150 152 156 166 183 197 184 181 195 196 205 207 191 172 145 141 144 116 134 119
295 332 375 406 447 474 487 431 330 305 279 234 200 161 130 135 141 160 165 166 162 160 152 147 167 181 171 164 184 197 189 202 213 202 179 173 143 114 119 131 137 114 108
286 391 440 497 458 515 398 347 335 253 210 191 169 133 145 140 156 160 159 156 150 145 148 150 158 147 147 168 163 144 153 184 188 171 154 126 114 127 159 128 126 133 138
434 496 538 570 587 379 293 273 210 198 151 142 141 152 131 145 150 164 148 146 130 124 133 135 143 150 148 164 152 128 137 111 98 109 114 112 113 108 124 141 140 131 151
512 518 425 380 201 63 123 145 158 164 169 147 149 134 143 141 159 157 148 131 129 121 115 128 150 151 156 152 177 189 161 124 99 102 92 88 100 88 99 113 107 125 124
377 344 195 241 123 160 172 188 177 157 165 130 120 152 167 170 137 146 142 135 119 117 140 155 162 173 172 132 201 165 112 103 75 24 17 17 20 14 47 106 107 110 98
165 63 104 101 77 152 165 157 174 134 124 159 151 129 130 120 136 124 112 108 116 136 145 146 141 157 136 137 136 118 94 76 79 76 80 66 67 98 40 83 114 126 125
44 1 110 151 135 142 146 122 127 159 140 117 111 103 103 103 98 96 116 113 112 128 137 147 154 112 95 71 57 92 75 63 61 81 86 105 112 116 120 126 137 163 165
99 105 149 121 113 125 154 156 140 121 116 121 130 123 113 123 128 117 99 93 104 151 148 140 129 73 60 37 59 39 31 44 75 88 104 116 119 127 120 133 136 138 165
130 136 146 174 156 124 110 101 104 111 116 111 100 101 114 129 128 144 174 153 136 143 146 103 74 56 37 56 42 38 50 80 85 86 94 106 116 140 144 142 134 141 157
175 162 126 115 114 104 101 105 102 99 101 105 116 120 111 117 141 159 145 149 126 136 109 111 83 46 40 52 54 67 81 76 70 78 94 110 132 140 146 148 159 168 166
112 101 90 78 87 101 98 81 87 91 95 100 97 103 112 114 124 123 137 141 144 113 90 98 86 75 53 59 66 74 75 79 84 97 112 128 148 145 154 152 164 177 173
94 78 84 89 86 79 82 82 73 84 88 85 86 96 114 103 105 119 123 104 89 85 96 94 78 55 54 53 53 58 85 89 112 126 128 150 169 173 169 170 169 172 188
101 93 81 84 87 91 90 90 80 68 54 49 57 78 94 102 128 137 106 82 107 91 88 65 54 48 56 61 65 80 107 133 130 140 144 169 183 187 136 191 190 176 112
94 110 92 94 91 85 79 75 77 83 87 94 112 116 117 137 139 123 119 137 102 70 53 40 29 49 56 60 80 105 129 146 145 148 173 167 170 173 180 187 169 104 92
99 97 90 83 79 77 80 82 85 93 102 108 122 127 139 116 114 126 131 109 54 32 29 32 28 51 56 75 101 123 142 163 137 150 169 167 172 163 178 170 152 94 58
101 105 92 81 83 88 89 91 99 108 110 112 116 118 119 111 126 116 85 39 25 24 24 17 39 61 79 101 122 137 160 170 166 173 180 180 187 180 180 163 149 135 150
84 86 91 91 92 89 90 101 108 109 110 113 112 114 88 113 88 59 24 15 4 10 31 39 61 87 105 123 140 159 170 183 188 205 215 214 214 206 183 174 175 185 163
94 94 92 90 91 105 103 103 112 121 126 124 117 109 90 99 61 28 11 10 14 34 49 62 93 114 136 157 161 171 178 187 210 239 261 266 261 231 214 209 203 153 87
100 96 91 97 108 107 121 127 137 143 136 126 118 103 92 69 32 12 20 25 37 61 84 93 110 132 142 161 174 180 186 223 246 263 304 315 283 248 203 156 88 91 80
101 100 101 107 118 130 138 152 160 151 143 132 112 90 74 45 16 34 41 55 73 107 119 125 136 145 149 153 159 156 180 224 258 352 292 200 138 119 106 102 108 105 94
108 110 114 124 134 152 171 181 179 164 145 118 95 73 55 21 51 52 54 63 91 116 132 133 143 151 149 151 141 126 148 147 140 131 125 141 135 118 123 137 114 92 64
111 115 122 140 162 176 187 196 176 155 130 98 76 62 41 47 64 52 56 73 87 104 126 135 147 146 145 143 131 98 106 99 109 54 84 113 118 124 130 119 85 78 48

GFSGL_con_3kmhel_021.txt.gz
Helicity
328 413 462 427 381 339 318 339 389 413 442 456 373 381 189 231 181 162 122 98 94 90 108 102 106 146 145 158 177 188 183 197 202 195 177 146 152 134 145 154 134 138 137
298 366 400 372 372 310 271 343 357 450 480 456 366 312 250 212 172 132 119 112 100 96 107 95 113 150 151 157 174 164 179 183 193 161 173 161 152 167 181 175 159 145 142
369 413 381 362 317 296 354 375 402 464 384 324 282 288 235 205 169 150 136 131 122 106 112 122 135 137 147 166 170 171 176 184 198 205 185 175 188 172 178 155 157 135 112
411 424 398 333 343 398 407 417 405 422 364 348 296 282 219 181 171 157 143 129 133 150 164 175 150 152 149 156 158 157 176 190 188 196 205 187 169 149 140 147 117 111 111
447 412 360 377 409 464 457 439 470 490 336 300 282 255 204 174 148 146 149 159 160 162 167 168 164 149 145 145 187 204 196 192 208 214 203 181 151 140 128 114 119 110 103
352 380 434 493 497 494 509 391 454 322 343 283 224 206 170 150 167 153 156 150 160 169 160 151 135 127 145 149 169 149 152 187 208 200 190 161 137 118 132 113 129 119 100
379 409 458 477 526 468 613 543 363 255 190 170 145 125 172 161 160 168 167 164 169 156 131 138 148 160 174 168 147 137 132 121 117 148 154 130 125 110 122 130 117 119 118
378 402 438 471 426 421 361 253 136 173 120 128 138 160 146 123 155 163 185 162 148 134 136 164 176 170 169 173 192 192 157 151 126 127 124 122 119 104 97 98 94 113 129
299 349 305 252 274 251 190 159 66 103 100 127 129 135 142 129 143 147 150 137 135 134 147 157 154 170 176 141 173 181 148 123 86 38 36 35 38 31 52 98 101 108 111
146 183 164 153 83 71 62 32 44 100 125 142 120 110 115 110 119 111 102 109 127 127 122 135 140 159 131 115 157 155 123 84 82 79 89 74 72 92 53 99 126 141 147
59 63 62 28 39 58 73 92 109 131 113 116 128 127 123 101 94 100 97 105 95 115 126 146 153 123 115 118 113 125 92 62 67 68 55 79 85 95 105 112 124 157 147
29 17 39 17 49 76 110 111 122 106 123 137 147 140 130 126 124 106 113 140 137 151 149 150 146 111 115 95 96 66 44 61 51 61 74 86 92 107 120 129 135 146 175
38 86 83 70 81 95 105 89 109 131 140 128 119 121 121 121 133 168 159 152 156 161 157 119 132 119 101 102 68 47 55 69 72 73 82 102 112 135 132 126 125 129 149
85 99 91 102 95 92 109 115 123 110 109 110 109 104 101 117 129 135 141 147 146 161 140 132 132 114 98 62 53 68 86 85 81 94 105 110 110 115 122 124 131 134 147
111 93 92 100 114 120 103 85 90 84 84 83 83 92 105 111 116 129 135 141 152 135 143 128 113 82 65 55 69 81 87 91 101 110 113 111 114 114 130 133 149 164 175
108 95 87 82 78 82 87 87 77 78 89 92 92 95 87 88 100 119 114 97 120 170 154 114 67 49 42 50 55 63 83 81 111 116 126 137 140 146 151 150 152 142 112
95 72 73 81 81 80 77 84 91 83 123 125 111 98 94 109 127 113 98 122 175 147 93 45 38 37 48 57 66 76 87 110 121 135 149 168 171 176 118 146 129 119 131
78 98 84 80 76 77 84 89 91 95 99 102 99 118 128 131 136 139 127 133 113 73 28 20 29 39 47 55 66 79 101 116 123 140 162 167 170 167 149 138 142 153 165
89 82 77 80 82 91 88 89 96 109 111 108 113 132 131 122 143 136 122 96 48 21 16 16 37 58 59 65 83 105 120 127 115 136 180 194 186 166 180 182 185 130 99
90 110 101 90 88 86 90 103 117 122 126 133 143 147 144 135 130 111 94 51 23 17 10 8 39 66 69 84 97 105 119 130 141 169 205 214 215 203 208 203 185 175 167
93 91 100 90 88 92 105 122 126 136 146 161 168 143 118 125 98 82 66 25 14 9 13 23 58 79 93 109 109 121 129 147 163 196 216 231 242 226 217 225 222 204 192
89 88 90 91 95 107 114 132 151 166 182 186 162 135 118 113 86 68 22 13 11 21 29 56 89 98 105 115 119 128 127 149 179 193 215 237 237 242 262 255 217 173 128
95 96 97 97 107 124 141 157 185 208 202 176 150 126 106 89 65 25 9 24 33 47 54 76 93 111 113 118 127 131 134 168 191 204 257 279 276 265 220 181 151 129 130
101 100 102 110 117 144 159 187 223 216 187 159 127 98 72 55 25 19 38 44 49 59 66 78 102 119 119 116 120 120 138 174 184 268 295 253 195 139 141 138 110 101 143
105 106 115 122 136 158 186 220 229 197 163 124 86 55 45 22 29 48 56 50 50 43 55 77 98 111 114 124 120 95 105 100 106 123 133 129 114 115 122 131 117 122 151
107 115 120 134 156 183 210 214 187 156 118 75 47 39 31 42 54 60 55 43 30 27 57 72 100 115 120 119 98 61 77 77 77 80 71 98 108 104 100 103 79 75 109

GFSGL_con_3kmhel_024.txt.gz
Helicity
83 227 333 392 422 423 383 398 427 398 422 496 532 468 405 447 380 336 288 174 203 136 123 91 82 95 125 136 161 200 194 214 229 212 185 164 166 144 141 163 150 169 160
137 286 358 405 401 339 344 356 357 385 402 493 520 455 414 435 303 257 207 186 168 124 101 99 77 99 113 141 179 173 185 189 207 170 174 172 155 158 176 169 182 163 173
205 314 337 346 328 306 293 323 331 393 412 447 457 421 399 348 320 255 240 182 178 138 122 99 99 140 140 177 183 177 186 172 185 204 189 185 177 170 166 174 184 157 141
241 319 328 299 275 304 329 325 345 363 427 441 517 482 334 295 277 237 215 200 153 141 142 141 146 148 165 165 166 154 164 179 184 203 215 207 192 157 169 188 174 137 131
294 347 426 404 385 406 390 380 363 387 423 440 463 402 329 356 260 159 144 154 155 142 157 177 176 168 132 135 159 162 183 202 211 228 234 232 165 164 182 147 141 111 100
364 397 408 462 457 475 491 518 504 480 466 450 391 284 243 228 192 156 137 145 171 157 161 193 179 160 164 162 168 173 181 209 230 243 238 183 177 163 138 123 119 97 70
401 426 486 496 474 525 480 450 435 461 432 390 316 223 180 172 141 158 145 143 150 167 176 171 176 192 205 193 191 192 204 182 173 177 203 163 146 127 130 125 98 101 110
296 355 333 399 398 346 360 414 391 328 337 346 199 158 119 107 92 109 151 157 154 153 147 149 159 163 172 194 214 245 217 179 165 160 150 140 139 116 104 102 97 114 124
151 121 173 182 198 228 288 248 201 205 141 96 60 55 74 93 122 120 127 133 142 133 132 149 154 182 181 206 242 212 185 161 119 59 56 56 59 48 60 117 115 119 127
122 111 137 149 128 167 110 161 107 76 46 37 78 87 87 87 88 98 105 104 121 129 129 156 180 198 185 158 191 192 167 131 115 93 100 82 80 91 58 117 140 149 144
32 73 97 103 100 70 42 32 23 59 85 101 115 116 124 103 84 87 88 90 85 115 146 163 177 162 147 155 144 162 123 89 97 66 59 69 77 93 112 124 131 163 149
-7 9 23 32 30 33 72 49 60 93 98 96 106 122 127 133 131 126 150 154 157 158 139 147 148 126 163 140 131 80 56 64 61 58 66 79 98 112 109 117 126 142 181
22 25 24 39 60 71 71 59 85 91 94 98 105 112 111 123 135 154 157 155 143 149 158 142 175 178 148 124 66 56 57 68 61 65 75 100 118 125 115 121 127 139 154
50 59 54 69 73 68 64 64 80 82 88 97 117 134 134 139 142 132 126 138 139 155 163 172 178 165 121 64 50 54 68 64 65 76 92 102 100 115 124 128 129 113 97
93 68 66 69 68 78 77 70 83 87 100 112 120 131 133 122 115 128 146 149 153 144 194 155 138 106 61 41 51 53 55 61 70 93 106 109 118 126 139 122 126 113 123
77 63 58 60 59 64 74 93 103 111 125 123 110 103 109 101 122 144 124 119 165 151 165 140 111 57 31 34 30 37 50 46 85 94 108 143 158 153 134 115 118 127 148
76 59 59 71 78 86 93 102 104 99 124 143 148 147 155 170 156 134 120 123 133 138 118 88 49 34 35 23 26 41 60 83 89 94 121 154 168 167 110 150 158 162 176
71 87 75 76 80 88 96 98 101 115 134 148 174 193 185 168 156 147 126 133 111 111 65 36 35 24 14 15 34 58 70 73 81 102 130 145 162 173 164 172 170 164 182
71 70 77 84 89 96 98 110 130 150 163 177 188 190 179 162 174 162 143 111 92 66 32 29 10 13 16 49 69 85 89 90 77 100 133 150 174 188 211 215 205 131 138
73 92 91 94 101 108 117 135 152 170 187 200 210 211 199 192 173 141 108 86 55 25 18 11 19 13 51 68 78 79 81 90 102 116 143 164 195 217 238 239 218 205 219
80 82 106 111 116 122 133 146 161 184 206 223 219 192 170 176 128 91 67 43 11 6 19 28 43 66 67 76 78 83 91 110 115 135 152 173 208 221 224 237 222 237 254
85 101 110 114 113 127 143 162 187 210 224 227 211 182 140 121 83 62 40 6 14 24 32 47 66 72 73 79 83 92 95 102 118 129 150 187 220 228 214 204 194 165 180
111 119 116 110 119 142 161 179 201 216 223 205 173 131 87 58 45 31 15 23 23 29 32 43 57 69 82 94 107 109 100 119 139 147 183 229 254 207 188 163 144 144 149
118 116 115 120 125 148 165 187 204 207 192 169 119 59 28 17 1 -10 15 28 22 26 29 48 64 76 80 88 100 95 98 128 143 202 245 260 191 142 141 139 148 134 153
114 114 118 125 136 152 169 186 188 174 151 105 46 20 3 -18 -23 -3 23 25 17 13 32 51 70 77 77 89 95 80 68 72 75 85 127 132 152 112 126 142 130 72 87
115 117 119 127 143 158 169 170 158 135 99 56 28 5 -17 -26 -19 5 14 15 14 24 44 55 62 69 79 80 83 48 44 51 53 85 48 97 131 120 102 101 79 68 81

GFSGL_con_3kmhel_027.txt.gz
Helicity
96 34 95 168 223 275 300 389 395 426 465 440 447 484 451 488 490 557 521 361 391 238 217 165 169 150 103 116 131 149 154 194 192 215 204 185 181 152 144 156 142 160 167
110 75 103 159 209 244 265 352 416 377 354 376 387 405 475 555 582 525 420 447 384 273 299 181 107 120 125 130 140 135 171 195 222 201 193 181 173 142 141 149 149 165 180
75 82 139 153 195 227 281 311 322 362 331 348 391 506 591 577 566 472 394 275 208 170 197 176 111 128 131 147 159 166 185 192 199 214 191 174 155 149 160 166 174 178 181
10 67 129 141 201 234 266 282 328 355 383 441 439 540 552 569 509 462 333 342 336 192 158 156 145 136 124 158 168 160 170 182 186 197 195 191 167 142 175 166 181 169 161
29 97 150 193 251 258 317 349 371 428 458 523 530 602 605 537 427 381 318 255 266 243 152 139 134 141 134 138 159 149 161 175 179 191 203 211 183 173 180 183 178 145 125
73 160 212 287 375 421 455 470 456 449 440 455 420 464 443 374 253 288 248 203 226 161 135 156 150 175 193 184 174 177 164 185 207 200 201 207 203 181 180 152 148 126 111
207 230 221 307 372 420 428 445 420 407 391 390 443 437 438 328 301 272 217 159 116 130 143 147 173 169 172 160 168 163 171 139 135 180 217 203 192 147 147 137 129 138 140
163 217 265 282 308 324 348 346 344 316 347 311 290 318 242 227 146 101 79 98 108 118 128 134 136 136 140 130 144 175 148 137 161 203 177 160 151 125 124 120 115 139 149
-5 129 113 143 168 226 230 206 194 161 196 193 198 124 82 60 51 66 66 92 111 114 111 119 116 109 119 151 120 141 179 187 162 89 81 60 47 39 57 122 136 143 136
-2 28 80 129 154 156 199 133 152 178 168 91 82 55 29 22 62 80 87 90 97 106 113 118 134 128 72 81 177 209 207 172 139 107 95 67 69 83 60 132 169 179 168
44 71 72 48 60 49 52 40 99 52 44 50 66 80 90 80 99 82 73 89 95 112 118 112 107 98 133 177 206 213 170 119 95 69 52 61 70 88 110 133 143 195 188
-31 -21 -8 -18 -24 -12 6 15 27 42 64 64 74 91 101 116 131 142 146 129 115 96 86 100 116 135 168 167 171 135 93 74 56 51 47 52 65 89 107 120 127 145 186
3 3 0 -5 -2 9 37 38 44 54 61 60 72 91 100 108 117 130 127 120 114 135 140 137 142 143 139 165 142 92 52 48 40 33 34 59 92 121 118 127 128 124 143
22 20 28 44 42 41 41 36 51 53 59 68 80 86 88 101 103 99 113 136 158 164 142 139 145 154 167 131 80 44 42 36 28 33 49 66 83 102 125 128 129 112 104
41 31 36 38 43 52 52 40 53 54 59 66 72 84 106 131 141 162 183 170 144 127 147 139 138 131 108 55 33 32 33 30 35 43 51 60 81 101 124 125 147 152 156
42 31 27 34 39 45 50 58 71 74 87 103 120 134 140 140 153 162 138 141 167 145 160 136 116 84 37 25 27 24 24 20 42 50 65 85 106 124 131 156 159 170 180
44 34 38 45 45 44 49 61 71 86 138 162 164 161 160 158 159 170 174 164 153 144 118 94 68 38 32 27 24 30 38 54 60 69 82 106 120 144 119 180 177 183 199
48 60 47 47 54 65 76 85 100 117 124 125 154 186 203 214 207 196 151 142 110 98 73 40 37 36 26 38 37 38 48 52 60 76 101 112 124 146 168 178 181 183 189
54 55 61 69 76 87 94 107 118 128 142 164 195 220 224 204 208 167 128 93 62 49 18 24 36 36 44 46 50 57 60 63 59 77 96 118 134 155 178 194 199 121 87
65 84 85 84 89 97 109 124 132 145 165 194 214 220 207 195 169 113 69 47 30 7 13 28 34 49 49 51 54 57 68 73 87 96 112 124 143 169 188 179 189 172 192
71 75 94 98 101 108 119 128 143 166 188 210 207 195 155 163 90 46 28 8 -6 -4 13 25 42 52 63 73 75 84 84 100 102 108 117 136 159 179 191 202 206 220 241
76 84 90 98 106 119 128 142 164 187 200 203 193 172 119 86 33 13 -7 -12 -12 0 24 29 50 69 75 76 81 90 97 100 101 107 119 147 179 203 218 214 222 234 227
84 91 101 111 119 131 147 160 177 193 190 178 166 133 83 31 6 -8 -14 -16 -12 0 16 32 55 72 87 96 93 103 104 102 97 106 127 160 200 240 244 231 194 169 150
90 100 114 123 127 140 147 158 177 179 166 154 127 85 45 10 -11 -12 -8 1 7 22 29 46 62 77 76 75 84 95 107 101 90 114 156 189 211 173 180 183 167 160 158
100 112 126 131 137 139 143 158 166 154 142 127 97 58 28 -1 -4 -1 9 17 21 27 36 52 70 76 76 80 80 81 76 31 46 31 68 105 104 116 158 175 145 165 145
110 120 123 129 131 130 134 138 142 131 119 100 69 39 19 15 13 15 11 17 28 38 48 61 74 82 79 79 82 57 29 17 17 25 34 61 65 119 120 115 116 145 130

GFSGL_con_3kmhel_030.txt.gz
Helicity
179 203 169 132 79 107 147 186 232 283 282 305 345 399 435 439 458 518 561 558 550 470 483 477 324 256 243 209 177 142 146 160 178 180 189 185 179 143 134 143 140 150 152
286 216 182 135 97 100 115 158 203 238 250 260 307 342 389 424 458 534 619 575 594 402 493 439 358 186 280 220 190 136 123 128 179 167 173 172 150 139 132 135 131 130 139
286 222 183 113 81 83 121 145 167 186 205 224 244 315 379 433 523 595 597 568 460 483 358 531 255 155 225 177 169 129 128 157 168 184 170 151 143 134 147 137 148 163 166
101 174 78 56 51 91 138 179 193 191 201 244 318 372 431 501 582 628 607 569 457 394 485 374 366 220 229 171 114 131 158 159 167 171 167 172 158 122 153 146 155 172 156
129 220 93 48 63 155 218 237 300 319 338 379 407 433 466 533 523 535 508 402 403 410 348 262 229 145 102 98 148 143 155 156 150 162 169 175 158 147 152 172 184 158 131
85 76 73 147 183 236 252 277 311 314 337 339 328 369 426 439 418 424 409 442 413 378 258 155 105 111 138 147 148 133 124 138 151 164 170 165 152 156 190 169 170 145 101
30 73 125 168 191 202 225 266 271 306 327 325 335 348 380 403 281 300 279 257 205 165 111 99 95 113 131 133 132 134 142 124 125 154 159 141 170 179 183 179 122 115 132
25 -57 58 129 147 166 199 210 223 221 259 260 280 297 310 200 236 201 194 162 120 89 74 104 126 132 116 116 118 127 130 120 137 151 160 167 164 133 130 111 97 123 151
16 19 -23 -6 134 167 203 201 257 269 240 256 210 218 204 199 144 78 48 56 90 102 106 115 98 97 82 86 113 136 129 119 122 90 108 105 87 58 56 80 95 102 112
29 22 34 51 107 140 166 183 159 157 138 133 144 101 80 54 34 28 61 79 99 94 81 86 100 102 81 82 120 123 102 97 130 143 142 98 79 67 36 82 123 138 150
20 25 10 9 21 28 45 35 25 39 57 63 53 40 14 30 79 75 70 78 81 87 103 110 109 95 82 82 117 127 126 136 147 123 88 82 69 61 76 93 110 174 164
-21 -9 -12 -30 -24 -16 9 9 12 -14 -1 8 51 68 68 96 107 104 96 93 115 113 112 103 66 20 98 126 146 130 131 160 116 77 58 55 54 67 83 100 115 138 184
-5 -9 -9 -15 -17 -14 4 7 10 16 29 30 44 54 61 68 83 117 127 134 120 104 73 72 117 139 139 150 146 159 140 85 44 39 38 59 76 91 98 99 104 121 141
22 16 7 11 11 5 7 7 17 21 27 33 42 52 55 71 85 95 111 125 120 119 119 135 164 164 155 125 113 81 46 34 23 26 45 53 59 77 96 101 109 111 117
33 19 19 19 21 27 30 22 25 19 26 35 45 60 77 86 92 105 131 141 156 168 182 152 129 101 79 62 36 28 25 17 26 35 39 47 59 69 94 102 130 139 159
47 34 28 28 29 36 41 49 62 63 69 72 64 61 70 96 150 185 196 180 165 136 138 96 62 37 13 18 19 16 27 23 41 49 58 66 73 80 86 112 129 141 147
46 34 34 38 35 33 31 39 47 52 90 101 114 134 157 170 168 171 163 162 133 100 62 37 14 13 19 15 32 49 59 63 71 73 77 83 87 107 86 131 137 147 154
48 61 45 43 46 51 57 64 74 85 91 98 124 146 163 167 175 181 149 121 78 36 22 8 15 12 16 30 43 55 62 67 71 77 90 102 103 114 126 144 153 158 170
52 49 51 53 55 68 73 80 87 93 99 107 125 156 175 171 184 151 98 56 26 9 8 11 11 22 31 41 54 72 81 78 66 79 83 95 101 118 146 172 183 118 99
52 63 63 67 74 75 76 82 87 96 109 130 145 159 164 170 164 114 51 22 6 7 1 8 20 41 48 56 68 82 87 87 91 95 98 101 110 133 168 187 199 194 201
60 63 82 81 81 82 85 92 101 110 120 131 139 149 131 164 122 75 28 9 7 1 12 23 34 47 68 82 83 95 101 108 106 104 100 103 116 147 169 190 214 220 212
72 78 81 83 84 88 90 97 101 109 121 133 140 141 111 127 88 50 19 13 5 12 28 28 43 68 87 97 91 93 102 115 114 105 112 108 124 152 178 200 206 208 218
80 87 90 90 90 93 99 97 101 109 121 127 128 127 115 91 64 34 18 14 9 11 21 38 58 68 91 107 114 105 113 123 123 109 95 102 129 164 190 203 178 175 180
85 89 90 89 89 91 87 86 98 101 112 121 119 111 97 73 46 26 22 20 13 22 33 52 70 82 83 86 101 111 120 128 125 121 126 142 149 133 153 144 162 170 208
92 91 86 86 89 89 81 84 87 97 107 112 109 102 80 57 39 37 31 32 34 33 40 54 72 79 80 90 101 101 95 48 75 96 94 91 109 110 126 132 138 157 175
93 88 84 90 91 83 76 71 77 88 96 102 96 83 64 46 39 36 32 35 35 31 37 56 65 69 70 83 96 71 30 30 47 36 77 100 103 113 119 57 79 121 147

GFSGL_con_3kmhel_033.txt.gz
Helicity
256 240 263 253 236 214 188 154 114 125 136 136 127 154 184 240 280 318 342 390 529 459 502 566 589 479 501 364 415 433 326 285 253 226 153 131 118 127 143 137 119 114 114
161 221 219 223 188 156 164 142 97 97 131 145 142 146 145 184 254 288 338 404 549 547 627 661 667 434 555 407 414 358 406 240 209 119 137 117 119 130 116 110 119 119 112
119 173 206 193 185 170 185 111 76 83 131 140 131 134 163 223 267 325 397 474 529 587 616 612 538 501 550 473 527 447 305 186 127 118 104 117 122 105 105 105 101 105 116
110 156 177 109 110 93 83 156 86 77 143 140 153 187 208 265 341 411 470 543 596 604 561 527 501 408 422 336 353 231 163 117 95 102 106 122 122 102 106 100 111 108 115
118 145 118 78 94 110 101 131 129 187 234 234 242 275 305 319 348 447 552 566 544 483 479 467 369 336 216 184 196 127 109 107 103 124 148 139 125 110 117 125 112 110 118
82 82 26 64 81 120 144 181 226 222 219 222 220 251 307 325 347 431 425 381 361 353 283 278 208 187 161 87 63 77 86 100 154 166 142 137 125 126 125 122 122 123 155
54 14 -36 -3 99 129 143 159 177 191 210 218 228 246 311 273 231 213 231 312 295 242 211 183 171 105 78 98 111 128 129 125 138 141 144 135 127 114 126 127 112 129 105
33 -0 -12 -13 79 109 121 140 152 164 179 206 229 201 237 147 191 201 217 214 206 156 112 83 88 98 117 120 134 148 145 149 158 165 148 126 135 131 128 121 92 71 68
54 31 -0 7 12 33 63 144 146 163 186 207 218 201 209 172 120 157 121 82 72 89 95 84 87 96 115 131 152 155 135 119 123 113 139 145 132 101 91 87 68 64 61
47 49 30 6 58 92 59 85 139 118 176 137 143 116 71 59 56 41 47 57 70 89 110 109 126 133 134 121 131 131 119 111 109 118 131 129 116 80 43 59 58 57 60
-51 -26 -16 -11 -2 2 12 11 22 38 37 56 55 52 31 15 -3 22 51 84 85 93 110 116 112 93 78 102 132 112 97 95 130 127 116 102 67 55 54 54 54 66 77
-28 -20 -22 -21 -16 -1 2 -0 3 4 17 13 7 13 26 47 79 68 64 68 87 102 101 80 68 72 109 128 128 103 101 110 83 58 41 40 39 42 49 51 53 63 86
-8 -1 2 -5 -7 -9 5 6 8 9 12 13 21 26 28 41 64 92 101 96 73 73 85 95 128 138 131 124 97 75 63 41 28 30 31 34 36 39 46 46 54 53 65
21 15 8 15 13 10 9 10 16 14 15 19 27 37 47 56 61 62 76 101 119 119 129 148 146 127 97 67 52 36 34 35 29 30 37 38 38 47 55 53 58 49 50
24 17 21 21 23 29 29 18 23 15 22 34 36 43 49 63 76 92 107 119 134 131 151 124 99 69 41 22 17 17 14 20 30 35 39 40 42 45 54 57 58 52 68
41 27 23 29 32 35 36 37 52 58 66 67 66 65 75 86 116 126 138 144 155 133 117 86 39 12 6 3 -0 8 17 22 30 36 40 44 46 47 47 53 60 73 100
45 34 33 37 32 33 33 36 37 35 63 71 80 90 105 112 126 151 141 141 105 91 70 29 10 5 -7 -0 10 18 30 36 40 45 47 51 50 52 45 58 67 90 133
43 53 38 34 37 39 38 38 38 46 57 68 89 113 128 131 147 156 134 123 97 52 24 12 8 -6 -1 5 16 25 33 41 48 52 58 60 61 55 58 74 94 125 149
54 47 44 45 47 54 55 60 63 69 77 86 99 119 125 124 144 141 121 106 70 24 13 10 2 4 9 17 26 39 50 57 56 63 70 68 63 64 73 97 117 87 93
57 66 58 57 59 62 65 71 73 77 78 77 86 108 122 133 139 127 99 73 41 18 6 1 7 14 14 22 38 49 55 58 60 65 75 83 73 78 100 106 118 133 149
67 60 66 61 64 70 73 70 70 73 75 82 95 108 91 130 117 99 78 48 21 12 4 7 13 16 22 34 48 57 65 74 80 93 106 110 101 95 99 117 131 148 168
72 67 64 67 69 70 72 73 74 76 79 81 87 99 88 112 93 80 58 28 13 9 11 15 20 30 43 51 56 66 77 97 106 115 122 124 125 110 109 113 126 145 166
77 74 73 74 73 80 83 77 73 70 72 76 84 90 95 92 79 63 36 14 10 9 11 21 29 43 51 64 77 96 112 125 129 121 127 126 131 124 112 111 129 131 145
81 83 82 79 81 81 77 72 63 55 64 72 84 87 83 75 61 34 18 12 10 17 22 31 42 55 60 70 78 100 132 145 143 138 123 151 161 132 138 125 125 123 140
92 91 88 82 80 76 71 65 54 55 62 73 80 77 67 56 37 26 26 23 30 33 37 46 56 58 58 65 78 88 104 53 80 101 147 145 133 121 137 146 139 81 109
97 95 91 88 80 74 70 54 48 57 61 71 71 68 62 50 44 45 45 46 53 50 50 58 64 67 61 73 79 62 24 20 43 29 71 108 135 134 135 138 75 53 60

GFSGL_con_3kmhel_036.txt.gz
Helicity
126 163 202 226 224 219 219 178 172 162 165 145 116 105 116 139 184 226 227 254 242 275 340 453 498 452 490 507 581 614 601 587 497 629 475 505 363 316 166 107 103 78 85
90 103 124 154 187 191 193 186 160 146 129 117 109 89 83 100 122 163 203 239 251 263 291 360 447 540 628 551 632 696 654 600 513 415 400 278 218 147 114 100 109 117 108
104 103 124 153 178 204 194 148 130 134 150 128 123 101 82 93 97 126 178 229 320 376 424 461 530 588 603 487 493 496 394 357 249 320 286 227 207 177 139 124 104 115 112
115 125 156 178 189 145 135 126 89 26 43 60 61 103 134 120 133 194 271 341 371 398 454 459 418 361 378 376 366 277 285 274 217 203 217 192 148 112 101 127 133 120 111
104 95 105 92 50 43 67 103 140 151 79 80 166 122 143 175 175 215 285 317 368 410 387 363 320 300 260 244 206 235 246 236 162 157 155 133 117 135 134 157 143 119 121
65 58 35 -5 -2 -2 21 34 54 50 51 74 43 101 153 153 139 168 239 306 310 287 275 267 250 241 226 208 159 135 142 151 144 124 134 145 130 149 159 143 146 146 153
47 39 25 1 17 11 28 79 115 139 140 141 149 153 161 135 135 160 174 225 235 279 214 173 210 196 191 167 139 96 82 69 84 111 110 127 158 153 187 173 151 160 140
43 45 61 35 47 39 27 77 122 143 148 161 198 202 183 143 152 157 212 211 212 176 144 145 130 102 103 102 106 120 104 115 114 152 166 156 174 169 161 148 120 119 86
44 33 41 33 44 37 61 79 103 108 134 163 193 204 186 161 177 167 126 102 119 114 67 64 85 99 104 83 91 125 123 134 155 144 159 168 149 126 123 126 98 77 58
-10 -7 14 51 74 75 75 105 95 97 127 147 149 113 95 85 76 57 33 21 49 58 67 63 71 97 112 114 124 152 158 165 171 166 159 140 110 83 56 57 56 63 65
-55 -44 -28 -16 -13 -6 2 6 24 37 44 38 22 11 8 13 28 42 28 28 44 48 68 83 82 119 160 180 202 175 168 148 115 107 77 60 43 39 53 67 74 93 100
-11 -7 -1 -5 -10 -4 6 -1 4 7 16 12 11 12 23 39 53 58 68 75 67 65 96 133 157 150 167 175 151 127 71 47 41 22 17 20 29 39 48 63 64 72 91
11 14 9 5 2 1 13 11 10 11 15 18 20 24 31 40 54 68 76 78 85 95 111 117 127 129 131 116 84 42 19 22 21 24 24 30 38 44 43 49 59 59 73
21 20 15 20 22 20 19 13 19 21 25 32 43 51 57 61 67 73 84 93 99 103 122 143 147 118 93 58 26 17 21 21 23 26 33 40 43 48 54 54 56 58 52
26 27 30 26 33 39 40 32 35 34 33 41 53 58 59 69 89 100 107 114 118 127 136 121 102 91 61 34 22 21 20 24 30 39 44 47 49 51 57 56 56 58 73
40 34 36 39 39 40 43 48 62 64 68 76 65 58 72 84 100 103 117 119 130 125 112 108 98 72 39 27 22 24 28 29 37 43 48 50 53 57 58 59 62 69 72
46 51 48 45 43 42 42 40 43 57 80 82 72 71 81 102 105 120 130 137 129 127 124 106 73 42 38 28 28 34 35 35 42 50 55 56 58 62 58 63 61 71 77
60 55 48 47 45 45 44 43 43 42 46 61 81 86 108 113 126 140 135 127 122 118 113 82 51 36 27 27 33 37 41 44 48 50 56 60 65 68 71 76 76 79 89
67 57 53 54 53 52 54 56 57 63 68 74 79 91 109 118 132 138 128 122 129 111 88 54 33 21 20 24 32 37 45 53 53 55 64 69 68 72 78 85 81 53 63
68 66 61 60 54 54 60 60 69 76 76 76 79 88 100 103 110 114 118 115 108 94 58 37 23 17 19 27 35 43 52 58 59 63 69 81 84 89 92 86 92 96 97
81 70 63 62 52 61 67 72 79 82 83 79 79 94 82 97 112 112 110 102 92 69 43 35 26 22 28 36 45 54 59 66 73 79 86 94 97 105 102 105 107 111 116
82 77 71 60 65 70 75 85 86 86 81 76 85 97 93 105 103 97 91 82 62 42 36 36 32 33 40 51 56 63 69 79 86 92 100 115 111 113 119 123 129 129 133
83 81 74 71 71 81 85 81 81 81 76 75 81 86 94 97 87 77 65 52 45 38 36 39 44 53 57 65 71 79 87 103 109 105 119 118 117 125 129 136 136 143 154
86 77 76 77 80 82 83 81 84 77 66 68 76 80 83 79 69 56 49 49 47 45 47 51 57 59 62 70 75 84 108 127 126 125 102 127 136 122 143 150 151 149 149
85 84 82 81 83 85 86 84 83 71 60 66 68 71 71 65 58 54 54 55 53 54 52 53 60 61 59 67 82 76 88 41 74 84 130 142 147 137 149 155 159 159 153
83 77 89 92 89 88 87 85 78 66 59 66 66 66 61 54 53 56 58 57 62 64 62 67 66 63 61 77 69 58 28 18 33 13 56 86 110 145 170 153 107 119 99

GFSGL_con_3kmhel_039.txt.gz
Helicity
99 94 98 120 143 158 180 204 204 183 182 207 213 205 203 163 168 185 217 254 256 274 352 363 406 383 424 447 470 537 529 466 544 496 451 606 585 447 396 291 279 232 200
86 92 103 128 154 164 152 132 122 135 162 173 191 203 191 179 146 122 138 186 206 281 279 279 278 322 380 407 433 482 455 414 463 384 420 392 388 330 228 214 189 184 191
89 95 118 145 171 188 173 165 166 162 152 143 132 125 118 132 129 125 129 165 191 214 202 245 283 325 349 364 375 377 320 307 326 284 361 324 247 203 186 190 175 161 134
68 95 127 150 150 162 157 153 136 154 136 106 103 113 195 168 203 186 202 225 259 266 253 232 248 248 252 259 249 239 266 261 267 243 282 278 215 175 179 151 134 108 124
70 92 104 111 121 125 101 86 80 98 82 126 107 122 148 91 66 97 96 147 172 225 247 240 239 228 184 131 188 180 190 196 215 223 228 170 134 125 112 133 155 162 143
84 73 96 99 94 84 58 51 56 90 104 104 85 57 60 53 -6 66 123 147 187 181 216 230 225 190 215 149 146 148 173 184 155 123 125 117 107 122 142 170 190 186 160
26 41 69 80 77 67 68 85 105 100 79 89 88 87 111 98 114 152 188 209 191 194 183 177 173 162 206 153 154 142 94 64 82 113 139 149 160 202 236 200 168 167 153
37 56 79 95 88 81 84 92 99 108 131 111 131 173 211 188 160 174 206 212 179 166 147 115 95 81 95 75 73 82 99 103 116 128 159 163 186 192 186 179 147 129 97
24 27 48 70 93 101 93 95 93 97 99 89 89 132 175 165 154 161 136 111 107 161 58 58 40 47 65 70 89 102 96 109 130 147 153 143 134 124 120 131 90 63 56
-20 -14 -10 -5 4 23 48 83 89 106 115 88 74 39 49 49 67 65 30 14 7 -3 19 43 75 112 97 89 106 137 173 210 222 197 167 133 91 70 30 47 54 67 64
-8 -15 -18 -10 -6 -4 -3 -5 -1 6 13 12 11 17 25 36 42 46 31 22 41 57 63 76 98 116 130 146 178 211 203 197 162 132 93 54 40 43 52 60 70 90 86
6 -1 -3 -2 2 9 15 4 4 9 17 19 24 29 33 49 58 65 81 94 93 92 107 128 151 167 187 191 174 141 127 111 84 53 37 40 44 53 58 58 63 69 81
19 14 10 7 13 13 21 23 22 19 22 27 28 40 52 56 67 77 90 96 113 119 144 149 142 133 123 122 124 115 82 57 39 40 40 47 54 62 70 64 56 71 88
34 31 25 22 28 28 26 22 29 32 38 44 54 59 66 69 81 91 102 103 103 112 129 141 150 128 110 102 92 70 50 37 37 38 39 47 54 66 77 78 72 75 72
45 44 43 33 35 41 44 39 45 53 52 57 69 70 72 87 115 124 134 134 133 136 125 127 126 125 123 109 91 59 42 37 43 40 47 54 64 73 80 85 87 90 94
58 48 46 45 44 44 49 63 86 81 81 90 90 94 98 104 104 99 106 113 120 121 125 110 120 130 126 109 83 66 49 40 39 46 53 65 75 83 77 77 86 95 92
61 60 57 48 50 52 48 47 55 70 77 85 85 84 82 88 86 88 111 109 101 107 111 130 137 135 123 92 68 53 45 40 47 58 58 69 77 76 65 81 81 91 96
79 67 59 55 53 55 60 54 54 56 54 72 91 85 94 93 92 102 107 106 107 129 131 129 128 118 97 78 60 51 49 49 52 55 61 65 71 88 91 97 105 107 102
82 72 62 67 65 66 72 65 60 59 61 74 88 92 105 88 89 99 111 113 118 121 119 118 104 88 75 63 52 48 52 54 54 63 69 76 80 85 98 107 115 70 72
85 81 78 80 76 68 73 61 54 61 70 73 87 101 111 95 95 109 122 120 114 109 105 99 85 75 69 65 63 64 67 72 80 90 86 79 86 98 108 117 134 137 147
97 95 88 86 76 71 71 59 63 68 71 81 95 109 94 95 95 111 111 106 101 93 91 81 75 70 70 71 73 77 82 89 97 102 104 105 97 113 121 137 148 159 168
114 100 99 84 81 79 72 74 74 72 72 81 91 96 85 93 99 104 97 88 81 78 81 78 81 78 77 81 86 91 100 107 111 107 104 111 114 123 137 146 153 164 168
131 104 92 87 82 79 81 76 77 75 76 86 90 83 84 89 91 93 87 80 77 78 82 82 87 94 98 99 106 116 126 134 127 118 122 126 130 133 138 147 153 157 156
116 98 91 87 89 78 77 83 81 72 74 83 85 82 85 84 82 76 76 81 81 86 90 94 104 107 108 111 112 118 130 141 148 148 134 150 146 122 143 152 158 162 190
114 99 92 95 92 70 82 81 82 77 79 90 83 82 81 79 79 79 79 82 91 95 98 99 105 105 103 107 121 125 123 64 87 111 150 170 195 194 207 220 194 186 164
117 102 101 117 97 81 87 86 86 88 89 95 91 89 85 82 80 81 81 79 92 99 103 109 103 95 96 109 118 104 58 51 62 54 81 121 138 149 142 129 119 131 106

GFSGL_con_3kmhel_042.txt.gz
Helicity
96 109 124 125 130 124 118 132 157 172 187 214 220 204 208 205 205 213 217 218 223 227 234 234 299 313 324 335 361 381 400 431 476 380 439 439 430 377 355 332 281 253 185
100 121 132 134 172 183 148 167 148 133 130 133 149 156 156 184 190 172 159 159 168 167 200 229 245 250 249 240 261 272 287 303 338 331 365 376 375 348 262 240 218 187 169
73 96 113 122 172 189 161 165 171 161 139 141 154 183 179 192 179 175 180 141 157 139 129 151 159 175 196 191 184 184 172 204 221 223 266 291 293 294 260 217 177 164 139
91 103 115 112 142 132 120 113 126 140 146 140 115 114 145 149 140 127 164 180 190 224 204 177 170 150 144 138 138 149 152 164 214 244 228 235 251 247 216 184 167 141 134
91 100 115 107 106 101 108 110 106 97 87 77 72 74 105 130 110 127 170 140 165 217 220 173 130 123 129 126 140 148 130 172 157 146 221 178 196 191 144 124 139 152 167
75 78 75 91 82 74 95 99 83 102 118 113 109 110 94 74 95 55 117 80 114 193 195 280 258 188 151 102 102 102 136 143 130 117 142 148 131 128 157 166 186 181 167
50 49 58 60 57 64 69 66 95 117 123 132 127 92 83 58 84 98 127 114 160 167 208 152 135 133 162 159 120 103 101 139 123 134 119 117 133 168 177 178 177 178 165
45 49 44 38 53 45 67 102 112 114 109 100 93 96 110 120 153 145 147 106 114 147 130 125 113 94 79 97 102 98 113 100 64 104 133 147 172 190 195 174 152 127 104
-4 2 8 10 8 9 42 62 62 70 75 75 61 57 54 49 76 84 59 43 54 65 64 38 36 37 52 65 71 61 70 75 90 115 129 125 120 114 102 108 87 62 53
-8 -1 0 1 -3 3 -8 -6 -5 -2 -3 -12 0 10 40 21 50 51 53 47 58 55 48 68 80 77 83 81 106 140 163 188 201 182 146 122 90 72 14 41 84 90 86
0 7 8 1 3 -9 -18 -10 -15 3 -4 -7 11 12 17 22 39 60 76 83 83 89 89 99 114 137 133 149 165 172 168 163 144 124 97 69 36 28 39 46 65 106 108
19 19 11 4 -4 -16 -8 -10 -23 -2 5 12 27 31 38 49 64 73 89 99 113 112 117 127 130 130 130 128 131 125 127 128 123 108 87 54 41 39 36 44 54 57 74
20 19 13 8 1 -2 8 9 12 21 28 27 35 43 45 53 62 73 83 95 104 111 118 120 129 127 126 143 128 131 125 124 111 96 64 53 43 34 42 51 52 55 63
40 42 32 30 30 28 32 29 32 36 30 39 43 49 51 57 77 94 105 116 137 139 130 120 112 110 116 118 124 120 116 95 77 65 56 47 42 45 57 64 73 65 71
59 52 50 37 48 56 53 47 48 39 43 52 57 63 73 98 90 104 100 100 105 106 105 106 107 109 113 118 122 115 102 77 72 58 59 53 48 49 54 57 64 67 80
70 59 47 52 54 48 52 53 64 59 57 70 77 86 87 94 99 93 91 91 86 86 105 93 96 105 108 107 111 108 87 70 56 57 59 57 60 65 67 70 79 85 90
78 74 67 63 60 59 57 58 50 49 55 60 68 73 82 87 80 73 81 73 65 68 97 88 91 89 90 86 84 84 78 52 45 51 66 71 72 78 58 80 82 88 96
94 90 84 71 69 68 64 59 60 63 60 60 62 73 67 65 60 61 69 76 78 88 97 91 90 80 76 79 81 81 57 56 59 58 60 69 80 80 78 79 82 89 98
119 106 97 90 84 78 78 70 65 64 61 57 66 65 75 64 53 50 57 95 83 81 75 76 81 76 75 78 78 76 74 70 64 79 89 92 92 87 88 97 115 45 43
130 106 111 109 101 93 79 67 60 60 60 59 61 72 92 84 70 72 89 98 91 87 80 76 71 71 76 81 83 86 87 96 98 112 111 119 117 114 104 99 112 113 123
155 126 122 128 109 88 78 64 64 69 61 60 64 73 56 74 69 70 78 83 82 81 80 82 83 82 81 88 101 108 116 116 132 144 135 135 132 127 114 120 125 123 127
180 144 141 137 114 93 77 67 69 65 58 55 55 68 45 82 74 75 80 83 82 82 89 96 100 111 116 122 122 124 133 130 131 145 142 135 142 142 140 136 128 123 122
188 164 146 146 116 82 74 77 70 57 56 54 57 62 68 71 72 75 80 85 88 94 94 103 111 119 129 133 143 152 139 144 158 162 155 147 146 144 142 142 138 143 141
188 161 162 148 123 96 85 94 75 44 58 61 59 64 69 70 74 75 80 80 86 95 106 117 126 125 123 130 144 156 158 163 168 169 157 165 165 140 154 160 162 154 146
172 181 162 154 119 105 101 94 65 59 67 72 71 74 76 74 79 81 83 88 99 104 114 123 135 137 131 129 130 132 135 74 96 121 162 187 202 197 214 223 211 206 198
210 184 177 157 117 110 109 86 61 67 73 82 78 75 85 90 95 97 96 100 80 95 134 145 134 120 112 115 116 97 46 40 61 62 92 139 174 195 200 201 189 213 204

GFSGL_con_3kmhel_045.txt.gz
Helicity
103 121 140 161 179 143 99 115 110 129 135 163 174 178 182 184 178 177 188 201 202 204 200 195 285 271 266 290 273 201 199 213 186 273 342 356 404 353 482 344 250 265 267
102 110 117 128 143 127 108 125 159 151 144 149 160 169 163 158 149 140 158 156 142 143 170 187 225 249 266 255 235 189 118 144 156 194 244 284 313 283 303 320 276 224 169
93 99 101 124 135 132 127 125 116 93 95 100 92 105 110 102 108 120 137 158 152 146 161 185 200 197 181 231 181 151 159 120 160 120 164 199 215 229 232 166 146 146 131
100 114 136 144 137 131 131 120 94 70 63 69 76 85 100 104 120 137 155 135 153 183 164 147 190 171 193 173 174 182 148 151 130 135 161 162 150 171 194 209 174 151 118
105 129 104 106 123 132 121 114 105 80 76 81 92 102 89 84 83 101 124 128 130 146 157 139 144 196 189 179 119 137 181 157 145 111 105 148 175 166 145 151 158 164 140
90 100 86 102 121 113 100 100 96 105 114 103 95 99 91 84 126 129 133 116 109 106 113 145 192 235 186 202 108 68 106 117 98 110 125 131 145 161 143 138 156 179 159
73 71 75 70 71 83 102 109 113 91 82 104 111 105 98 82 94 95 94 63 68 79 126 125 137 105 138 181 156 171 160 120 97 106 117 124 131 142 148 156 157 175 174
43 39 34 39 54 65 72 71 67 59 62 64 82 62 38 21 35 37 46 27 36 41 52 59 54 45 47 73 83 78 79 78 88 106 113 109 123 138 151 154 158 149 120
18 20 25 23 17 17 19 1 -4 12 16 4 -2 12 18 8 36 48 46 42 53 58 67 67 72 68 67 82 107 109 104 127 145 112 139 144 147 139 129 155 138 120 87
8 18 15 -11 -15 -8 -11 -11 -7 1 5 0 8 -5 10 1 38 44 44 41 59 65 63 73 91 98 105 109 140 150 168 161 155 150 146 142 135 116 93 76 78 98 90
9 12 -5 -11 -8 -4 -6 -3 -4 -10 0 8 4 -7 -3 11 32 59 68 62 68 74 84 88 91 102 112 124 133 142 138 141 137 134 121 117 106 91 66 47 52 83 94
14 7 1 -2 0 4 11 -1 -10 9 19 17 19 17 13 22 45 49 60 70 81 78 84 85 83 90 95 99 110 101 114 124 111 111 117 116 110 77 52 45 44 54 74
14 15 11 10 10 12 12 10 10 15 33 32 33 33 26 30 38 49 61 63 56 74 72 65 82 81 81 91 87 95 110 117 114 128 128 104 71 45 34 37 44 49 56
21 17 22 30 32 37 37 33 41 39 40 39 41 42 38 49 53 54 64 70 78 78 83 85 81 81 87 90 104 106 108 107 112 112 97 73 47 47 55 53 58 58 58
35 38 40 40 51 58 53 38 46 31 37 50 48 49 51 53 52 57 58 64 64 62 84 84 88 93 99 101 102 104 104 99 102 86 87 76 59 61 67 61 65 70 67
58 55 54 61 52 55 64 63 50 45 50 55 58 57 52 53 60 56 53 56 53 52 95 84 83 88 88 92 97 99 94 87 90 78 79 67 73 81 81 73 77 84 83
80 70 66 76 71 76 65 64 60 41 34 39 46 52 53 55 54 50 50 49 53 52 91 85 83 83 82 73 80 94 101 90 82 79 81 79 81 83 64 83 86 87 92
110 85 91 85 80 79 74 73 73 66 57 46 36 44 49 55 52 41 36 54 62 73 81 80 78 74 69 71 78 84 80 88 88 73 78 73 81 82 83 86 89 90 97
148 135 115 100 92 85 90 89 79 73 60 49 55 54 53 55 39 35 35 79 74 73 78 80 77 75 74 81 85 83 89 95 96 101 107 104 105 114 91 105 104 56 48
177 156 144 136 120 121 112 102 87 74 67 57 51 50 58 62 56 57 59 65 69 76 78 85 83 88 96 98 103 101 101 101 101 103 111 113 121 128 118 118 120 120 122
206 195 165 164 143 120 113 105 90 84 72 64 54 47 24 52 57 59 60 63 68 75 83 90 95 100 112 118 119 119 118 112 120 125 135 127 137 131 131 135 132 130 128
228 197 195 181 166 137 117 106 93 86 74 79 57 50 23 55 56 59 65 70 74 78 87 91 99 114 122 128 133 136 134 124 129 142 145 145 141 133 133 138 135 132 128
218 199 187 183 162 132 130 121 98 87 86 91 57 53 50 49 58 66 71 74 77 83 85 94 102 112 129 139 153 157 142 133 143 150 150 149 144 141 141 143 140 143 150
198 177 195 194 185 172 154 134 94 80 93 94 60 60 54 54 62 69 76 81 82 84 93 101 113 114 116 124 142 165 162 151 148 149 147 151 147 128 153 171 183 192 209
197 176 185 184 177 158 141 115 96 96 91 86 65 71 67 65 66 77 82 88 89 93 103 117 140 133 122 121 124 125 117 56 80 108 170 205 214 212 227 235 235 245 248
209 192 152 191 167 154 142 123 108 110 84 79 70 81 78 68 77 87 89 90 94 95 100 123 132 131 124 123 122 96 53 48 64 57 94 135 166 195 214 238 247 304 278

GFSGL_con_3kmhel_048.txt.gz
Helicity
114 115 129 152 157 152 132 99 100 101 116 130 135 140 152 165 169 167 172 176 175 179 188 179 167 171 164 160 166 211 238 265 240 233 186 146 157 220 331 358 380 270 236
107 108 120 133 139 138 121 123 109 112 129 138 129 128 144 152 150 140 127 138 155 169 167 161 171 186 184 176 159 159 199 207 201 182 172 140 230 190 268 220 258 185 155
118 115 127 129 115 127 125 123 119 133 147 136 125 128 122 112 110 102 103 130 160 143 130 153 170 180 152 113 140 127 169 156 179 172 122 178 170 225 177 208 134 122 116
124 114 119 123 137 148 135 123 135 133 125 117 113 93 82 77 88 102 117 129 141 133 130 138 151 144 112 118 136 148 170 179 185 154 100 124 134 113 102 139 147 136 124
104 89 96 106 121 127 133 147 139 134 122 102 104 111 96 100 93 100 124 149 154 152 155 141 147 136 115 112 116 161 122 82 150 143 153 124 123 135 124 144 147 151 114
77 81 75 84 103 114 128 126 119 126 129 143 143 119 106 85 103 116 130 133 119 103 107 121 146 143 170 138 138 163 95 64 129 127 120 127 145 165 149 130 132 142 145
57 56 52 69 94 103 102 110 125 138 146 138 132 108 87 78 67 52 43 24 29 31 26 37 44 48 64 59 67 92 111 133 127 99 104 126 137 146 147 142 144 157 158
18 23 27 38 49 56 67 84 97 97 88 75 85 79 54 46 50 45 42 14 17 19 32 42 54 56 58 77 95 107 113 112 111 109 124 136 144 149 159 157 154 160 163
40 20 11 16 25 33 39 32 34 36 45 45 40 38 35 20 41 40 23 19 30 29 36 51 67 67 72 100 113 119 119 128 157 183 169 161 151 150 148 167 168 183 151
38 10 11 9 15 20 24 25 22 30 34 20 13 17 30 30 41 39 30 21 31 38 47 61 78 85 98 108 113 115 126 122 133 140 140 142 144 139 131 137 144 159 137
40 26 21 10 10 16 24 25 21 19 19 17 19 19 22 30 32 46 44 30 35 45 55 60 67 76 94 100 105 116 109 112 131 131 127 131 136 133 127 112 87 107 112
35 31 12 11 13 22 32 20 17 20 25 21 22 25 23 25 33 36 41 44 52 53 56 60 62 66 80 90 100 82 96 113 118 127 138 144 150 146 130 94 68 60 70
32 29 24 8 15 32 33 21 20 22 32 34 38 43 34 30 33 41 53 65 72 71 67 61 58 58 66 85 79 88 124 119 124 132 132 131 121 103 90 69 64 55 52
37 39 30 16 22 24 24 33 38 42 47 45 46 47 45 43 40 39 47 53 55 62 66 70 70 82 91 98 106 108 105 104 114 119 116 108 101 102 104 83 80 66 78
41 39 43 41 45 43 43 49 55 43 49 56 50 54 54 48 46 44 49 60 71 66 87 88 89 99 105 99 98 99 102 103 111 112 113 107 99 95 90 92 83 86 98
54 53 59 67 67 60 69 74 59 58 55 52 49 49 37 30 39 52 55 59 62 59 91 93 91 96 93 93 93 93 93 93 100 101 101 105 101 97 90 92 99 110 95
62 69 72 80 86 85 86 84 81 66 50 45 39 33 28 33 43 52 60 59 72 73 90 92 92 89 88 83 81 93 104 101 103 117 117 114 107 97 78 89 106 106 107
85 63 97 96 103 98 93 89 90 91 86 73 43 39 37 35 44 38 44 65 88 88 88 86 84 86 89 90 89 98 106 110 120 119 129 125 118 108 92 102 114 123 121
125 126 120 120 118 106 113 108 100 100 96 85 79 61 53 50 54 41 55 89 89 82 79 81 88 92 93 94 96 102 117 127 127 131 130 135 140 137 110 117 120 78 78
163 142 153 160 151 150 149 141 120 106 102 95 88 81 82 89 76 64 65 72 75 80 83 89 89 93 93 95 99 113 120 122 127 136 133 137 140 155 129 123 128 127 119
215 206 154 178 180 169 168 156 143 125 111 100 92 81 62 92 74 66 65 68 74 78 88 94 94 94 98 103 114 127 137 134 147 146 143 138 155 140 142 144 129 124 122
211 194 220 209 195 172 164 165 156 143 130 107 97 93 53 99 71 67 66 71 76 82 94 97 100 108 117 125 136 145 146 143 148 159 149 150 157 146 142 134 123 126 132
235 213 234 225 198 179 177 167 164 155 139 116 99 102 98 96 73 73 74 78 85 92 94 100 103 103 121 138 161 170 163 158 163 162 146 148 152 151 149 138 125 133 154
222 225 266 245 200 202 190 186 189 162 148 130 108 102 98 101 79 77 79 89 95 95 101 106 112 110 115 124 150 172 178 171 174 165 162 161 159 140 156 153 157 168 187
214 221 209 213 192 168 174 210 182 159 157 140 115 115 106 106 87 81 76 93 99 102 96 105 124 119 114 114 121 132 133 75 108 129 185 211 218 209 214 198 186 197 205
186 193 189 210 194 176 165 151 147 156 153 142 134 135 121 120 118 107 94 101 101 102 97 104 107 110 114 119 121 108 67 66 86 69 115 144 154 170 187 192 196 255 260

GFSGL_con_3kmhel_051.txt.gz
Helicity
84 91 116 130 143 149 144 133 117 113 124 128 130 138 159 177 185 168 168 170 158 142 135 131 173 165 142 155 181 187 177 186 198 178 156 173 193 185 190 248 272 319 293
83 103 135 145 143 139 131 122 110 114 120 127 138 163 182 182 180 176 158 133 122 104 125 142 150 123 121 133 146 155 159 175 182 139 172 134 191 189 185 177 221 192 200
86 111 135 144 138 132 124 109 122 126 139 150 171 174 159 157 156 154 143 142 139 146 151 139 119 114 121 129 126 121 119 148 174 162 116 117 103 110 174 168 170 161 122
101 126 138 139 134 129 130 139 150 145 142 153 145 128 122 138 149 157 157 156 161 160 143 137 132 128 110 119 135 123 130 161 165 111 79 112 67 108 117 110 91 84 80
87 98 104 109 105 111 127 147 147 147 134 122 121 132 128 128 120 126 138 144 146 145 152 145 153 169 135 123 98 76 106 120 89 100 112 103 99 120 113 144 153 130 121
87 89 85 87 92 101 103 107 117 120 118 122 127 121 127 118 130 121 99 84 93 83 66 64 67 71 68 97 78 64 74 87 99 105 121 139 147 145 144 145 141 132 119
75 77 70 68 82 87 95 99 106 115 127 132 130 121 126 118 117 96 83 46 38 28 30 35 37 42 53 53 74 113 131 147 141 131 151 166 176 168 175 188 179 169 149
63 57 53 50 55 64 73 78 90 100 92 83 93 102 90 74 87 77 71 35 37 40 47 40 42 43 45 65 79 101 119 127 134 146 164 168 172 167 188 190 184 176 163
53 48 47 32 36 43 48 60 54 44 45 46 52 71 70 54 64 64 50 37 39 43 43 44 48 54 71 90 88 100 112 127 154 185 193 193 182 172 159 189 188 208 177
45 52 39 35 32 31 36 39 25 27 33 41 55 49 42 47 48 46 41 35 47 49 51 63 76 74 90 92 92 96 102 105 124 133 133 139 140 141 163 162 166 176 166
50 31 25 42 49 46 37 35 34 34 30 23 32 29 37 37 32 48 51 39 40 44 58 68 74 78 86 87 96 88 82 94 106 107 109 119 134 147 159 162 139 152 159
41 25 31 55 59 46 47 36 25 40 29 24 27 38 28 29 39 35 43 40 40 49 53 60 60 56 68 76 85 75 76 102 90 96 108 121 133 137 133 130 115 102 98
38 30 56 58 54 51 58 32 37 29 34 44 40 49 42 40 39 40 52 57 51 50 50 49 58 61 62 80 73 73 97 88 92 100 106 112 114 112 105 105 102 89 81
35 58 67 57 54 55 54 44 42 41 54 54 49 52 55 49 45 44 46 51 47 53 52 65 61 67 79 91 89 86 84 85 91 101 109 109 108 112 116 107 108 95 79
52 61 64 66 59 55 53 58 52 49 68 67 59 64 72 63 52 42 42 49 54 49 75 84 77 81 86 84 84 84 87 90 98 102 113 109 113 112 106 96 101 101 105
70 66 66 79 77 73 74 69 57 60 58 51 59 70 57 46 36 36 36 34 42 52 89 82 84 87 81 80 84 89 97 93 99 107 113 123 126 124 110 105 113 129 98
71 75 80 83 94 101 100 93 92 86 69 65 58 51 46 49 40 42 47 43 50 74 83 83 81 84 85 88 93 104 111 104 113 111 129 143 145 134 100 105 105 129 102
98 68 105 106 108 110 109 105 104 103 96 86 58 51 48 47 47 45 44 56 91 88 89 85 83 86 92 99 106 115 111 108 118 123 130 141 147 157 134 124 130 126 125
158 135 137 135 130 111 121 116 112 108 104 101 102 93 76 61 57 61 65 108 89 75 82 85 93 98 103 110 111 114 120 123 129 140 151 157 154 164 136 142 132 81 79
168 159 175 166 145 145 147 145 141 133 127 125 119 108 113 109 117 109 95 102 84 77 79 90 95 102 108 113 114 123 125 125 139 155 160 165 162 177 153 144 144 136 132
232 238 199 220 191 199 192 172 172 172 151 148 137 120 96 121 112 108 98 109 90 82 86 97 106 108 111 114 121 129 136 140 158 169 174 164 176 169 164 163 153 147 141
213 238 276 255 273 210 187 185 202 180 162 157 151 139 97 117 120 114 105 111 94 88 98 109 114 122 130 133 137 143 148 148 162 185 169 163 168 163 164 166 157 152 142
177 214 228 260 208 165 173 185 203 210 197 178 171 170 155 136 120 111 102 112 102 84 89 106 113 116 129 137 151 164 162 161 172 175 164 162 166 176 179 176 167 168 169
172 186 207 226 217 246 201 180 204 184 192 202 205 193 169 154 147 115 109 126 125 119 108 117 112 114 122 122 141 168 183 176 175 170 168 172 173 156 180 191 195 191 194
171 186 190 215 214 209 192 185 191 183 213 218 185 163 164 161 137 129 137 149 152 102 108 114 115 111 105 103 116 132 138 80 108 128 180 211 217 213 226 222 204 208 206
166 156 174 183 179 184 199 196 190 169 167 147 152 168 171 153 143 146 150 141 103 110 108 112 108 101 100 111 117 106 68 65 82 67 120 150 147 143 169 204 214 270 266

GFSGL_con_3kmhel_054.txt.gz
Helicity
65 70 88 103 125 144 153 151 140 131 133 134 136 138 144 151 159 168 193 198 206 212 230 195 177 176 169 160 146 142 162 175 155 143 161 158 124 80 125 121 156 123 111
47 64 92 115 137 155 161 154 142 130 129 132 137 146 150 160 178 173 169 176 172 176 161 144 153 148 168 150 130 141 152 146 127 118 146 161 124 105 84 98 119 128 136
61 72 100 132 148 156 154 144 135 127 121 142 150 159 154 161 152 163 165 169 172 174 180 182 175 167 164 141 134 124 120 123 116 137 110 99 78 98 70 96 87 109 120
65 87 110 130 148 157 152 144 133 123 123 135 130 126 121 124 135 138 147 161 171 173 172 174 170 153 155 142 128 129 109 91 81 89 86 82 84 87 86 87 81 94 106
57 80 96 106 116 123 131 132 132 131 121 113 121 126 123 120 110 114 128 139 134 133 141 146 145 152 123 106 73 65 56 48 66 75 82 84 94 100 105 95 95 97 101
53 73 90 91 103 102 110 119 122 121 114 115 129 120 127 116 119 111 97 78 75 72 65 61 59 83 80 88 88 102 72 58 76 88 101 114 117 122 126 131 132 135 129
77 76 77 85 89 98 103 107 107 113 107 119 122 118 112 105 109 92 78 60 62 62 50 42 56 55 63 73 98 113 104 114 108 101 114 120 123 128 138 142 146 142 135
75 64 57 59 65 77 91 99 99 102 106 95 93 84 77 67 76 80 70 41 42 42 49 50 57 58 38 74 82 94 96 105 112 114 123 123 119 122 130 129 128 127 120
68 57 52 49 53 62 68 72 80 85 69 65 57 54 53 43 55 55 48 40 49 49 45 39 43 57 78 77 73 84 92 95 106 124 126 122 123 122 104 132 120 142 120
59 56 51 48 52 60 58 69 61 55 53 39 54 47 45 36 41 50 46 39 50 46 46 55 64 52 65 66 63 71 79 72 91 91 87 93 96 102 120 110 120 126 120
64 60 51 51 47 53 66 63 57 53 43 43 38 38 39 43 35 45 55 48 49 50 54 52 54 68 73 66 71 56 53 74 84 80 80 86 90 99 103 106 100 112 129
67 66 60 57 55 55 62 64 64 39 39 34 32 28 29 32 26 29 45 55 55 55 55 54 48 53 46 52 64 54 82 90 78 80 82 76 73 74 82 88 85 93 103
73 75 75 69 70 64 49 52 55 47 45 44 48 46 39 37 34 47 53 49 48 53 51 42 55 52 52 64 57 77 87 81 81 82 75 67 68 72 75 85 91 93 89
80 79 88 74 56 48 47 60 61 55 58 58 60 58 53 50 48 53 54 52 44 48 44 47 46 50 57 65 72 76 77 78 80 81 78 77 78 93 103 105 113 118 106
83 89 87 73 39 46 46 62 59 56 75 73 68 70 76 63 58 55 58 55 53 44 60 78 65 61 63 64 65 68 73 77 87 95 96 93 92 104 104 113 117 114 110
93 84 80 79 74 67 70 64 46 45 42 41 56 71 68 59 58 51 46 40 35 36 94 84 73 69 68 67 64 66 78 82 97 104 102 106 108 114 123 126 130 144 131
101 104 90 79 82 95 96 97 91 86 66 63 65 64 59 67 57 51 47 44 36 52 93 87 81 76 73 73 75 85 96 95 110 104 116 111 116 125 108 142 146 142 152
130 97 125 118 113 118 111 112 118 117 114 101 74 63 58 55 56 57 55 56 88 84 110 103 90 84 85 86 87 97 100 104 115 116 122 127 133 151 151 149 153 173 160
159 159 160 161 155 138 136 127 124 125 117 112 118 110 97 73 65 61 62 118 114 101 95 106 99 92 91 95 96 104 115 120 123 129 136 147 154 179 157 168 160 105 106
156 144 175 194 200 192 177 157 149 142 137 140 141 139 147 136 144 130 128 127 120 109 102 110 95 93 95 102 105 113 120 119 128 141 151 162 170 190 175 168 173 171 161
172 179 161 203 207 225 231 225 196 200 182 168 157 163 126 150 146 139 133 132 125 113 110 114 105 96 98 110 125 123 125 133 144 151 164 165 184 180 180 179 175 175 170
190 198 203 196 198 238 248 246 250 198 208 205 182 175 129 159 179 171 171 156 138 127 122 128 139 133 119 132 132 129 131 135 145 166 166 172 178 175 174 175 176 178 175
178 186 190 185 205 205 237 241 240 217 174 178 197 195 208 192 185 183 171 167 150 138 133 149 139 120 140 142 139 138 145 147 160 174 168 167 167 168 174 173 173 176 186
177 187 179 188 208 206 215 234 224 180 178 189 188 195 212 191 184 162 178 159 156 140 129 138 127 122 125 127 135 151 160 159 173 171 172 176 172 148 174 185 183 187 202
145 162 158 167 170 166 184 202 211 208 192 187 174 197 185 171 161 174 159 165 155 127 127 134 150 132 117 110 114 125 130 79 122 134 189 198 191 204 222 224 196 205 209
135 139 132 134 149 144 171 187 185 185 181 187 158 165 140 144 150 147 133 120 117 112 115 133 125 108 108 112 113 105 75 77 100 82 126 161 158 154 170 196 215 281 277

GFSGL_con_3kmhel_057.txt.gz
Helicity
119 107 97 102 115 133 139 144 147 142 142 140 136 139 147 152 151 149 163 174 194 194 203 200 206 192 171 164 160 173 168 153 148 159 149 107 98 99 111 84 90 94 109
88 87 96 106 118 132 143 146 148 148 149 141 138 137 139 147 151 158 168 167 162 169 170 164 160 142 152 162 165 164 161 167 138 123 106 100 94 65 65 87 77 64 75
77 80 92 104 118 137 149 154 163 161 158 150 137 133 143 154 158 170 158 154 154 151 153 155 137 128 145 152 165 161 151 133 124 98 78 66 66 51 49 72 62 75 78
81 83 93 109 131 147 153 156 161 168 158 143 131 124 130 135 133 127 128 131 136 143 148 146 142 140 139 133 133 120 96 89 76 59 68 71 62 55 60 70 81 78 80
84 82 87 113 128 128 138 147 159 153 143 129 127 134 124 105 92 102 114 119 120 123 116 113 113 82 72 78 68 69 60 55 67 71 79 79 79 80 82 74 74 72 86
64 59 70 94 95 102 110 118 125 127 127 126 127 128 115 102 95 103 94 84 68 63 68 70 80 90 96 86 95 101 90 83 78 77 85 92 93 85 86 90 90 88 84
61 64 68 75 81 87 104 110 112 111 106 121 120 107 107 103 95 90 75 64 72 64 61 60 67 62 79 80 95 103 97 88 90 77 93 98 97 92 85 82 89 84 82
83 73 66 67 72 73 92 102 103 103 103 103 101 98 89 86 81 70 70 56 55 59 57 57 63 55 62 81 81 84 83 98 93 91 97 90 85 78 72 77 78 71 64
82 70 67 71 72 69 60 77 82 94 92 85 71 58 63 59 53 52 55 45 51 50 47 45 60 72 78 78 80 84 76 76 81 94 91 85 79 74 66 79 69 70 76
78 66 70 70 62 66 60 60 56 57 58 42 37 50 47 37 41 44 43 37 44 45 46 49 56 60 71 76 73 71 80 72 69 68 70 78 82 82 89 67 70 67 73
89 87 73 59 68 57 53 36 44 30 30 30 53 47 41 36 30 44 47 37 47 48 50 55 59 59 60 60 67 55 61 63 66 64 67 75 80 83 81 79 76 75 85
97 88 79 76 65 56 54 54 38 25 24 35 49 37 35 25 41 34 48 50 49 52 48 50 51 53 53 52 64 52 86 72 68 69 72 75 76 78 80 77 73 76 84
88 84 82 80 77 60 56 49 45 33 37 45 51 48 44 40 42 38 54 59 60 53 49 37 47 60 66 72 63 78 73 70 70 70 70 70 74 78 74 73 77 79 81
89 90 88 88 74 68 67 53 43 48 56 50 56 56 53 57 50 53 56 61 55 57 47 47 45 55 71 77 76 77 71 69 69 68 69 72 76 82 82 85 89 97 102
94 93 91 87 81 72 52 55 52 44 60 64 59 63 71 63 54 56 64 65 58 46 60 64 62 65 72 74 73 72 70 69 71 73 73 74 77 82 86 95 96 107 117
85 91 92 85 81 75 63 63 34 30 35 28 39 66 65 60 68 68 53 45 46 44 95 79 67 69 73 72 67 65 66 65 71 76 78 81 80 85 91 100 108 121 127
140 104 99 91 85 83 86 82 76 69 39 39 39 44 57 71 57 59 60 59 53 56 92 89 81 79 80 85 77 77 74 72 84 80 82 85 89 95 94 105 114 122 117
125 101 115 114 109 105 102 100 109 108 102 100 67 66 58 58 63 65 66 77 101 91 117 108 95 89 86 88 80 80 75 79 87 87 92 96 101 108 112 117 125 126 121
126 129 139 139 135 125 136 125 119 116 111 109 119 102 79 58 61 65 68 116 127 123 121 113 104 95 94 96 86 81 82 89 98 102 104 105 111 130 118 127 128 108 107
133 128 147 162 169 177 174 166 168 163 142 129 131 116 147 142 154 149 149 150 155 150 142 130 128 114 105 93 84 84 92 102 105 106 105 113 123 144 141 135 140 135 133
147 148 119 162 174 177 189 200 190 203 191 192 177 190 164 181 168 171 157 160 162 155 154 156 139 146 110 98 91 92 103 107 109 110 111 116 132 143 147 145 139 139 134
137 138 149 164 165 183 189 197 213 194 205 209 200 187 155 190 198 172 173 170 160 163 172 156 176 134 110 106 106 112 112 106 107 115 114 122 137 143 145 145 142 137 133
112 129 140 148 161 139 156 170 219 229 225 244 201 197 222 182 173 176 182 166 171 181 179 167 138 114 100 102 117 122 121 116 115 121 119 120 133 142 147 146 141 139 140
88 105 126 148 166 158 155 160 178 173 195 204 207 191 183 178 169 159 158 176 175 151 131 139 115 107 97 110 113 118 124 122 119 120 128 139 141 129 138 145 148 157 171
78 100 116 133 131 131 135 124 153 162 169 181 181 185 188 156 148 137 164 160 136 121 123 118 116 99 92 97 100 105 105 69 104 119 153 166 165 161 177 182 170 172 174
87 96 103 109 105 119 128 126 139 152 149 165 173 170 163 156 133 123 136 123 104 105 104 106 94 90 92 94 91 82 60 63 78 58 105 157 172 169 171 171 167 205 198

GFSGL_con_3kmhel_060.txt.gz
Helicity
181 165 146 147 130 118 114 125 138 141 144 137 138 137 142 145 142 145 149 144 150 151 158 155 156 151 149 145 138 140 142 142 138 161 168 140 102 84 80 72 74 95 96
143 122 114 105 101 102 113 125 131 132 141 137 132 136 141 141 145 142 146 151 151 158 146 139 135 115 123 136 140 150 142 147 131 134 130 110 80 59 53 47 56 74 77
97 89 80 75 81 94 110 125 134 128 130 143 142 141 141 147 139 158 160 156 154 146 137 137 131 126 137 140 148 149 144 131 114 106 95 63 57 68 57 62 75 76 77
83 71 67 70 79 98 119 137 147 157 147 154 156 146 144 143 135 139 141 136 131 132 137 141 130 123 114 109 102 94 81 73 72 67 58 69 76 74 70 80 75 79 88
81 72 71 81 98 119 131 140 150 157 164 153 137 118 114 122 120 116 101 103 105 111 109 100 107 90 82 72 65 75 75 73 72 73 77 75 79 78 77 67 69 82 96
72 75 83 83 80 98 116 122 129 145 141 136 119 116 117 119 104 98 86 89 89 69 73 77 72 73 72 71 85 98 94 80 83 90 85 95 96 88 84 90 88 90 82
76 72 80 82 81 79 101 121 120 125 120 126 121 113 117 105 91 89 91 83 62 62 63 62 70 67 72 68 79 82 88 106 120 97 103 108 98 103 100 81 83 77 77
88 86 88 90 92 92 100 114 126 123 105 112 109 94 81 82 77 85 81 68 63 63 71 69 62 61 71 73 73 74 75 87 104 103 109 102 98 86 78 74 77 74 61
99 82 81 84 93 99 93 100 111 112 97 93 92 82 78 65 60 54 56 47 56 65 56 50 56 64 77 71 78 77 69 70 81 87 85 81 75 69 65 70 78 82 78
97 92 91 81 87 91 94 110 100 93 81 70 63 53 41 47 37 35 30 44 49 49 41 44 54 54 66 73 73 71 69 72 70 63 63 60 62 75 77 74 84 76 79
101 107 102 91 94 97 103 95 88 85 59 36 20 27 33 28 32 25 36 46 47 35 38 44 52 57 60 66 68 74 76 69 70 62 66 68 70 75 79 84 82 78 73
108 100 99 92 96 92 97 95 75 57 29 22 25 30 26 29 32 30 34 39 36 31 42 48 60 55 52 48 59 63 88 71 70 77 78 77 76 76 75 72 71 69 70
126 108 81 96 98 92 89 79 69 54 39 37 40 34 31 36 34 29 30 41 34 38 46 51 59 63 60 54 60 79 79 72 76 75 75 76 75 78 74 70 69 72 68
185 101 90 95 92 93 86 71 65 54 50 55 45 41 47 48 45 55 53 52 49 53 52 53 57 63 61 65 73 78 74 79 75 74 73 75 76 77 78 84 85 88 86
98 86 90 86 86 87 73 72 52 44 56 66 55 54 63 63 55 52 64 72 66 62 68 67 65 69 68 70 74 79 83 80 78 77 79 80 83 87 90 93 91 89 84
160 142 98 84 90 82 83 69 26 36 32 29 41 57 63 54 62 58 59 62 63 51 66 68 71 77 76 75 77 80 86 80 80 84 84 87 90 96 100 100 94 92 90
102 147 172 95 83 87 86 68 69 59 31 34 28 34 45 75 56 65 66 53 52 59 70 75 84 90 88 90 89 86 82 88 99 91 89 94 101 103 101 98 101 103 103
135 72 132 176 102 93 86 80 86 90 91 84 52 56 47 54 57 51 56 63 82 76 94 91 95 102 105 106 107 95 90 92 96 97 100 107 109 107 106 102 106 113 119
137 122 94 108 104 80 97 112 110 102 100 104 112 102 80 71 63 59 61 108 124 127 123 110 111 119 128 135 123 124 108 96 100 110 111 113 111 112 104 102 106 100 110
121 114 132 148 159 149 146 145 143 137 130 137 163 168 185 159 151 138 142 149 156 155 143 123 130 137 144 154 159 122 108 98 102 108 110 111 110 113 108 107 116 122 125
114 113 102 139 154 156 161 162 163 178 168 169 176 168 156 206 181 190 210 212 188 173 149 146 147 158 162 160 146 116 110 97 98 105 105 101 111 118 111 113 117 123 123
122 120 129 131 127 138 141 153 164 176 185 171 181 217 148 188 189 204 216 204 194 196 166 161 176 177 152 158 122 125 117 104 103 102 100 109 119 119 117 118 120 123 127
122 123 126 129 138 119 127 139 147 152 165 178 189 214 233 222 193 197 203 184 190 183 166 185 196 169 149 136 131 126 120 112 107 113 114 117 119 121 119 122 127 136 129
88 108 115 118 122 121 125 135 152 142 155 154 178 192 197 192 198 213 204 179 186 162 191 177 146 132 131 128 116 112 116 114 119 118 119 131 131 124 133 134 132 122 130
50 54 63 75 90 96 107 116 107 121 131 138 121 139 155 176 182 191 186 193 153 180 146 119 130 137 101 104 108 112 107 84 110 114 137 133 129 118 141 151 138 140 127
63 67 76 94 100 107 93 87 85 102 112 109 105 116 135 155 168 166 178 162 144 127 97 111 110 105 95 96 94 91 72 66 86 72 116 147 167 175 169 146 124 162 148

GFSGL_con_3kmhel_063.txt.gz
Helicity
280 221 181 160 137 129 129 132 133 135 130 132 140 135 134 133 134 132 123 135 135 137 150 151 152 155 159 160 162 162 157 140 129 154 142 127 110 110 78 51 63 66 60
197 170 147 129 114 102 108 119 122 118 127 131 130 134 135 138 147 162 140 140 129 138 143 149 153 142 139 134 124 138 138 153 159 141 168 128 92 64 32 46 46 68 67
170 151 134 119 115 109 111 107 112 126 130 135 136 139 142 151 153 162 150 146 160 175 160 156 142 130 136 137 144 142 138 130 122 128 104 76 45 38 67 70 69 77 69
143 132 119 111 101 103 114 115 123 131 137 152 166 159 152 153 156 157 153 158 176 185 167 160 149 148 134 127 115 86 66 56 60 72 60 51 61 71 72 82 88 76 88
109 102 97 94 103 104 107 117 134 151 181 182 168 157 143 139 132 129 145 144 140 139 131 135 152 134 128 104 87 84 89 93 87 74 70 68 71 68 88 84 90 92 88
83 76 76 80 81 83 82 105 133 150 159 162 152 146 142 128 116 129 124 129 111 100 110 99 88 87 76 75 90 115 111 103 101 109 88 85 101 83 86 109 99 105 108
83 85 85 81 89 91 92 98 108 131 147 153 154 144 140 130 128 136 126 120 115 108 79 77 70 58 61 55 72 83 113 125 139 110 119 149 146 135 103 96 106 89 87
94 92 90 87 82 87 96 105 125 144 155 158 158 134 133 122 106 113 108 119 103 78 64 54 47 40 54 65 76 75 88 106 124 123 143 157 151 129 103 91 83 76 71
107 96 102 108 97 95 105 115 129 146 169 168 146 133 125 106 83 85 87 69 66 55 41 36 44 42 61 77 73 68 68 90 97 106 111 116 103 94 83 83 83 86 78
119 116 121 113 104 109 113 132 134 144 157 139 137 116 93 85 66 49 39 55 43 40 44 50 52 72 63 54 59 65 73 91 88 82 85 86 80 93 85 74 83 79 80
133 133 134 127 113 112 137 133 146 147 140 119 107 81 68 34 21 27 40 48 43 50 47 42 53 53 55 53 48 61 84 85 84 76 72 77 84 87 85 94 90 85 77
136 148 155 150 143 129 129 152 146 132 94 73 58 38 29 24 32 28 28 34 52 51 50 52 63 55 55 41 39 46 61 77 76 81 87 79 91 104 95 89 92 79 79
145 145 150 153 146 151 118 132 126 100 73 58 52 51 49 48 52 28 28 29 37 48 54 62 68 56 50 43 40 46 63 62 79 87 84 96 105 113 106 86 77 67 73
136 144 161 182 167 158 134 131 118 106 84 69 60 58 59 68 62 70 65 56 39 53 53 57 51 50 48 55 72 64 65 64 80 87 95 102 110 115 98 94 100 97 97
159 164 148 177 214 121 93 100 97 81 74 79 76 75 79 77 76 68 78 84 84 70 73 81 76 69 70 76 77 71 79 85 93 92 103 105 103 106 107 105 109 110 109
154 156 130 167 215 151 121 89 31 41 44 47 79 83 81 68 82 54 50 56 60 70 93 88 77 78 80 84 90 95 100 95 111 108 115 115 115 123 118 117 122 119 114
170 188 161 160 208 183 119 80 71 50 29 48 42 46 52 72 60 66 64 62 64 72 94 92 87 90 105 112 112 119 122 123 134 135 130 125 128 127 113 126 125 121 118
166 155 193 161 148 191 197 115 82 84 104 84 36 47 43 48 55 62 74 86 111 89 120 102 102 119 120 130 138 144 144 152 146 138 133 133 141 140 132 128 129 126 125
172 170 168 176 127 114 163 132 89 99 118 119 157 124 99 98 104 121 126 169 182 163 138 127 137 140 153 158 152 156 164 174 149 155 150 140 144 142 130 127 122 86 93
126 131 159 169 169 112 128 134 126 121 117 118 134 142 182 153 168 175 184 183 179 159 172 171 167 171 179 166 164 170 179 179 155 152 144 134 135 137 131 124 126 126 127
121 128 114 151 162 169 178 177 166 159 154 152 143 177 181 228 216 208 215 203 202 210 200 188 204 198 199 186 190 193 182 187 158 151 141 136 135 131 124 128 127 125 137
124 135 143 148 154 154 149 151 160 160 163 170 156 156 129 187 213 199 205 229 235 225 238 215 214 225 195 213 207 187 186 169 159 150 140 130 128 136 139 131 132 137 138
115 136 152 155 161 129 125 132 138 139 140 149 159 179 200 207 233 225 232 259 252 246 255 223 223 196 215 193 179 179 172 165 156 148 137 135 143 155 148 145 149 154 155
101 114 126 139 152 145 146 139 137 120 125 132 151 173 181 188 179 179 216 228 211 249 235 228 217 185 177 150 160 173 152 142 145 149 147 148 157 149 159 172 174 165 162
63 67 72 79 87 89 92 90 99 104 114 118 114 136 145 152 145 154 189 211 221 207 223 223 182 167 126 133 143 132 130 89 130 149 162 158 152 143 163 172 163 162 160
58 57 58 69 77 94 106 105 105 112 101 103 113 122 131 136 146 156 181 197 192 189 173 157 152 113 95 107 114 102 74 69 88 78 139 170 172 165 166 165 145 171 159

GFSGL_con_3kmhel_066.txt.gz
Helicity
337 435 380 379 398 321 218 192 170 157 153 158 163 156 150 150 154 144 122 120 124 135 139 148 140 139 145 141 153 168 157 151 161 183 171 161 142 134 89 69 63 67 54
234 237 238 253 252 247 210 179 173 149 174 171 153 143 149 160 160 176 150 151 114 122 134 153 159 162 166 167 143 170 170 167 154 149 136 123 115 87 55 37 38 44 53
241 229 245 237 226 188 186 186 170 163 147 136 143 161 178 183 208 216 215 203 220 229 204 189 193 177 183 172 174 161 142 139 135 121 107 74 64 36 37 54 55 53 47
189 188 176 151 137 148 153 158 142 138 136 139 190 200 198 194 198 211 235 231 226 203 203 198 207 184 150 124 124 112 96 77 77 93 82 67 53 58 65 96 107 90 90
145 155 158 171 175 172 168 149 153 151 173 201 171 158 167 173 169 176 189 194 186 182 168 158 143 152 159 135 97 91 81 88 101 88 93 82 76 73 92 98 101 91 108
133 120 118 120 125 127 132 145 150 152 161 148 138 138 143 162 157 150 173 168 167 160 160 136 133 131 96 83 99 101 102 79 77 83 89 75 100 86 108 102 87 103 112
126 116 125 113 108 91 92 100 95 111 127 130 142 153 161 175 141 160 172 185 178 156 134 124 99 68 66 64 72 84 95 110 100 90 106 111 123 101 98 98 96 86 83
142 146 148 137 134 134 125 112 100 117 121 124 135 155 176 181 153 146 166 157 142 120 103 83 51 41 43 57 60 68 80 92 110 125 127 129 124 116 105 78 71 68 69
167 163 169 168 167 169 108 85 108 128 130 126 142 154 154 171 138 125 133 112 102 71 56 44 30 35 39 66 68 57 62 68 84 95 90 91 91 86 77 85 87 95 87
205 185 189 189 171 154 103 123 131 134 137 134 149 141 111 125 87 93 90 81 74 51 48 56 56 66 51 49 68 65 70 68 79 81 65 69 75 76 78 82 83 95 89
204 198 202 189 176 166 159 149 146 152 141 133 127 109 116 92 74 64 44 51 52 50 49 47 46 50 49 43 50 66 64 69 65 63 60 71 74 74 80 95 97 96 100
205 208 198 194 193 167 158 167 169 160 131 119 114 87 73 57 44 34 27 35 53 57 54 55 55 46 43 41 40 34 57 70 64 61 70 73 78 87 96 107 100 93 90
176 189 185 191 192 176 174 179 160 157 126 84 93 80 63 42 46 28 24 32 42 60 64 52 50 44 42 48 32 40 53 69 60 71 74 74 85 93 107 105 85 80 73
156 164 181 185 194 187 187 167 176 186 127 60 80 54 53 54 55 56 58 55 40 56 58 63 53 51 43 41 49 55 74 68 72 80 78 84 95 118 101 95 100 100 110
127 153 180 188 179 180 153 187 195 89 83 96 81 87 76 71 69 66 72 73 76 80 84 86 83 76 71 66 64 60 65 67 87 89 88 92 88 99 108 106 112 116 117
132 164 141 172 179 174 125 141 146 93 28 29 46 62 58 62 55 45 47 54 58 66 106 113 99 89 82 74 74 76 84 78 104 116 121 115 102 114 126 125 128 136 125
148 168 170 162 187 180 141 143 202 122 13 31 17 36 55 71 56 66 58 56 64 78 116 115 102 97 100 107 98 98 110 120 132 144 152 142 125 132 111 120 123 127 117
145 153 180 171 168 179 167 126 156 142 112 75 46 40 25 38 53 73 74 91 135 104 166 173 156 171 139 108 112 117 126 135 155 165 170 154 130 142 137 127 133 135 123
141 162 165 168 162 150 147 123 114 132 147 126 121 84 76 81 83 98 116 155 154 162 151 155 165 163 135 129 127 137 151 159 162 183 191 169 147 159 144 143 133 76 83
115 104 132 169 161 159 152 128 104 102 92 82 105 106 122 109 130 135 152 180 187 185 183 180 186 177 178 168 173 189 194 182 204 185 195 179 164 160 148 149 137 124 115
130 122 91 148 159 152 164 162 146 144 140 133 110 136 121 157 147 167 189 209 219 211 214 213 220 222 210 204 236 207 197 237 195 200 171 158 149 151 151 131 115 117 119
118 133 127 138 148 156 151 157 161 162 150 134 127 140 104 148 169 184 203 217 232 230 236 234 226 241 224 209 218 192 217 178 185 168 163 142 155 149 136 134 138 137 136
89 112 130 136 153 137 138 159 155 146 131 125 126 136 161 160 165 171 168 175 204 226 255 275 265 266 255 224 238 224 195 160 163 175 145 141 144 143 142 142 144 149 154
83 92 100 118 138 142 147 150 146 128 129 124 124 122 127 143 135 142 164 171 170 179 203 197 229 264 202 235 177 189 169 140 164 137 132 138 137 122 136 154 168 169 167
72 77 84 97 106 111 120 121 114 108 101 94 91 103 118 116 111 125 133 141 179 193 212 193 194 182 186 146 177 146 122 78 107 126 144 142 137 138 150 150 149 155 153
49 51 46 57 61 61 64 64 65 71 77 82 87 88 89 97 106 118 139 157 170 182 191 193 184 157 143 149 120 78 58 61 82 66 139 152 152 155 157 154 136 150 143

GFSGL_con_3kmhel_069.txt.gz
Helicity
240 276 278 406 424 401 357 353 329 337 219 157 147 159 167 181 177 155 132 138 148 152 160 155 155 146 140 146 150 156 165 158 150 163 193 191 178 158 126 106 90 81 80
238 275 274 274 290 318 287 254 246 245 247 201 182 167 168 171 174 167 145 159 129 144 148 158 168 172 177 163 155 157 140 136 134 157 184 170 158 121 96 69 58 44 56
216 229 215 212 219 221 205 183 173 163 159 169 171 180 173 167 175 183 193 192 213 222 206 191 175 175 168 166 165 156 135 123 135 137 139 124 95 68 43 47 51 64 56
202 214 212 180 184 194 187 179 162 154 155 160 166 165 164 162 155 167 200 221 236 238 228 212 204 183 163 158 150 130 107 103 108 105 97 86 77 47 56 81 92 92 80
186 173 153 158 168 176 171 155 145 148 146 142 140 134 127 126 139 150 177 184 207 213 206 189 177 169 177 144 118 115 104 90 72 83 86 91 78 76 72 76 84 86 80
143 137 147 162 162 154 153 151 149 140 133 133 124 122 127 135 127 125 145 182 193 188 195 186 181 171 148 128 119 100 74 63 71 81 83 84 86 94 88 75 84 87 70
143 131 145 150 149 138 133 133 125 123 128 125 121 129 132 136 118 133 158 206 205 182 174 155 142 120 103 93 77 86 89 98 88 73 77 72 81 80 78 81 84 80 74
166 149 145 150 141 133 133 124 125 127 113 116 115 123 145 141 148 169 175 196 180 156 129 113 109 80 56 53 72 74 75 79 80 86 88 86 87 84 76 74 72 68 62
178 157 166 178 164 157 147 142 139 117 115 110 114 126 136 139 133 136 134 159 144 115 93 83 69 48 50 48 61 64 62 63 63 69 72 78 79 72 75 91 90 94 81
205 193 202 197 193 179 161 156 129 125 116 131 122 117 95 116 107 111 116 130 99 80 64 52 48 34 40 43 57 60 61 46 54 70 73 70 77 74 90 89 89 96 86
192 184 196 203 198 175 169 165 134 133 146 139 121 116 101 99 103 85 72 86 66 59 55 48 47 35 34 37 50 57 51 58 57 60 59 57 60 75 82 87 86 89 96
157 177 195 197 203 200 184 159 146 158 154 133 128 121 109 97 88 53 51 47 42 57 50 54 44 33 38 36 46 37 47 67 66 63 62 56 60 72 83 78 78 82 84
150 160 183 204 216 185 188 160 173 164 168 156 129 161 81 88 66 38 24 22 31 58 60 48 40 40 37 44 41 41 48 70 65 70 59 57 63 73 104 98 86 83 82
129 142 168 194 190 190 182 178 177 177 150 137 160 173 75 73 46 29 30 35 31 52 49 55 56 57 56 54 57 58 71 68 74 74 69 65 81 107 95 95 102 105 112
108 123 143 164 165 170 156 170 174 142 155 166 145 127 93 51 46 56 53 50 60 74 90 92 88 90 84 77 71 64 63 70 81 88 84 80 88 105 100 102 109 116 124
109 118 119 123 162 151 129 141 65 64 61 69 50 84 77 70 65 42 36 36 41 52 112 109 97 88 81 73 72 70 73 72 88 88 94 95 110 122 122 121 124 133 135
121 128 141 147 158 173 166 159 141 81 49 62 64 35 40 60 50 46 48 52 54 65 105 123 132 125 126 143 137 143 169 124 119 118 119 126 139 147 126 128 123 132 130
113 113 163 160 157 165 169 162 148 135 95 98 69 35 38 53 58 65 63 72 104 86 155 171 162 174 175 148 140 162 150 120 125 126 140 152 163 181 170 146 129 137 128
138 143 159 157 157 142 148 149 141 117 100 101 124 99 36 38 52 68 90 128 115 119 130 141 145 145 140 148 165 170 157 154 167 180 181 188 195 198 190 165 135 96 101
125 88 108 143 152 150 155 139 129 113 95 70 75 70 101 47 85 92 99 122 130 137 150 156 160 159 167 175 168 161 159 168 189 179 181 237 207 218 194 162 153 146 134
87 100 79 127 140 141 146 145 136 136 124 102 90 73 75 116 112 118 126 147 167 179 186 188 189 194 190 193 201 194 189 188 182 187 204 186 201 179 148 141 149 136 120
77 72 103 125 146 137 133 138 140 133 126 122 115 121 61 104 130 131 138 148 167 168 181 185 192 206 189 188 214 208 184 182 183 200 185 189 169 138 145 143 137 128 119
81 79 84 121 139 115 113 130 133 134 119 117 122 126 130 112 111 122 129 134 161 174 186 196 182 193 197 216 238 231 197 183 181 208 180 149 138 147 139 132 131 127 128
83 96 85 110 122 120 116 120 131 119 131 121 121 122 123 123 117 109 110 121 126 149 177 159 173 173 179 213 231 207 198 177 202 165 142 141 125 110 118 125 133 131 138
121 102 125 89 83 85 96 112 127 126 121 118 106 110 118 112 101 102 107 109 113 131 140 140 180 163 157 194 188 192 160 119 135 118 123 107 100 116 132 134 136 144 142
72 17 78 79 67 70 85 98 101 97 94 90 82 80 82 82 76 61 71 81 90 111 123 143 147 145 149 152 152 131 107 80 80 62 116 133 127 138 147 142 136 151 138

GFSGL_con_3kmhel_072.txt.gz
Helicity
131 144 180 223 268 315 376 384 382 380 357 308 245 198 192 187 166 163 154 148 146 127 133 134 131 144 140 149 152 163 161 161 168 208 208 199 196 158 127 111 85 91 80
125 155 176 208 238 266 281 279 295 279 249 225 197 197 178 179 185 183 169 161 134 126 122 133 139 158 164 167 157 166 153 155 177 177 187 169 135 126 112 102 91 80 80
144 175 194 204 213 221 224 234 250 245 213 195 169 149 151 167 187 186 166 159 166 180 192 172 170 169 162 151 151 141 136 137 153 154 169 168 148 110 76 67 70 78 74
142 157 167 171 183 197 198 192 177 166 158 146 138 138 142 151 152 153 158 161 181 192 197 205 197 192 162 153 153 142 148 138 127 138 155 145 110 84 67 78 80 98 90
126 135 127 144 164 171 170 163 158 146 133 129 142 138 127 120 113 119 134 143 160 177 188 187 178 178 176 166 145 138 127 125 127 126 115 102 99 95 79 88 91 95 86
137 118 122 129 141 145 155 150 146 139 133 132 119 104 100 100 81 98 122 150 170 184 192 204 203 194 160 142 146 121 96 90 94 86 87 91 88 91 92 89 97 97 79
154 138 135 136 134 136 135 135 128 120 128 117 110 107 95 89 80 77 97 168 188 183 177 172 177 177 151 136 124 154 111 85 70 68 79 76 83 76 93 94 94 95 86
181 145 152 160 144 132 131 123 123 122 109 119 114 112 118 109 90 103 153 200 203 197 170 138 138 127 109 90 85 89 69 77 84 82 85 81 86 85 83 74 86 91 88
175 164 161 183 171 150 139 133 130 120 119 112 123 117 123 108 99 98 155 177 169 158 123 102 94 86 63 55 59 60 55 77 72 77 77 86 79 70 65 88 91 101 87
173 196 199 189 180 162 154 147 150 139 105 118 118 121 101 112 87 86 124 141 138 128 104 67 41 52 38 42 50 53 60 54 63 72 78 85 89 72 64 66 86 90 86
168 216 187 176 173 167 175 183 161 139 130 124 112 111 115 117 101 86 128 159 124 95 80 54 43 32 30 37 51 59 50 63 50 59 66 74 74 68 68 73 67 78 93
106 127 147 166 180 184 187 179 171 154 138 123 119 116 121 119 87 85 99 97 70 76 61 42 47 22 35 38 52 41 46 64 71 71 75 76 76 69 63 68 69 70 77
93 109 137 156 174 183 195 185 168 163 148 139 145 136 127 129 113 65 77 57 42 52 48 40 32 30 39 43 41 37 37 81 77 79 73 78 76 72 93 89 79 73 76
94 99 116 145 163 179 187 178 175 176 162 161 166 138 123 127 134 97 65 44 24 31 39 43 46 47 54 57 52 54 77 80 85 87 88 81 83 96 86 88 93 97 112
92 99 112 127 136 151 156 178 175 155 148 167 164 156 155 137 99 71 66 57 46 51 63 75 92 93 79 75 73 67 71 74 78 82 98 117 109 99 100 107 111 120 120
104 103 104 117 123 135 138 126 81 77 61 65 73 113 124 67 76 57 40 34 38 47 95 110 89 97 100 98 90 81 93 93 112 139 160 146 120 124 144 124 124 136 132
85 112 115 118 124 131 139 134 120 100 47 71 45 62 45 58 55 54 45 45 51 61 102 123 108 111 105 126 143 151 145 117 128 159 123 93 118 126 137 155 152 152 142
100 94 130 125 128 141 149 144 132 132 123 118 64 58 55 80 82 49 48 65 90 68 102 113 117 133 136 127 133 137 147 135 142 133 96 133 147 157 173 179 191 180 172
104 127 146 156 154 126 155 145 137 123 120 121 129 82 57 80 63 58 69 112 115 140 136 148 175 169 152 144 125 130 138 146 142 140 149 164 169 189 179 208 193 148 149
71 75 112 160 152 151 155 143 134 124 117 123 112 95 121 145 175 140 109 99 99 111 140 142 146 147 146 147 143 144 155 157 168 172 166 180 177 194 192 203 189 178 158
75 73 71 134 158 135 126 127 128 127 119 122 119 96 92 128 114 117 112 109 119 114 120 121 125 140 144 156 166 178 174 176 173 177 184 190 206 218 195 182 174 159 141
71 77 93 105 125 136 120 117 127 121 118 110 120 112 52 102 120 123 126 133 145 153 158 152 151 163 172 172 189 197 174 180 182 178 188 201 207 193 189 174 166 149 131
75 79 77 85 115 109 108 122 134 126 115 112 120 141 141 128 144 138 132 134 148 153 151 150 142 149 164 174 178 181 193 190 188 215 214 208 193 178 168 161 146 133 125
78 77 61 81 100 112 111 117 124 109 116 118 126 130 131 118 120 119 133 134 132 132 156 155 143 128 161 173 175 181 194 213 229 205 192 189 170 138 140 125 125 117 119
86 100 94 77 90 99 115 121 122 123 116 118 124 129 126 112 115 139 134 134 141 143 141 123 121 120 132 136 148 155 159 147 174 166 169 148 130 126 115 119 126 127 132
84 101 103 96 88 95 109 122 141 123 112 108 112 118 122 124 113 122 128 116 109 95 88 99 102 104 107 103 104 111 92 89 92 95 123 122 122 122 126 121 122 135 133

GFSGL_con_3kmhel_075.txt.gz
Helicity
87 98 108 112 127 145 181 209 221 263 272 294 290 288 260 238 180 160 146 145 137 134 153 162 152 144 136 142 146 158 159 170 155 215 185 203 219 195 169 127 100 82 80
67 74 80 111 135 149 158 181 223 236 228 250 241 245 228 187 165 169 154 129 120 129 134 143 131 151 157 176 160 155 155 163 170 177 188 204 193 175 129 95 66 78 88
70 91 116 137 156 160 179 199 221 238 241 222 220 207 180 157 167 159 149 139 142 149 155 152 159 153 159 177 175 165 157 143 154 152 173 199 200 149 122 93 75 90 94
97 113 127 138 139 144 156 166 174 181 188 186 178 165 157 156 155 148 144 143 148 158 170 178 177 171 164 165 171 167 163 147 142 160 180 187 170 144 120 72 66 93 87
72 100 100 121 136 145 154 167 182 180 173 167 162 148 136 130 117 105 104 111 125 143 152 159 160 161 161 165 166 158 149 150 150 155 162 156 146 139 98 68 88 96 92
86 110 124 130 122 125 149 162 162 155 143 133 125 115 105 94 77 60 60 77 115 143 153 168 190 192 181 173 155 141 129 137 120 113 126 132 118 89 87 90 99 96 82
92 115 135 149 134 125 139 148 145 137 126 102 93 93 84 81 68 62 50 81 101 143 156 163 169 182 178 188 176 166 153 133 125 87 84 66 73 74 99 103 95 92 86
85 114 146 157 151 145 151 135 135 135 112 105 87 82 84 73 64 64 88 127 129 165 162 155 153 138 139 132 123 118 118 108 109 88 83 68 75 94 101 88 81 99 95
74 114 152 175 183 176 161 142 136 133 124 101 95 84 81 75 71 89 145 127 129 126 134 136 126 113 87 83 90 84 77 74 73 85 99 98 81 82 83 104 101 103 91
70 126 163 208 211 198 187 161 159 147 124 102 100 92 69 77 70 72 112 121 117 113 127 122 92 87 58 58 54 51 47 47 52 64 102 105 95 82 68 78 85 100 105
49 103 167 208 220 201 205 205 182 153 146 112 101 99 87 83 85 62 93 117 117 123 111 109 84 48 30 38 40 35 33 53 46 70 70 76 75 77 79 81 84 92 100
58 81 127 165 191 205 202 201 190 175 147 116 116 122 111 104 74 69 79 99 105 118 116 87 65 37 25 38 36 32 48 71 73 76 75 71 78 67 58 70 78 83 87
76 76 119 144 164 179 200 194 210 182 165 149 151 143 134 121 118 74 69 79 81 106 96 65 44 29 39 19 28 41 43 79 71 67 65 76 74 61 77 78 80 82 77
75 81 99 123 140 155 181 193 185 177 172 168 172 160 139 145 147 140 116 127 75 73 69 56 44 32 44 62 65 54 69 72 77 78 80 76 83 88 92 86 127 131 99
88 84 92 104 126 151 153 165 162 151 145 162 166 166 176 158 144 131 153 144 95 90 103 78 65 69 73 79 74 66 68 76 88 94 97 97 104 141 173 178 153 126 120
88 104 102 115 125 132 140 137 81 94 78 70 86 120 123 95 89 88 73 56 57 58 104 99 87 83 81 78 84 79 96 88 111 121 118 127 141 131 130 142 145 139 138
70 82 114 86 126 132 136 128 104 97 48 49 54 54 66 96 64 81 56 44 47 58 75 79 82 92 97 104 114 128 120 136 176 170 131 119 133 127 101 133 138 145 146
71 59 96 103 104 113 136 125 120 108 98 100 58 66 59 68 69 76 76 88 108 57 97 113 108 109 117 121 129 125 136 143 131 135 144 144 142 142 159 153 162 163 165
46 68 60 61 117 114 128 129 131 121 111 108 130 83 67 60 67 94 95 148 160 124 111 117 125 133 146 169 153 136 127 128 145 161 158 143 154 187 162 157 157 136 153
50 71 70 61 98 117 141 138 141 135 127 126 127 111 131 101 131 145 143 141 195 173 142 117 135 157 134 126 127 128 143 141 156 172 165 171 179 195 180 172 173 179 175
52 48 59 68 77 117 132 132 135 133 137 130 118 124 114 142 125 121 133 161 152 115 148 138 106 128 127 136 148 145 154 170 184 183 184 182 196 198 188 185 182 187 181
60 51 52 57 75 80 113 106 126 129 116 112 113 120 67 111 123 115 104 101 102 107 110 116 134 134 149 144 146 152 163 179 201 205 194 201 216 202 204 197 187 186 164
58 58 55 54 68 79 75 111 122 121 112 99 104 134 146 137 135 131 126 126 131 131 134 152 135 131 137 142 151 164 172 173 202 196 210 208 209 203 202 196 180 162 152
46 54 61 63 59 64 71 77 107 102 107 113 113 136 152 153 139 136 130 129 125 127 148 147 139 130 142 161 165 159 144 146 175 185 210 221 202 173 184 178 163 149 136
27 51 58 65 66 69 56 61 95 103 109 116 124 132 140 152 140 132 131 129 132 135 134 140 136 140 151 144 139 132 124 116 157 164 176 170 163 163 154 160 153 142 138
24 42 59 69 69 74 64 62 82 94 101 117 125 124 129 145 148 145 137 127 138 142 140 150 144 123 116 103 96 95 81 81 105 108 140 142 151 142 153 151 146 152 145

GFSGL_con_3kmhel_078.txt.gz
Helicity
88 89 99 99 98 95 96 105 120 148 156 185 195 209 198 231 235 200 178 178 140 125 140 136 124 139 139 144 143 148 143 163 154 189 194 196 207 190 170 185 161 153 73
72 82 87 90 96 100 104 115 139 168 203 225 247 251 217 213 203 209 202 175 139 141 143 133 113 128 125 149 159 146 149 165 172 157 175 180 188 204 184 154 143 103 65
71 68 73 76 86 92 101 120 147 167 180 203 221 215 206 194 195 212 185 161 151 134 136 141 137 144 142 146 154 165 169 171 174 177 172 173 174 188 177 168 127 99 73
67 75 83 94 104 116 127 136 143 160 183 201 212 210 209 207 197 176 162 151 143 138 137 136 136 141 134 136 142 144 158 168 177 180 171 172 183 183 174 145 113 89 87
85 82 77 109 120 132 154 161 168 181 188 192 201 201 189 170 145 130 112 94 85 99 114 128 138 140 139 142 152 152 161 167 175 176 182 175 173 167 138 112 92 78 79
49 58 73 87 114 120 136 150 170 180 185 181 179 167 156 140 110 90 88 69 46 49 87 131 158 169 163 156 155 161 157 159 157 161 169 150 143 136 136 89 77 82 63
44 50 70 92 107 124 137 157 153 156 164 149 143 131 115 98 77 69 71 75 57 51 84 134 148 159 167 182 207 218 207 186 156 121 121 108 98 69 95 79 73 76 80
44 47 67 113 124 146 155 149 164 167 149 142 124 104 94 78 68 72 70 94 90 88 106 131 137 126 126 145 166 170 166 139 123 100 86 70 68 45 86 81 75 88 90
58 44 55 105 142 166 168 174 188 191 166 140 129 109 92 77 61 61 106 96 97 94 113 126 123 119 112 122 141 132 122 107 84 75 75 75 77 68 81 109 99 90 72
54 68 49 77 143 168 184 210 218 209 174 161 146 113 80 81 63 48 100 105 94 102 113 118 111 128 103 98 115 92 91 56 56 55 80 80 86 89 77 79 75 71 76
59 67 67 61 103 149 221 243 235 212 204 184 149 116 98 87 79 46 82 121 103 105 114 125 120 96 89 73 77 53 49 51 35 45 59 58 71 66 74 63 50 66 77
89 67 81 87 95 144 188 214 213 215 200 182 165 144 128 107 74 61 66 103 92 119 131 129 108 89 55 44 50 24 31 49 64 60 47 29 48 55 52 61 61 64 64
96 99 85 92 95 127 181 198 240 217 202 187 177 160 154 137 118 80 74 84 89 140 159 134 106 76 50 36 42 47 36 71 63 65 57 56 63 69 96 94 88 82 70
59 95 100 93 88 101 151 187 215 215 198 185 168 156 157 157 154 145 129 124 113 136 145 153 116 82 54 49 53 45 69 66 70 71 72 66 82 92 97 100 111 100 92
48 53 66 81 83 93 112 138 154 157 169 176 161 157 166 150 129 118 165 185 151 182 211 198 139 114 93 78 77 72 82 77 79 77 79 94 105 119 121 131 141 142 105
33 33 45 66 79 115 110 112 61 80 67 72 84 116 119 92 94 85 79 100 109 130 199 168 112 104 84 70 68 76 86 80 94 101 101 104 123 132 122 131 142 125 102
38 45 36 42 51 94 112 113 100 101 63 61 55 54 51 82 54 73 91 105 101 113 146 125 98 99 84 91 102 103 108 106 115 112 117 149 173 125 101 119 120 118 103
60 72 50 57 30 13 105 89 120 115 107 106 52 50 34 37 50 59 85 125 152 104 135 116 74 86 95 101 104 109 118 118 113 115 146 141 125 144 154 144 146 152 146
58 70 77 72 70 47 36 69 105 103 101 96 104 70 42 39 38 59 98 173 169 139 131 155 152 121 106 119 122 117 121 149 149 144 127 144 145 172 149 153 158 119 126
13 57 93 83 73 63 65 56 58 85 100 100 99 92 124 100 117 142 176 178 167 154 138 137 199 172 151 127 121 132 147 122 123 135 138 154 166 188 168 164 169 163 156
22 23 87 77 68 67 59 50 72 87 105 111 99 105 99 134 130 154 195 181 147 147 132 162 211 211 171 140 128 114 121 140 148 151 172 175 194 193 170 174 177 177 188
13 7 45 69 77 67 63 67 62 84 114 121 118 106 38 98 126 135 154 152 129 120 127 125 119 121 136 113 112 129 124 133 155 174 176 190 216 187 196 193 185 191 197
-0 -1 23 49 62 82 68 62 67 70 84 92 97 111 108 100 122 118 126 141 129 130 138 139 121 118 125 135 138 152 151 155 174 189 203 217 235 214 218 202 191 188 174
5 -0 6 30 48 59 77 69 64 62 80 100 102 114 118 116 109 120 127 145 148 135 136 140 129 118 130 136 146 150 146 164 188 171 164 188 193 193 204 193 181 159 149
4 9 21 17 31 40 65 71 55 49 63 86 102 107 111 117 117 115 132 150 145 142 131 127 119 118 120 135 133 138 158 136 144 148 156 178 181 192 191 176 174 161 162
11 -0 -10 7 40 40 54 68 68 49 44 73 91 104 110 105 107 122 127 137 143 130 129 129 125 129 125 127 145 162 106 76 93 100 158 170 174 168 173 172 162 167 167

GFSGL_con_3kmhel_081.txt.gz
Helicity
110 97 92 93 95 97 96 108 109 120 135 158 179 209 209 206 185 177 181 166 168 157 154 146 121 121 136 139 156 155 144 149 137 164 158 161 159 168 174 171 141 144 134
70 85 92 92 93 96 94 91 95 102 116 144 190 216 223 216 220 202 197 180 169 172 181 151 137 146 135 149 152 139 141 152 161 151 156 156 155 160 175 161 156 139 131
49 51 61 71 86 101 111 120 131 143 161 183 203 212 223 231 245 241 210 190 188 191 167 153 152 151 153 158 155 151 149 163 161 163 159 165 166 168 179 176 170 159 120
60 59 60 64 72 86 107 133 156 181 205 220 222 233 231 229 221 210 202 197 182 157 149 154 154 158 162 161 154 150 156 157 166 171 176 170 165 162 180 171 153 130 81
83 87 84 85 77 80 94 115 138 152 175 198 218 225 219 210 202 188 182 161 144 135 128 141 164 179 171 166 160 154 160 164 177 183 186 175 162 164 155 144 142 110 75
69 84 90 81 83 89 99 106 120 141 161 177 180 183 194 200 166 158 153 137 113 93 73 92 126 147 160 166 171 167 162 160 162 176 171 169 149 141 148 136 121 94 62
56 63 67 72 74 87 105 118 123 130 155 151 157 158 158 154 115 99 104 112 98 81 66 63 109 144 171 186 205 207 206 191 162 139 144 131 122 108 118 103 83 71 63
60 53 54 55 61 87 114 115 134 156 145 156 150 143 136 124 100 93 90 103 100 81 68 60 104 125 140 159 158 170 173 163 135 110 92 95 84 70 67 62 63 79 64
60 74 70 71 63 77 106 121 142 156 156 160 159 139 123 112 85 83 115 119 98 84 89 84 106 123 116 133 156 170 152 143 117 99 88 82 75 66 68 80 82 86 50
60 87 80 69 67 72 85 145 172 170 176 180 163 144 114 123 90 79 118 119 107 99 91 96 95 113 108 107 141 135 127 103 77 68 62 63 64 54 57 52 61 57 68
70 93 90 76 71 75 99 166 181 176 183 184 170 161 139 122 109 73 86 122 102 106 102 111 111 92 98 101 130 113 83 69 48 65 62 56 52 58 61 58 55 67 59
61 76 97 93 75 75 88 130 187 200 177 164 165 161 148 134 106 94 72 83 91 108 111 127 125 94 111 105 134 83 62 59 67 51 63 71 70 66 56 61 57 61 65
79 71 85 101 89 78 83 110 165 191 194 186 184 169 153 148 139 98 92 85 88 118 134 132 125 116 122 112 112 71 50 94 55 52 50 63 64 62 65 69 87 87 83
55 59 64 93 92 84 85 109 148 185 198 193 182 160 153 142 146 152 143 120 113 139 136 151 156 146 135 147 105 72 88 56 42 47 54 73 76 69 63 65 78 84 89
48 45 50 49 72 86 77 88 122 135 165 195 181 165 163 141 142 130 131 141 167 168 183 215 204 199 161 153 116 101 88 69 60 69 78 80 74 78 85 86 99 110 97
24 31 44 47 57 83 80 70 36 59 63 77 95 119 117 92 77 71 77 66 81 138 252 219 196 164 137 131 110 85 81 72 74 73 76 80 99 101 96 111 112 68 63
-7 30 43 74 68 70 98 69 33 87 43 51 59 62 66 96 62 60 56 56 64 122 233 204 183 147 136 126 110 85 77 79 96 82 91 104 94 102 103 110 85 75 72
22 6 30 60 87 92 86 110 90 86 96 112 73 82 62 57 58 57 54 68 130 140 221 188 158 119 139 125 93 89 94 98 86 86 103 97 101 116 109 79 91 95 84
-9 -4 15 44 69 91 99 91 116 68 69 78 115 102 58 37 39 44 42 124 177 186 190 168 155 109 149 142 99 100 94 93 94 115 110 117 122 119 87 93 102 92 96
26 -2 -5 17 45 76 90 97 85 109 85 73 78 88 142 98 100 91 105 143 174 163 166 161 157 138 171 163 144 125 116 97 128 109 123 126 113 127 120 122 116 114 115
44 42 10 4 16 51 73 94 89 86 99 105 79 72 63 109 107 121 131 170 177 159 154 152 152 131 179 191 186 179 149 111 104 120 119 120 136 153 134 127 126 132 130
73 50 62 27 7 32 60 72 90 80 95 90 113 74 45 89 109 114 125 147 164 164 157 162 150 149 165 174 175 144 100 93 94 129 125 141 156 153 163 164 145 146 146
91 65 47 30 21 20 48 62 75 78 79 98 94 108 94 97 105 107 110 121 133 135 133 119 103 99 110 121 138 144 129 118 131 133 138 147 168 175 198 174 157 166 156
81 69 54 36 25 21 24 45 64 84 87 89 98 72 103 121 115 111 113 122 123 130 125 112 106 104 116 119 120 124 126 125 129 126 138 169 177 168 171 174 167 162 152
92 94 86 50 28 13 25 54 58 69 70 65 85 89 97 109 113 106 102 119 126 130 120 117 108 105 114 103 105 105 106 113 130 144 177 163 135 142 154 161 163 156 141
80 74 61 34 7 1 20 52 67 68 76 64 66 79 88 96 102 108 115 118 120 118 113 117 114 108 102 96 106 115 100 96 128 155 157 139 139 138 148 151 152 146 137

GFSGL_con_3kmhel_084.txt.gz
Helicity
116 106 101 103 110 114 105 93 86 101 118 127 143 167 168 160 156 150 135 134 126 124 122 116 123 148 140 138 139 154 162 159 157 191 191 152 126 129 146 166 158 155 159
116 109 93 86 93 101 114 130 127 115 117 125 152 181 184 185 193 193 202 189 171 165 145 141 143 160 140 142 146 141 153 159 167 156 175 158 146 151 158 156 168 168 142
84 91 104 98 85 77 83 88 96 106 114 129 144 173 215 239 242 225 210 204 201 180 173 159 161 152 144 156 163 165 170 180 175 189 181 173 173 168 176 176 160 155 148
64 68 68 86 104 110 103 91 90 96 107 130 156 189 208 233 250 243 230 217 203 197 192 188 172 155 145 151 168 166 184 189 188 186 192 185 179 176 174 175 171 157 147
67 78 78 66 67 82 106 125 131 128 132 144 163 180 204 216 220 213 212 194 186 182 172 157 149 162 205 190 184 183 181 186 196 197 201 196 183 174 160 155 160 153 123
64 71 82 88 73 71 87 98 116 127 136 141 146 162 180 195 175 174 177 178 170 166 157 130 121 130 145 167 187 194 182 166 165 193 188 170 144 147 157 155 161 141 109
65 69 74 82 92 69 64 88 94 103 125 128 139 147 153 167 152 153 162 167 155 144 143 118 100 125 148 140 150 155 168 173 157 139 137 135 135 127 142 132 120 115 93
63 71 75 75 80 86 68 68 96 114 119 131 133 131 140 147 127 118 122 146 145 138 114 99 77 97 110 122 127 125 119 140 154 145 129 127 119 111 94 74 58 55 61
73 70 80 83 85 88 78 76 101 131 128 126 132 133 129 140 117 113 121 148 138 114 105 86 69 75 83 98 122 139 141 151 163 160 150 130 101 87 66 60 66 55 44
82 83 86 89 78 92 101 85 90 120 147 157 152 151 133 134 108 96 121 132 118 109 98 85 68 79 84 99 120 115 130 130 133 137 128 107 81 75 66 53 51 42 56
62 73 78 79 87 94 98 94 82 99 136 153 154 156 136 124 114 87 97 117 117 117 107 94 95 73 92 92 98 114 124 136 118 109 85 77 66 63 59 66 64 60 73
74 84 88 92 94 80 86 105 98 92 116 140 149 151 146 126 125 102 86 92 101 123 96 93 98 90 107 102 114 124 130 127 105 92 84 80 55 47 50 59 73 89 78
64 69 67 69 72 82 82 84 105 104 130 156 180 162 150 160 144 112 95 71 91 119 107 102 113 111 118 125 121 129 120 120 100 99 90 70 71 69 87 79 80 75 75
72 67 59 58 76 72 64 69 91 119 144 151 178 182 175 196 172 154 143 141 100 126 129 120 120 138 148 146 148 141 119 105 97 89 94 75 97 84 67 70 86 86 86
75 70 57 52 54 69 73 66 68 70 105 152 151 151 184 184 165 156 144 173 191 198 171 177 173 173 179 176 160 148 134 106 92 97 75 78 84 89 86 73 86 96 94
48 50 56 42 39 42 58 76 71 51 27 40 67 122 154 126 111 83 72 89 109 132 241 211 186 196 201 173 180 153 132 97 90 87 86 91 105 104 96 96 112 104 93
52 44 49 64 57 55 46 55 63 73 35 53 36 52 72 101 91 75 61 75 78 132 201 195 190 191 183 174 185 153 139 121 116 99 102 98 109 106 103 119 110 100 89
38 19 9 11 21 35 39 63 73 69 61 54 66 52 86 54 72 74 69 79 127 110 179 181 186 191 186 169 168 150 156 149 100 94 100 108 118 124 131 116 103 86 81
69 61 23 0 2 0 23 47 68 91 66 71 75 86 34 38 60 79 79 159 156 153 164 201 181 185 191 171 140 154 162 156 118 119 118 127 125 137 139 122 97 81 86
71 47 39 33 28 49 6 14 42 66 90 63 79 86 88 75 123 153 151 144 143 133 167 187 174 179 155 154 150 147 153 141 105 125 133 136 147 159 136 114 102 110 111
72 63 31 55 62 52 49 0 18 46 59 81 69 82 98 95 112 142 156 139 138 120 137 151 155 162 153 163 169 163 158 140 132 142 146 157 166 138 110 114 124 131 130
67 58 51 66 78 65 55 40 -1 24 43 67 66 63 67 103 87 111 121 129 122 120 139 139 145 149 158 168 172 174 158 161 188 175 164 164 122 122 129 139 146 143 142
54 36 51 81 73 47 39 40 20 4 22 45 77 72 80 95 89 84 93 87 105 129 146 142 129 122 115 120 152 161 156 159 179 151 114 103 112 144 162 154 167 165 160
43 41 58 71 62 46 42 38 18 9 18 44 82 73 81 105 104 103 94 84 99 109 127 130 111 93 79 74 96 100 95 103 121 121 131 119 126 134 162 162 183 169 152
56 81 71 63 56 60 40 25 11 4 17 35 75 78 73 89 120 101 87 96 108 122 114 112 113 88 89 87 83 77 87 89 130 135 136 131 132 145 178 181 167 164 163
49 -14 12 78 64 52 30 13 8 7 26 36 61 79 69 80 94 99 116 110 129 120 113 111 110 103 95 90 87 82 66 63 89 105 150 153 157 166 162 135 138 156 147

GFSGL_con_3kmhel_087.txt.gz
Helicity
130 128 128 119 116 115 104 97 96 89 77 91 112 147 201 238 235 213 187 161 140 127 111 109 105 107 107 107 132 155 159 157 144 201 249 214 166 152 150 161 165 173 183
106 97 96 98 113 116 110 109 110 108 113 120 141 153 188 189 194 186 170 167 164 164 151 150 140 136 116 133 146 145 136 135 152 147 208 181 183 177 165 165 170 171 162
86 81 76 73 76 79 89 103 96 103 103 111 124 132 150 174 186 183 183 190 203 207 194 178 179 168 152 171 183 166 148 154 173 183 180 209 188 181 187 178 166 160 165
65 61 68 80 79 81 79 81 97 106 109 111 116 139 176 184 201 226 218 229 232 228 235 200 185 181 163 173 167 155 168 168 148 152 161 223 198 188 189 175 168 169 168
62 67 71 72 83 90 89 87 82 90 110 118 134 154 180 205 231 235 244 232 217 219 206 201 207 187 234 243 200 150 177 180 172 186 200 214 196 192 177 174 167 172 146
72 81 90 91 93 95 91 89 90 88 89 110 123 137 165 192 180 179 202 218 210 186 180 181 197 197 187 190 195 201 174 147 168 200 196 184 164 163 174 168 177 174 153
80 87 91 93 88 86 86 84 85 92 100 107 116 132 147 164 150 174 185 199 204 196 191 185 170 144 135 143 147 139 147 153 175 161 148 141 150 164 171 164 162 161 150
61 70 75 81 92 96 98 91 80 86 101 108 122 128 144 156 125 139 169 213 219 227 210 181 147 137 113 114 134 148 125 112 124 129 117 132 155 169 151 132 129 122 116
76 75 69 66 77 90 94 100 103 90 95 112 123 130 145 168 133 146 183 226 197 163 149 121 112 94 80 93 128 114 93 123 142 156 169 174 157 132 122 124 132 131 99
115 96 77 63 52 65 81 92 97 98 88 119 131 146 136 150 130 144 176 192 172 154 111 100 78 83 73 75 115 107 100 121 139 164 173 161 138 135 126 103 95 96 99
80 84 87 86 86 70 63 64 76 92 100 102 117 139 149 145 138 117 132 178 173 163 136 121 109 58 72 65 82 106 104 154 137 141 154 145 109 94 96 97 98 84 88
70 69 70 71 71 65 62 64 63 59 82 99 111 123 136 135 121 101 116 124 120 159 153 134 119 66 58 64 89 109 147 158 166 147 147 123 104 113 112 107 103 106 103
72 64 66 73 61 60 61 54 65 77 83 90 121 138 150 160 162 130 88 105 133 165 153 112 95 78 57 86 89 112 142 177 159 156 145 130 121 124 118 104 100 108 109
86 87 85 69 65 56 51 47 50 53 61 84 103 144 146 123 149 201 186 151 112 151 135 172 155 110 80 131 136 170 190 175 166 154 152 138 148 123 95 89 92 80 91
86 86 88 84 83 81 62 42 37 55 60 56 61 97 125 161 161 164 191 212 213 193 238 234 201 178 173 173 186 206 185 188 173 165 187 173 127 107 104 100 97 117 106
90 84 82 87 77 72 68 78 79 67 92 102 67 43 56 59 50 36 105 133 120 154 314 292 233 209 185 183 201 198 188 183 205 196 187 146 120 104 115 115 122 130 122
89 74 72 66 65 58 54 41 39 33 97 102 100 83 49 27 41 63 72 91 89 125 287 274 252 240 208 198 198 214 216 186 198 175 152 134 133 119 110 130 126 130 136
55 50 72 63 46 41 54 63 49 23 10 77 104 100 93 51 39 60 97 94 158 136 261 247 249 227 214 180 184 201 212 211 207 169 147 137 136 129 145 135 132 136 167
65 62 53 50 55 31 27 38 54 24 -3 12 48 110 72 74 72 23 44 130 172 176 202 204 188 205 207 205 206 210 216 218 198 167 163 168 130 134 135 137 140 124 144
90 63 57 56 50 40 46 52 52 44 7 -3 19 51 72 58 25 72 91 129 146 165 164 177 188 204 215 218 218 195 217 187 188 171 166 166 132 126 139 154 155 155 156
120 97 50 60 61 37 32 49 60 62 49 -11 16 32 97 64 84 40 64 122 141 149 167 181 217 227 207 203 198 196 174 179 162 168 157 151 147 136 140 153 159 159 153
124 94 71 54 29 28 37 44 56 60 59 18 5 20 71 63 49 58 60 67 130 149 168 167 182 181 189 178 174 169 159 158 164 186 166 171 159 164 164 159 160 168 151
114 88 73 60 43 24 36 52 62 56 47 30 -1 3 34 47 39 54 57 66 86 136 153 162 162 147 151 154 168 164 155 145 159 185 171 168 173 178 169 147 151 145 165
73 70 63 40 43 36 50 68 63 31 31 24 6 7 28 42 57 62 45 71 91 119 135 156 149 127 133 136 140 130 117 125 163 159 164 185 193 159 162 118 127 144 164
65 56 70 87 63 53 48 46 32 29 26 26 20 4 28 41 56 65 46 71 100 128 115 120 129 102 108 99 94 91 87 110 144 148 143 141 131 139 133 141 152 180 193
37 43 90 74 22 -4 5 19 34 31 23 24 18 19 40 55 57 59 61 58 87 103 93 93 98 91 87 80 82 79 70 84 101 93 129 134 133 129 146 154 166 193 195

GFSGL_con_3kmhel_090.txt.gz
Helicity
69 65 73 83 89 103 94 95 81 65 74 30 21 54 104 118 177 206 192 190 182 221 200 174 162 139 125 112 119 130 128 143 130 169 203 215 196 168 145 147 134 136 147
99 89 90 93 93 90 94 90 89 90 84 67 63 51 92 150 186 218 232 208 188 157 166 168 132 128 128 131 145 143 148 155 170 152 182 190 184 167 129 117 127 135 140
77 82 75 80 84 86 88 88 92 86 86 94 101 93 101 121 158 185 180 202 189 184 179 168 157 176 167 172 160 149 143 148 156 167 201 202 187 172 163 149 138 141 147
77 71 66 69 67 71 79 83 83 86 93 95 90 95 99 112 133 162 195 197 198 192 195 197 183 185 183 176 180 175 175 164 172 176 171 185 177 164 177 171 167 154 148
57 56 57 64 75 86 92 91 89 92 95 106 109 118 131 130 147 166 187 195 223 231 222 208 198 199 199 194 186 166 172 169 174 160 157 174 185 170 154 157 157 162 138
62 72 80 88 93 99 108 108 107 96 99 106 111 116 126 142 134 157 188 210 213 229 218 204 215 212 210 215 246 252 186 189 178 177 185 192 175 161 173 175 186 178 152
72 79 85 85 93 102 105 114 126 125 109 100 106 106 115 131 113 119 139 193 202 204 202 205 207 202 186 197 209 220 206 193 160 146 149 145 140 147 196 182 167 171 149
99 109 103 99 89 86 88 92 103 113 125 108 98 107 114 116 106 114 129 189 219 219 216 214 212 188 180 192 193 186 175 153 138 131 120 106 117 139 165 157 160 166 167
109 113 107 113 121 118 112 113 107 99 108 114 112 110 111 120 99 108 153 223 241 238 231 222 213 197 147 127 167 147 140 141 147 133 134 153 137 122 150 188 176 194 152
94 77 59 52 55 78 104 121 115 115 95 97 101 107 109 118 109 113 157 229 211 205 199 183 134 163 111 90 146 132 139 127 133 145 154 146 159 149 139 123 136 142 138
73 56 55 46 36 32 46 60 78 93 95 101 91 99 113 124 135 101 119 198 203 196 178 163 157 99 86 63 93 136 119 135 111 128 136 153 160 144 161 146 104 107 129
100 95 93 84 63 60 49 58 69 67 88 79 88 93 91 126 99 94 91 119 152 193 166 164 156 94 84 65 80 85 92 131 170 147 145 136 140 150 145 125 119 100 103
113 97 86 91 93 84 79 68 53 58 65 71 63 75 92 119 123 77 66 69 105 160 175 164 129 96 76 81 84 82 117 192 183 172 139 138 133 167 179 149 145 130 110
122 118 123 123 110 95 89 70 55 53 48 47 61 60 53 75 106 137 118 83 77 136 135 138 124 140 133 127 132 134 200 180 191 166 162 166 218 223 174 136 118 102 122
131 128 122 119 108 99 83 74 67 46 48 66 50 53 52 39 69 60 94 120 132 190 215 208 235 234 201 206 189 204 219 179 182 195 202 212 202 200 173 125 116 102 102
141 135 124 113 99 89 76 60 48 48 30 46 58 48 47 59 61 22 3 54 88 129 241 251 218 245 234 214 224 214 216 174 201 208 220 231 216 204 174 139 131 124 102
138 129 118 99 97 73 62 56 38 43 22 5 43 68 83 112 113 79 10 -8 29 59 183 228 250 251 225 236 231 226 218 198 221 226 244 232 253 212 145 148 124 122 106
131 99 115 107 84 68 64 58 50 41 37 43 11 40 71 102 153 116 83 7 24 60 117 198 233 235 238 254 241 219 216 225 225 247 243 233 221 207 195 139 116 114 123
137 135 128 104 79 51 42 48 43 43 37 32 46 14 52 88 148 152 145 44 61 80 116 173 205 222 239 245 244 252 208 213 217 244 240 232 218 211 190 146 136 91 110
127 90 86 115 98 73 56 46 27 29 51 38 35 33 18 64 65 97 102 96 66 84 126 161 194 231 251 243 242 226 193 190 225 237 231 229 211 201 202 180 142 122 113
107 116 82 110 104 80 65 52 35 24 42 31 34 25 34 42 52 58 95 98 82 74 107 128 154 211 247 217 210 209 188 194 204 207 202 209 218 215 201 164 130 136 144
89 95 127 113 101 82 67 66 55 49 47 26 30 33 29 41 38 27 66 99 88 63 76 125 160 200 244 232 217 199 192 192 201 196 170 186 212 205 189 190 152 133 130
76 87 122 99 102 72 53 55 53 45 37 28 35 44 46 37 52 32 41 81 77 80 83 109 174 213 211 186 199 203 186 187 189 178 164 191 218 192 194 172 158 151 141
38 66 68 81 95 87 83 66 44 14 18 20 25 30 24 38 49 32 34 56 65 88 55 110 130 168 190 188 184 181 173 168 170 159 176 202 186 173 215 192 181 165 147
28 49 90 71 87 92 82 40 27 25 23 17 15 22 27 32 41 20 32 57 72 84 60 74 118 151 168 165 152 144 135 129 144 145 178 177 180 176 151 137 150 156 116
79 79 75 86 71 71 74 -4 -11 2 2 12 33 40 45 55 44 32 59 67 93 90 46 61 108 127 129 114 98 99 91 87 101 128 149 152 159 149 147 138 127 124 137

GFSGL_con_3kmhel_093.txt.gz
Helicity
66 41 33 46 51 41 28 21 22 52 82 41 23 74 100 119 88 90 137 157 108 95 90 53 87 138 162 146 182 191 140 149 163 193 198 202 215 202 169 143 116 125 119
39 38 58 71 80 82 76 72 61 53 54 55 50 53 59 63 74 74 94 131 153 156 138 144 137 157 136 162 157 128 133 152 174 180 215 222 208 172 158 121 109 126 125
50 40 47 59 69 79 85 85 79 71 65 66 61 64 64 85 93 105 118 128 143 171 170 150 167 148 140 157 133 127 146 172 179 199 215 233 216 216 178 139 116 118 130
45 43 46 47 49 55 59 73 83 83 79 76 81 86 89 74 79 97 121 154 172 169 177 164 157 164 174 195 188 156 178 192 215 219 208 211 200 188 182 153 130 133 122
44 39 37 36 47 54 62 73 79 82 90 86 89 96 96 106 104 95 109 126 145 151 142 137 143 156 179 206 217 194 209 220 226 216 225 241 226 216 169 127 127 138 125
63 72 73 71 74 79 81 81 81 97 107 110 110 103 107 112 125 118 129 147 152 164 177 163 178 189 193 183 168 193 204 236 231 250 242 215 199 171 154 150 168 166 145
58 60 67 71 78 86 86 90 97 101 104 111 124 124 113 112 109 112 118 160 185 189 194 216 217 209 207 230 213 210 185 178 219 239 221 193 181 145 165 167 168 168 153
73 88 98 110 118 117 108 90 81 91 103 117 124 126 124 126 112 100 108 147 165 175 184 190 207 214 210 232 257 261 262 255 231 210 178 143 142 128 147 154 165 177 185
80 101 116 121 126 139 140 120 97 90 96 109 121 139 142 134 133 110 124 164 167 162 180 192 192 175 146 153 231 243 241 237 213 181 154 130 103 111 143 205 206 215 172
103 93 71 45 41 56 75 100 106 115 95 81 95 100 110 128 143 153 137 192 191 179 188 204 150 179 139 135 223 226 216 212 234 233 195 166 146 118 110 153 177 179 156
86 74 64 56 62 38 20 45 56 92 116 106 130 123 119 103 105 113 103 189 176 187 190 190 182 108 110 109 138 178 178 190 162 181 176 179 174 166 165 139 130 144 157
160 152 132 117 116 109 100 96 105 83 86 115 115 119 104 110 111 115 119 82 120 167 172 169 150 93 108 106 121 102 107 149 211 202 198 184 173 151 141 158 161 140 115
157 144 145 149 140 129 128 116 116 111 111 97 104 98 81 77 83 121 135 141 95 160 144 124 90 83 94 128 97 95 94 187 195 196 183 170 154 154 202 210 211 176 156
156 148 143 143 128 121 118 103 94 92 93 83 84 106 97 86 72 76 73 105 126 95 116 116 91 95 116 154 153 149 191 201 195 179 168 180 207 219 199 184 176 178 161
156 155 150 145 134 123 103 88 81 77 66 73 68 70 86 97 91 127 132 71 79 96 114 159 140 164 176 181 189 206 239 221 194 197 219 212 204 207 193 186 190 200 151
154 147 150 152 140 120 107 77 50 49 49 49 38 38 44 53 100 139 154 167 86 85 94 145 142 185 159 189 186 205 229 197 196 209 227 232 216 211 215 195 203 192 171
157 147 135 112 139 122 103 72 61 57 49 23 30 32 29 44 58 90 132 143 123 58 54 108 128 193 217 225 213 218 221 229 238 235 234 236 220 220 194 202 185 217 177
132 100 126 128 113 106 87 79 67 59 57 82 55 26 26 49 65 80 110 157 80 85 79 67 122 156 203 205 246 253 239 246 242 213 202 233 243 216 216 189 191 189 176
103 99 97 109 97 78 87 74 62 60 59 54 58 63 28 44 68 71 101 53 70 84 112 95 99 150 199 214 230 225 244 240 228 233 204 225 242 233 210 181 177 150 167
65 34 42 64 74 111 107 85 61 54 42 39 36 43 44 34 48 56 64 64 59 78 97 104 118 131 164 188 239 248 240 222 220 228 218 201 224 239 194 179 173 178 170
85 65 17 33 47 92 97 65 78 65 48 37 29 31 31 36 33 38 45 65 60 60 84 97 107 139 171 195 212 217 210 212 222 221 232 211 214 201 180 183 183 190 211
76 102 90 73 64 89 67 86 92 78 41 34 36 35 27 23 25 33 30 59 63 60 89 99 99 128 151 180 193 186 197 193 200 240 253 228 194 184 201 191 194 205 225
77 48 34 73 75 38 47 65 79 66 45 29 20 27 33 31 13 5 39 48 53 53 72 81 81 88 127 153 179 203 210 181 186 221 223 228 214 188 209 189 198 211 187
75 61 52 47 55 70 73 82 107 76 27 5 2 3 10 10 2 26 37 47 49 45 64 67 78 86 112 129 175 187 177 166 194 211 212 211 201 150 183 181 192 194 213
89 99 116 105 97 88 77 67 54 51 22 -6 -17 -8 5 16 29 44 62 59 44 41 66 59 70 77 92 99 141 151 152 163 176 185 198 182 172 169 167 163 170 161 166
88 70 61 64 64 49 49 53 61 73 -48 -30 -14 -8 14 46 62 64 75 64 43 47 64 69 73 61 53 71 103 132 133 133 146 149 162 158 160 143 138 119 149 162 160

GFSGL_con_3kmhel_096.txt.gz
Helicity
23 21 -5 21 46 1 -10 -6 -12 -1 12 41 36 27 25 45 89 106 96 113 113 83 116 101 107 137 125 93 69 47 39 89 75 109 148 176 186 185 181 174 156 133 134
32 48 31 30 32 35 42 50 52 44 46 44 43 44 45 40 42 63 81 102 117 141 151 137 111 129 100 116 115 101 162 182 193 192 208 186 188 181 186 176 152 128 115
38 39 39 39 38 44 46 53 57 63 66 72 76 75 81 88 85 77 72 93 107 113 120 159 136 161 126 143 144 197 207 228 197 196 196 228 245 239 240 204 167 135 115
14 11 26 34 41 50 52 52 59 61 65 73 67 67 83 99 104 105 109 110 120 140 166 168 159 204 149 183 247 201 240 179 188 227 245 260 244 236 249 226 187 153 122
-3 10 16 4 9 25 39 57 73 82 82 83 86 102 102 89 92 113 113 116 117 110 132 155 175 169 158 191 227 217 227 237 271 278 283 290 276 288 256 200 181 165 131
32 32 30 50 58 48 34 25 23 38 60 93 127 136 138 129 147 138 116 123 127 125 126 122 120 123 131 126 143 188 214 268 268 294 293 261 247 254 269 245 221 192 153
50 54 50 56 54 53 56 52 60 53 38 51 79 103 143 153 180 191 178 138 135 148 157 173 158 147 146 173 175 170 194 196 256 240 237 251 223 240 236 237 236 203 155
49 58 70 79 90 106 108 97 82 59 54 58 67 78 96 122 177 190 205 184 165 148 153 167 201 192 183 193 233 226 199 202 209 190 186 221 200 193 216 209 182 196 202
71 89 103 108 114 120 111 94 87 69 78 77 71 66 66 90 162 190 191 168 182 181 157 155 164 202 185 187 228 209 240 257 239 214 174 163 151 160 209 271 252 236 202
83 72 75 84 91 114 92 108 96 88 50 12 32 52 68 86 134 150 165 141 176 184 195 176 138 162 158 171 234 240 243 233 256 288 259 214 185 166 127 179 217 212 222
126 139 150 124 89 52 39 22 1 11 47 70 61 68 79 75 114 188 192 144 141 164 173 187 177 116 112 128 161 195 159 220 207 248 255 253 235 208 197 166 161 211 195
155 156 151 147 155 147 141 140 132 110 84 64 76 96 98 111 129 138 176 179 169 129 196 174 162 116 111 113 146 145 154 180 287 266 246 232 220 201 186 172 160 166 162
208 192 170 146 126 136 151 126 121 121 117 110 103 90 103 125 118 167 186 191 182 123 107 129 128 77 54 105 112 122 120 238 262 277 239 213 202 188 223 248 242 226 220
215 204 193 189 162 153 174 176 151 119 102 89 79 68 83 86 97 91 115 134 213 138 113 92 110 81 41 82 159 183 219 241 234 232 234 211 234 252 243 227 216 218 218
244 222 196 177 171 168 169 161 135 110 92 94 85 73 64 78 92 106 121 118 121 172 170 85 107 140 119 116 194 228 236 225 215 219 240 253 244 234 220 229 225 228 191
192 170 171 166 157 155 167 146 92 61 55 53 53 44 43 47 59 82 99 124 143 157 167 85 94 113 111 127 182 194 203 190 205 229 238 255 262 241 236 237 232 214 182
131 119 124 119 128 136 144 142 94 55 39 52 46 27 21 30 41 63 67 85 112 152 91 95 103 108 131 130 138 184 207 236 241 228 237 244 251 258 218 248 231 220 202
111 69 110 120 125 110 117 121 102 75 58 55 60 46 29 28 43 59 71 66 49 74 76 82 104 126 117 169 153 165 172 229 242 239 196 203 184 188 239 245 233 220 215
104 106 102 99 99 89 84 82 98 119 94 68 59 45 26 3 37 57 69 44 32 40 62 93 67 105 131 153 159 225 196 206 237 228 204 236 249 240 230 266 249 176 193
95 52 61 90 91 79 69 71 134 110 73 71 54 33 36 35 30 37 50 50 43 38 27 65 90 78 129 128 153 157 167 196 249 255 215 237 218 208 200 196 206 203 181
96 87 52 77 79 109 96 83 94 74 64 79 63 28 2 17 19 25 37 52 49 43 43 51 79 104 83 107 141 153 180 175 197 208 209 210 214 204 184 190 211 218 226
115 115 98 89 69 58 72 89 78 62 62 79 74 49 10 6 9 17 19 25 34 42 47 42 50 62 69 102 120 152 166 166 165 182 197 203 194 204 214 198 198 206 208
151 123 102 102 108 72 78 76 80 75 70 80 84 36 11 4 3 7 16 17 18 29 43 35 27 52 74 71 107 126 148 147 148 179 178 175 199 223 222 217 195 196 207
99 87 87 88 86 81 88 90 84 59 67 64 57 43 16 7 7 11 20 26 30 43 41 34 28 37 64 70 88 112 137 159 155 168 175 191 206 213 246 200 171 187 213
106 91 95 92 83 80 73 65 59 51 51 56 37 -17 -21 -23 -5 12 31 47 52 60 52 36 34 53 71 92 69 74 85 109 145 154 185 187 206 229 245 224 204 193 211
98 93 104 98 84 81 77 71 67 58 60 1 -59 -43 -23 -11 -1 16 32 47 62 64 51 29 40 66 75 70 54 50 47 83 114 147 176 192 200 211 216 188 174 185 169

GFSGL_con_3kmhel_099.txt.gz
Helicity
122 71 57 78 89 76 -9 -1 -23 -19 -4 13 70 54 62 88 65 56 30 84 91 110 126 169 219 222 177 181 169 291 264 232 312 348 399 210 259 172 179 152 154 154 145
114 53 33 30 37 41 30 24 32 26 28 38 42 41 39 35 42 44 63 74 124 111 131 142 155 144 145 151 152 145 181 114 153 177 205 214 188 180 183 178 153 149 124
27 26 23 31 45 48 34 36 28 42 44 48 55 58 70 69 66 58 68 65 74 68 72 93 72 120 114 160 136 123 106 136 153 173 221 222 252 217 249 211 187 170 116
9 8 18 18 18 18 20 29 27 27 37 53 71 78 81 78 86 99 108 95 65 60 89 95 105 129 145 163 182 159 187 190 240 327 392 314 299 295 257 244 237 192 154
16 22 14 4 18 32 44 43 38 26 31 30 49 74 93 104 101 120 114 119 120 104 85 98 119 135 141 147 198 162 247 286 315 308 373 393 272 293 236 270 230 180 125
13 16 12 23 19 9 16 25 46 65 83 97 105 92 101 105 147 178 169 131 132 120 107 111 114 117 128 131 153 178 206 251 275 364 307 242 253 316 318 274 239 203 157
22 28 31 31 47 51 40 19 21 14 22 56 80 93 119 137 195 222 203 134 134 153 146 122 112 129 134 145 127 145 165 166 195 325 327 310 310 259 252 270 267 267 195
43 36 39 45 51 56 67 73 85 77 73 49 40 42 71 104 155 187 224 165 160 137 142 153 147 134 135 151 169 185 206 198 225 233 286 292 286 225 205 226 206 216 257
35 30 33 37 41 37 44 48 34 19 51 58 58 56 46 55 84 126 171 138 124 147 146 145 151 152 145 124 168 189 219 254 227 180 216 143 328 139 265 331 302 285 252
22 26 26 28 46 44 36 25 -9 -8 2 14 10 -5 0 -22 40 103 104 81 108 100 115 106 141 143 150 112 161 192 209 249 259 284 233 258 210 172 151 231 295 275 301
69 91 112 118 116 119 129 137 122 107 75 47 14 1 3 4 49 144 179 156 130 114 109 113 110 98 124 140 114 190 190 203 221 250 285 276 266 254 250 251 223 272 271
109 97 93 94 93 99 90 116 129 129 123 109 95 71 50 48 70 102 175 207 200 178 150 135 103 91 83 89 98 126 134 139 234 293 301 292 305 305 260 255 247 248 224
137 132 132 130 125 121 129 124 141 150 147 126 104 87 81 88 87 71 111 170 190 176 171 176 179 115 92 83 48 95 103 209 221 239 210 234 285 280 305 336 317 273 256
140 133 122 123 100 108 120 125 142 156 176 150 126 99 66 63 87 70 61 81 119 121 126 111 170 169 77 98 64 83 199 225 265 232 233 269 296 304 310 301 292 273 272
102 99 100 103 104 111 117 129 148 148 157 140 113 100 81 66 57 52 69 60 65 84 122 98 89 100 88 115 138 79 182 234 243 236 279 289 281 285 287 273 267 277 261
115 114 109 116 125 132 134 125 92 82 72 64 65 83 85 54 24 35 48 59 68 87 79 89 97 91 100 77 111 121 146 213 252 220 217 239 279 260 270 271 261 251 247
111 110 117 116 117 118 119 123 123 92 59 65 56 74 74 53 30 16 21 41 48 60 41 61 74 73 98 93 95 145 135 154 249 253 206 213 260 244 243 251 242 224 224
105 82 115 118 128 129 127 126 126 120 101 93 98 83 53 49 28 3 3 22 -3 18 29 30 57 65 88 105 88 140 206 194 200 242 275 239 231 233 237 221 223 229 196
104 114 111 120 123 106 110 105 103 88 87 115 100 41 37 36 40 11 11 -19 -20 -4 17 24 33 58 86 85 118 142 145 244 202 211 195 220 248 230 225 227 209 153 183
101 63 84 114 123 124 120 103 95 98 95 108 81 80 72 61 36 14 2 -2 -9 -8 13 15 17 40 65 64 78 121 147 123 158 216 173 205 224 244 242 223 217 210 204
117 123 73 114 125 123 118 108 101 91 93 77 64 73 30 57 51 -1 2 9 12 5 0 12 19 36 41 38 33 63 100 117 135 167 213 194 201 219 210 196 207 194 220
128 139 132 131 124 115 115 120 107 89 83 73 62 57 20 61 46 -2 -13 -6 6 13 4 8 10 19 21 29 35 58 70 79 105 124 153 199 203 205 202 195 201 170 164
142 132 119 115 115 92 115 108 98 94 92 79 65 58 56 50 45 -13 -11 -3 3 10 0 10 10 21 17 1 27 58 74 88 101 156 166 189 171 182 187 205 191 184 170
130 117 117 120 122 111 110 99 89 59 57 60 54 50 48 55 41 -20 -5 3 6 17 20 26 16 23 27 12 45 69 75 85 105 131 154 159 151 148 171 186 193 170 170
118 126 126 127 121 119 101 86 72 62 61 52 57 47 47 -25 -42 -22 -5 6 14 25 32 37 26 34 33 55 85 102 88 72 59 90 137 146 139 119 137 168 178 174 171
127 131 137 143 146 131 111 88 70 59 52 35 13 2 -31 -27 -17 -6 8 21 27 36 47 50 36 40 40 53 85 108 68 52 39 66 134 151 152 145 156 183 211 198 199

GFSGL_con_3kmhel_102.txt.gz
Helicity
172 168 222 166 147 93 111 109 18 56 48 -0 11 46 75 89 97 110 51 47 73 110 198 219 190 173 45 166 169 132 158 219 206 242 566 532 622 569 546 413 284 206 144
174 226 122 110 55 37 46 79 56 22 47 44 27 26 32 37 40 36 35 76 37 69 -9 10 96 168 125 165 205 208 221 160 228 343 402 322 320 399 331 222 216 169 139
158 67 36 14 29 31 28 42 45 41 33 40 47 49 49 53 57 60 66 56 35 55 54 76 76 121 114 127 128 153 209 208 204 276 269 240 250 170 205 249 203 205 164
-17 -4 2 -4 -4 -10 -11 1 -13 -11 5 33 39 48 58 60 65 78 66 54 61 63 60 57 57 44 102 143 118 154 174 222 208 243 235 254 241 219 275 297 267 253 223
-10 -1 1 -6 -10 -7 -2 4 -3 -0 14 27 38 51 58 62 79 116 95 79 77 86 87 73 85 115 119 96 112 128 143 184 256 252 296 343 397 492 431 379 316 286 212
-17 -15 -18 -20 -25 -22 -18 -12 -17 -6 9 14 25 20 38 55 114 158 138 100 100 94 87 104 111 98 106 133 125 136 128 182 194 245 355 408 328 305 337 540 411 348 229
2 1 -4 -9 -5 -3 -6 -9 -0 2 9 16 19 24 47 76 138 148 144 102 106 102 110 105 92 115 126 107 117 122 107 131 173 231 210 292 354 444 507 387 355 320 271
51 47 45 43 42 42 40 37 38 32 28 15 10 11 21 68 145 174 185 127 134 127 123 123 114 93 102 126 123 119 125 136 159 201 210 207 260 387 474 428 248 301 266
61 47 42 32 16 10 7 -1 -13 -21 -24 -33 -19 -2 4 1 51 75 110 115 133 152 158 138 130 111 102 92 97 121 131 151 189 149 190 210 264 197 288 462 414 313 322
19 12 12 7 9 19 18 21 24 31 42 48 44 27 14 28 23 26 41 -11 -15 49 121 174 179 205 168 138 108 99 119 128 174 227 233 201 150 181 230 221 398 274 328
28 38 45 46 47 37 46 67 62 76 91 96 103 98 88 77 61 45 79 67 40 31 68 99 145 203 238 224 176 129 122 114 120 187 249 288 285 251 264 248 279 208 324
79 71 63 57 56 63 61 64 69 81 88 91 104 103 108 109 97 70 82 95 126 121 107 121 143 193 220 207 176 131 91 120 178 193 209 263 305 313 291 276 342 279 211
82 74 73 69 75 78 87 93 95 91 102 102 112 119 111 116 109 61 81 93 102 121 120 118 150 136 105 108 128 118 129 173 187 214 236 244 321 326 354 384 387 385 388
75 69 76 81 72 77 82 89 90 89 106 100 112 119 121 115 104 104 86 71 74 72 72 84 90 111 81 68 113 90 118 168 156 138 199 227 271 300 388 420 437 403 400
64 59 65 72 73 78 80 78 69 75 93 92 110 126 118 116 114 65 56 65 55 38 54 50 56 65 81 57 66 67 86 100 146 129 224 271 244 266 332 335 320 320 336
60 60 65 70 78 76 75 79 51 37 38 61 57 77 116 79 66 58 44 33 37 31 34 21 28 42 50 67 73 123 61 81 134 170 191 201 200 279 309 347 369 303 331
55 58 68 72 70 76 77 84 93 86 57 61 67 73 58 80 65 42 34 28 35 30 19 14 13 12 32 48 67 122 107 111 177 208 132 131 186 232 276 291 311 314 319
54 42 76 81 82 86 87 100 110 109 100 86 64 70 54 46 39 27 31 49 52 24 7 -3 -3 12 20 23 42 84 79 103 168 207 215 200 188 228 257 277 257 255 303
70 76 76 81 95 84 105 110 105 107 112 104 91 70 62 45 39 37 37 79 40 6 -11 -15 4 4 7 15 36 62 111 111 127 204 200 197 157 204 237 227 253 185 244
91 65 83 94 100 102 110 116 115 121 119 110 109 92 78 65 80 92 90 73 41 2 -27 -17 -4 -5 10 17 36 31 61 105 42 83 148 185 216 169 181 204 236 227 218
111 109 69 111 109 115 129 125 137 140 128 116 109 91 28 65 70 66 53 43 17 -11 -25 -13 -5 -10 5 11 18 30 25 51 48 22 48 114 152 148 150 178 214 220 260
117 125 116 121 121 131 135 140 134 126 120 112 97 87 37 59 62 60 47 40 18 -9 -15 -11 -2 -12 -4 -3 14 9 10 16 36 41 66 97 148 138 163 185 192 217 237
148 126 135 127 134 119 146 153 141 129 109 97 97 86 70 53 43 40 48 51 -6 -17 -18 -14 -0 2 3 8 11 9 -0 13 38 33 71 113 139 140 167 171 187 206 211
145 120 122 131 140 141 161 147 139 101 90 81 77 73 74 54 34 -11 -47 -44 -22 -14 -10 -5 4 12 25 16 15 19 15 36 35 26 42 95 130 106 152 161 163 159 198
108 113 144 146 151 162 161 153 142 127 115 92 80 62 40 37 9 -9 -16 -22 -10 -4 8 21 21 30 45 48 49 58 78 104 77 33 41 87 106 106 124 130 136 164 173
107 125 139 134 150 158 172 171 156 135 119 102 85 69 62 56 42 33 23 19 24 34 50 53 43 54 52 43 39 56 100 101 56 24 23 54 60 105 115 120 126 140 139

GFSGL_con_3kmhel_105.txt.gz
Helicity
224 244 252 186 152 129 65 57 94 146 85 84 79 62 77 104 100 124 99 103 105 70 38 117 248 271 296 313 200 148 143 136 135 122 207 223 266 261 395 464 517 626 546
213 104 151 203 183 196 186 111 60 101 119 29 24 51 43 33 21 48 61 32 34 34 95 112 72 73 166 198 244 280 220 137 6 116 322 277 256 270 358 444 652 640 505
78 119 115 95 85 70 54 50 59 48 44 55 61 65 81 74 63 71 63 57 45 31 30 17 43 84 50 99 142 168 162 131 184 242 347 289 332 328 381 439 434 404 350
47 33 4 -11 -0 5 13 17 16 17 30 39 48 44 46 62 64 82 96 86 84 86 72 66 78 67 53 42 94 79 155 170 171 216 280 309 281 288 282 305 271 274 287
-9 -17 -19 -10 -0 -6 -14 -6 -8 -12 -4 -2 22 45 50 57 55 79 82 90 100 115 117 107 97 105 111 110 103 105 113 84 193 208 270 319 350 328 240 231 211 264 292
-1 -1 -0 -4 -4 -8 -9 -18 -21 -17 -6 -4 -2 4 32 44 89 126 107 77 89 104 104 129 139 133 135 137 120 108 141 155 149 201 268 278 327 313 329 378 394 442 353
-7 -16 -20 -25 -27 -24 -16 -0 20 28 36 41 40 35 51 67 101 127 131 101 108 103 92 112 113 102 142 155 163 132 116 110 131 168 212 249 247 308 407 453 512 440 323
29 32 39 41 39 35 29 18 9 -3 -11 -18 -17 -11 -3 6 34 65 89 66 76 100 119 144 139 134 137 169 160 159 156 136 125 129 139 143 197 227 308 386 458 434 598
53 38 30 23 15 11 9 4 2 -5 2 1 -8 -13 -17 -26 -23 -13 -21 -28 -13 16 87 134 152 146 157 190 185 167 133 164 152 145 105 129 123 189 268 378 446 563 574
49 33 27 29 32 30 27 30 39 41 40 50 50 47 34 41 25 27 33 21 8 -2 7 49 96 141 239 252 261 208 178 128 123 195 177 137 125 190 213 272 420 405 554
35 31 30 32 29 23 39 37 47 56 60 71 79 78 79 84 83 102 115 104 97 88 78 62 68 154 202 223 255 252 238 177 170 127 155 187 187 214 256 265 302 362 467
49 57 61 59 58 63 63 65 58 53 51 50 55 66 73 73 61 71 70 78 84 95 96 84 84 114 178 191 180 143 139 166 171 200 185 160 166 220 256 290 286 274 349
80 81 77 67 62 53 56 65 56 58 50 46 45 49 59 75 79 94 83 87 63 76 68 58 80 97 110 130 114 94 75 73 85 134 193 199 175 165 256 373 437 418 475
73 72 75 70 71 70 64 54 41 43 49 51 61 75 78 77 58 76 68 81 52 65 59 72 57 55 65 58 86 59 52 84 88 91 118 131 178 224 264 364 412 482 467
88 78 67 55 50 56 49 46 42 42 37 42 49 58 59 63 66 36 37 64 61 48 45 62 50 47 55 62 71 60 60 68 121 102 127 146 168 173 257 283 335 336 448
95 81 59 45 51 51 46 52 38 22 27 28 36 67 90 51 21 24 27 19 26 8 66 68 50 44 39 37 43 38 50 106 109 110 100 140 153 163 205 254 267 309 324
80 59 46 46 41 43 50 56 62 63 39 47 49 66 83 80 74 77 51 41 26 41 83 57 61 43 36 32 17 9 35 62 121 116 117 157 159 179 171 203 261 238 270
53 28 49 49 51 54 58 63 71 72 79 84 64 54 56 73 78 59 40 45 78 76 75 54 50 46 33 24 11 1 44 47 102 103 122 141 163 208 171 179 220 299 288
53 57 62 58 64 51 73 73 77 86 100 119 108 73 69 47 50 48 45 87 82 80 59 53 41 26 9 5 -7 -0 31 51 48 98 86 91 155 204 169 146 173 220 245
63 41 53 70 79 80 75 84 92 107 119 126 120 98 85 74 107 76 67 65 69 68 58 51 19 -26 -27 -22 -16 -4 10 30 2 80 73 52 56 94 124 152 163 185 207
68 64 48 87 82 91 96 103 116 133 131 122 117 96 29 59 56 44 42 44 47 46 50 35 -22 -40 -38 -30 -19 -10 4 22 49 40 33 -1 36 47 77 122 145 152 209
75 82 80 81 92 93 109 130 146 141 126 114 100 80 23 68 78 65 52 47 48 48 51 -32 -39 -32 -22 -18 -8 1 12 28 16 16 31 46 25 9 55 113 111 143 204
97 92 91 95 96 101 140 139 148 142 132 116 103 85 70 77 71 71 51 26 38 42 -41 -42 -35 -20 -13 -5 7 12 21 34 25 46 56 47 35 36 52 82 80 129 163
99 89 83 95 110 129 148 140 155 123 118 115 102 92 87 84 72 51 32 31 8 -15 -16 -15 -12 10 16 13 14 27 32 33 25 53 42 12 23 46 76 82 91 103 140
84 82 87 97 117 134 132 127 136 152 141 131 118 116 104 89 87 83 71 53 37 31 34 24 29 50 44 44 28 48 41 72 79 84 34 5 17 55 66 89 106 108 129
79 86 97 104 120 118 127 122 123 140 162 156 143 134 116 108 113 108 99 90 83 73 78 76 79 81 84 71 58 42 52 76 85 74 9 -10 26 58 66 75 88 114 117

GFSGL_con_3kmhel_108.txt.gz
Helicity
184 171 164 168 182 217 112 107 127 102 98 185 119 116 144 111 130 160 159 131 170 152 89 130 110 82 74 279 263 212 225 246 228 208 233 213 198 187 232 204 235 286 282
126 190 143 201 282 142 156 156 146 102 112 118 135 151 130 89 62 68 89 73 89 103 70 79 85 145 94 101 80 220 327 283 232 189 203 263 247 227 199 233 217 308 311
70 65 65 86 111 121 100 71 48 45 54 71 38 35 39 52 64 66 69 85 86 71 51 49 45 21 19 32 69 99 58 137 139 159 149 380 344 279 287 228 332 331 376
30 50 51 52 39 24 23 25 27 34 36 44 41 49 53 57 54 82 85 82 90 95 100 86 85 93 81 70 49 35 40 75 126 115 138 275 219 198 208 251 301 373 436
17 16 13 16 2 -3 5 8 14 23 23 20 28 39 47 51 46 67 71 67 76 78 87 98 102 127 126 124 96 88 95 83 95 117 179 239 258 213 261 269 244 336 407
21 17 18 14 3 6 16 16 16 16 21 14 20 23 29 29 53 70 74 81 103 112 105 101 95 108 130 154 166 174 146 126 133 96 146 94 103 184 250 289 339 359 307
28 27 20 11 8 10 9 12 15 16 20 31 38 40 48 65 93 107 112 89 89 95 105 109 112 113 113 120 155 186 196 202 170 145 138 156 154 172 219 328 362 350 284
24 26 34 40 42 43 42 40 35 30 26 22 13 2 3 -4 -14 -3 26 35 51 67 82 97 119 141 144 168 158 160 164 185 212 196 186 158 138 171 179 213 272 299 452
64 68 66 58 45 40 35 37 36 32 24 18 11 8 -9 -14 -33 -40 -35 -42 -63 -58 -25 40 62 69 143 210 205 191 191 189 196 220 224 183 187 169 158 227 252 353 438
72 68 62 56 45 39 41 44 42 45 52 56 60 50 44 40 40 50 66 47 42 40 28 23 -10 41 94 102 91 106 123 176 176 184 223 227 214 199 157 187 246 326 285
89 72 55 45 36 32 36 36 38 36 43 53 64 68 56 60 58 80 96 88 90 98 100 97 81 85 88 123 156 113 80 95 147 171 151 155 218 233 218 173 172 309 246
67 40 26 20 33 41 51 58 65 72 76 85 84 85 92 94 90 95 106 106 93 99 92 98 97 100 112 113 112 129 162 164 128 121 151 151 140 212 214 214 177 221 225
48 42 51 55 56 52 53 54 68 85 84 80 77 69 62 70 68 60 63 69 55 70 71 63 35 41 50 66 71 86 105 110 151 141 171 205 134 118 147 184 286 347 272
47 52 59 62 65 66 62 60 70 74 79 68 61 61 56 52 51 65 67 70 61 64 73 70 54 31 38 50 61 55 69 78 102 149 123 144 102 121 165 187 229 315 359
55 60 64 67 69 65 66 73 68 51 46 45 49 51 52 57 56 49 47 62 64 59 60 61 66 62 65 61 60 64 64 72 75 93 85 115 77 70 111 95 142 162 270
71 79 78 67 68 61 61 57 42 29 24 28 21 45 69 40 22 29 39 56 58 56 74 74 70 68 60 58 56 56 52 45 45 42 101 113 122 97 88 90 108 191 175
86 79 71 68 69 71 67 59 51 46 28 34 41 46 54 51 56 72 71 63 57 66 88 87 83 70 61 57 60 59 47 40 48 66 67 80 64 88 50 126 152 197 230
79 62 73 79 73 63 50 49 62 62 69 70 67 68 59 65 81 83 72 77 89 80 88 83 75 62 55 52 50 48 43 27 25 42 41 66 63 84 24 95 104 150 206
83 80 82 73 63 52 61 63 83 89 96 102 93 78 80 65 61 59 56 92 87 80 73 73 61 58 55 46 33 29 3 -4 7 4 -14 65 67 72 64 88 99 89 153
91 69 65 70 67 72 72 79 89 98 107 108 116 112 97 79 80 69 75 75 72 75 65 62 59 58 55 22 -20 -33 -34 -23 -13 -10 -12 37 61 37 49 22 45 93 93
90 80 63 73 67 67 74 89 92 107 125 134 132 108 48 80 71 73 78 79 72 63 53 51 49 48 -17 -32 -38 -30 -25 -17 -5 8 18 28 59 22 17 31 30 48 96
77 79 79 74 62 65 79 94 111 119 120 134 132 102 37 76 69 70 68 68 62 44 41 39 15 -39 -35 -28 -19 -8 -13 -5 4 16 -0 13 40 30 21 22 17 38 108
87 81 86 64 66 62 83 95 109 110 118 114 126 110 81 74 66 71 73 66 57 47 29 -4 -5 6 1 3 -3 -12 -2 9 16 20 16 -5 38 33 4 7 4 46 97
86 90 89 68 74 73 87 97 101 95 107 97 103 107 81 68 65 72 80 75 64 49 27 28 38 49 40 29 14 7 -1 -3 9 21 44 40 44 34 5 7 17 42 61
97 95 90 69 69 71 79 88 94 95 100 91 86 104 94 87 86 90 91 90 83 71 71 69 72 80 74 60 48 46 48 54 29 22 31 40 37 4 3 18 30 39 67
93 98 85 64 66 67 78 85 91 94 95 99 107 113 127 132 134 132 128 122 119 120 132 127 119 113 96 72 56 70 75 62 23 45 35 17 -18 -5 22 20 4 50 52

GFSGL_con_3kmhel_111.txt.gz
Helicity
71 92 115 119 85 112 131 169 161 115 116 160 144 155 173 140 101 178 207 189 156 149 143 123 140 182 170 155 105 94 125 295 280 156 181 242 267 272 251 138 88 121 174
73 85 100 108 106 134 178 175 176 142 107 102 90 92 121 98 72 135 131 127 149 116 52 117 89 71 101 91 89 147 -13 135 70 112 154 291 285 252 287 238 228 219 210
39 49 59 65 57 89 85 97 104 97 71 50 48 63 82 76 71 62 70 58 54 50 61 67 59 67 50 18 23 52 40 35 -41 27 94 113 148 255 237 234 235 195 207
22 19 26 21 28 36 22 13 36 45 39 36 45 49 46 64 62 84 78 82 85 78 74 72 74 85 80 60 61 62 41 9 -4 19 51 62 106 146 151 192 177 215 206
21 23 17 16 25 29 33 26 26 23 18 19 20 33 40 47 57 65 76 84 85 87 91 110 99 101 89 56 43 73 67 51 48 22 24 32 78 86 155 159 151 168 201
34 37 34 27 24 23 23 23 28 32 39 41 51 54 62 67 82 86 89 87 91 90 93 109 112 112 135 162 140 111 89 101 110 102 93 107 108 86 105 138 155 215 171
47 46 38 33 30 33 29 25 30 35 40 45 52 50 48 52 61 70 81 61 56 66 83 93 105 115 121 131 174 197 179 182 173 140 136 158 165 155 122 112 136 206 145
43 39 41 38 36 36 35 37 40 44 47 45 36 32 32 25 22 22 32 34 45 56 51 62 81 106 119 150 146 146 135 128 159 183 187 165 184 199 200 216 155 156 212
49 53 60 60 52 49 46 44 38 31 20 16 7 2 -6 -13 -23 -24 -24 -27 -38 -37 -52 -32 -14 28 82 126 104 108 133 136 102 146 195 238 237 228 196 192 190 203 204
75 61 54 51 48 43 36 25 22 14 13 18 15 7 -2 11 5 26 27 22 26 36 48 45 45 33 26 -2 16 24 17 42 109 128 108 97 130 151 177 190 215 245 220
80 76 68 62 53 46 41 36 32 29 30 26 26 38 40 45 46 60 50 59 65 74 73 76 84 88 81 72 65 42 45 49 24 -7 44 124 107 80 138 160 187 228 266
98 92 86 77 65 51 31 29 29 27 30 33 46 53 62 66 71 73 70 69 81 92 86 95 99 94 94 91 85 72 85 75 42 32 11 7 60 117 107 147 171 202 172
104 101 91 75 55 45 40 33 33 34 39 52 58 56 57 57 57 50 58 74 81 86 106 87 67 83 93 95 68 85 89 36 26 36 50 63 42 59 91 112 125 187 223
108 95 81 64 55 42 48 42 42 46 59 59 53 52 56 54 52 66 77 73 65 77 73 94 73 55 43 40 52 68 58 51 49 50 48 53 56 75 64 93 117 110 204
108 93 80 78 60 62 62 52 52 54 60 60 55 60 60 64 68 52 61 77 79 72 89 95 83 82 79 68 62 50 54 55 49 51 50 47 45 51 83 75 104 118 155
104 99 96 88 78 76 68 66 57 59 53 44 32 54 90 52 45 52 43 41 33 30 85 78 77 83 84 72 58 56 56 45 55 55 53 48 57 78 70 39 89 132 130
103 86 81 81 86 93 88 87 76 67 49 41 38 34 49 61 58 62 53 38 22 32 94 91 95 98 89 74 64 60 59 54 54 63 54 54 53 56 44 25 30 76 80
95 80 105 100 97 95 99 103 87 65 65 73 59 47 56 71 84 61 42 52 84 92 119 112 98 93 89 68 59 59 56 50 58 37 46 44 21 12 -26 35 37 73 61
108 117 101 105 96 88 102 100 88 79 81 83 93 81 80 74 52 30 34 88 90 92 103 109 105 92 77 67 66 63 52 41 32 24 22 18 17 2 14 20 29 63 21
117 100 105 96 94 102 111 95 87 91 102 110 112 118 115 103 108 81 70 74 85 90 91 90 81 70 57 57 54 51 29 -1 -6 -14 -10 -2 11 1 17 19 24 32 -29
125 125 94 97 103 109 97 91 92 104 116 118 122 121 43 98 108 93 85 82 81 79 82 80 67 60 52 44 -1 -50 -44 -22 -13 -17 -12 4 7 -11 8 22 20 10 2
130 124 109 103 101 106 87 92 103 112 117 115 120 106 44 101 112 101 97 96 93 87 89 78 65 30 1 -12 -13 -8 -1 4 -12 -12 -2 8 4 -3 20 27 18 -7 10
128 122 107 104 112 85 80 86 97 106 112 113 112 103 114 116 118 116 116 117 112 104 90 71 58 49 30 22 20 34 42 31 9 -8 15 29 24 6 17 34 2 6 21
120 110 104 103 119 92 74 81 91 80 95 108 110 106 113 124 136 142 136 130 129 124 101 95 89 92 80 69 64 60 61 50 21 -14 -14 14 19 37 43 24 2 9 40
130 111 109 110 123 83 64 67 75 77 92 105 111 112 126 136 143 142 140 144 158 158 152 135 134 137 133 133 116 96 89 81 61 65 34 30 27 43 36 12 15 20 49
128 117 111 115 119 73 62 63 65 69 87 95 110 122 122 141 145 135 147 164 173 178 183 178 171 174 170 139 114 108 88 77 63 69 28 28 20 19 24 19 24 38 37

GFSGL_con_3kmhel_114.txt.gz
Helicity
44 42 44 50 50 44 58 64 52 46 96 104 110 91 110 113 89 98 86 112 128 134 112 139 127 91 108 92 80 90 112 131 162 117 134 99 163 176 175 204 275 248 218
50 35 26 31 46 45 39 63 86 133 127 112 124 130 126 129 139 117 109 110 90 66 113 129 175 193 135 128 144 124 113 105 101 156 184 62 189 187 221 201 253 219 255
40 36 31 27 28 24 26 25 42 46 39 36 50 52 55 60 65 67 78 99 103 87 81 63 70 67 78 48 54 42 21 37 14 52 56 79 71 83 41 126 131 178 191
41 37 33 30 29 27 23 21 30 35 33 33 42 43 37 45 56 46 44 45 62 67 82 80 95 80 64 79 47 40 39 60 61 60 31 11 5 -12 64 108 127 95 141
35 41 33 27 25 21 24 23 25 27 29 32 40 46 49 65 61 46 48 46 61 64 66 67 83 96 108 117 83 87 60 51 56 62 63 52 67 62 63 22 87 117 109
68 67 56 43 28 21 18 18 22 29 37 47 54 57 64 66 79 76 70 57 68 73 78 72 63 75 94 125 139 171 129 84 78 85 66 66 75 106 112 128 111 115 64
94 86 75 62 38 30 32 34 38 44 42 40 41 43 47 49 67 70 71 44 56 65 73 78 90 82 82 73 93 114 121 146 122 92 97 124 129 135 117 89 101 122 130
105 101 100 79 56 50 44 39 33 23 22 26 34 35 44 47 51 51 52 45 53 66 70 78 85 93 94 100 85 74 71 74 94 103 100 85 80 100 123 113 128 101 98
93 110 93 76 68 65 65 55 42 42 38 37 38 42 40 37 7 3 35 50 48 42 31 19 21 15 26 55 54 57 65 98 100 89 75 83 114 135 126 119 133 147 170
134 108 93 88 81 71 63 56 50 45 38 40 37 31 -5 3 -21 -2 2 -11 -24 -18 5 13 8 13 27 32 14 -2 18 47 53 99 152 155 113 108 134 130 142 147 144
123 102 94 85 77 62 60 58 52 54 58 51 30 22 27 37 50 65 58 43 32 33 35 34 44 21 45 53 47 42 13 4 12 30 38 62 123 120 120 158 165 171 189
118 93 78 82 84 79 69 65 60 53 48 43 44 46 48 54 62 57 54 58 70 77 58 56 75 48 38 60 83 66 56 64 43 24 29 44 42 64 100 99 103 117 145
117 105 104 91 85 84 86 78 73 62 57 51 54 51 45 40 42 42 53 66 79 81 89 93 100 88 70 74 57 56 69 72 52 40 31 35 28 32 41 39 74 102 103
128 116 108 107 99 96 86 85 77 72 74 71 71 59 48 38 40 47 50 55 54 74 74 108 79 59 57 52 58 61 59 54 46 41 41 41 30 15 21 33 38 68 116
124 125 132 134 127 103 102 100 97 85 89 88 75 70 60 57 60 19 26 47 60 58 70 78 78 80 75 68 76 74 58 46 38 41 47 48 44 31 37 50 59 65 81
152 159 152 137 118 129 118 113 78 52 52 49 42 57 84 53 34 29 28 39 31 27 74 72 68 80 75 82 80 66 59 47 50 43 38 46 43 33 33 47 58 62 74
178 151 131 119 124 118 120 116 105 90 56 44 42 47 54 54 58 61 52 47 30 45 75 76 102 95 79 71 63 57 48 50 46 47 44 59 36 31 25 27 33 62 73
153 119 128 123 117 121 118 113 117 113 74 67 70 62 55 53 60 50 67 84 85 81 94 97 92 98 101 87 65 50 26 29 32 34 67 60 37 31 29 35 59 20 28
149 139 127 132 123 113 117 114 130 101 79 84 96 94 82 61 43 56 79 127 100 89 89 93 95 101 94 72 53 37 29 29 34 42 39 42 39 40 39 50 54 61 21
148 106 110 133 129 119 121 126 121 93 89 101 120 121 119 102 114 115 107 110 105 99 92 85 82 88 91 82 66 57 48 40 39 32 22 -10 22 14 32 32 34 55 21
148 133 108 126 130 122 118 133 108 95 105 116 124 123 45 94 115 122 119 121 117 118 120 116 104 101 89 67 42 32 26 25 22 13 -2 3 1 -4 3 10 32 23 6
145 133 126 129 131 127 117 127 96 90 97 113 116 111 49 109 133 134 134 134 130 128 126 123 130 128 109 106 92 80 72 66 53 36 19 -13 -11 21 44 41 27 38 28
151 127 125 131 127 103 122 106 78 78 85 103 116 110 109 111 123 128 129 128 137 147 144 144 156 150 133 124 118 117 106 87 70 53 42 35 -2 -23 13 25 43 44 33
147 122 127 127 128 117 126 98 66 47 65 86 95 96 101 108 118 126 129 143 169 188 185 182 194 196 174 150 132 109 116 107 90 78 71 59 39 22 16 50 53 49 24
137 115 129 137 126 115 118 77 54 54 66 78 83 91 105 107 124 136 150 172 194 207 209 208 216 216 195 173 154 147 145 123 90 91 95 106 91 66 61 48 52 22 16
118 128 135 139 126 112 117 64 48 47 61 63 77 103 110 107 132 148 166 189 200 196 195 197 202 206 190 156 144 137 106 80 70 88 75 72 73 55 50 55 50 8 16

GFSGL_con_3kmhel_117.txt.gz
Helicity
55 64 40 42 26 22 20 21 17 38 47 37 34 49 70 84 91 102 103 116 92 92 71 102 104 107 74 85 47 121 234 109 136 125 116 107 111 150 159 114 144 176 218
54 51 58 53 47 36 22 38 41 44 51 54 72 82 80 102 79 85 101 119 125 126 117 86 104 67 64 36 77 89 70 147 59 48 93 116 134 90 152 199 103 90 119
80 80 73 66 65 54 45 38 42 52 56 58 52 59 67 82 64 53 51 75 88 85 99 97 79 62 56 68 73 81 73 98 131 151 113 120 46 30 39 83 145 155 188
99 102 95 80 66 52 47 47 48 47 47 48 53 49 50 75 56 52 58 85 106 109 114 102 89 80 101 87 67 55 76 69 64 48 2 -5 -4 57 55 7 38 4 88
105 97 80 71 66 61 57 51 50 54 55 59 63 67 75 79 80 77 64 69 84 94 90 83 83 106 135 125 92 101 100 93 80 50 15 26 12 28 34 73 68 44 -3
117 100 87 87 76 66 58 55 61 63 62 61 59 56 57 55 63 69 65 59 76 94 108 107 90 67 65 75 87 99 98 78 73 54 34 49 65 71 72 87 82 61 -30
112 100 99 95 82 71 65 66 67 65 57 55 50 51 66 64 84 92 92 69 81 88 100 119 136 120 99 71 68 72 79 92 90 64 48 57 58 94 61 71 94 100 99
113 119 124 113 93 77 71 72 65 55 52 49 55 62 71 82 90 97 89 87 91 96 91 95 91 101 112 77 74 85 84 80 74 68 64 73 59 67 74 68 80 84 94
132 142 130 114 96 82 77 74 65 59 53 50 49 62 76 89 84 79 86 76 72 68 60 57 64 66 67 71 63 66 71 105 105 88 88 83 88 93 94 75 109 93 69
159 144 133 114 94 81 83 87 80 73 62 61 68 67 73 81 93 105 86 51 45 51 51 47 38 57 64 48 39 7 12 31 63 81 94 119 115 109 116 86 73 73 84
165 149 129 106 95 93 96 95 84 77 77 79 69 67 72 75 72 77 68 46 35 32 37 28 31 26 27 25 22 44 37 34 32 36 44 69 95 103 111 108 107 108 114
154 139 116 105 110 113 111 111 111 105 101 98 91 79 74 64 65 56 50 53 53 62 43 52 57 36 51 74 88 73 70 58 73 57 52 53 68 80 90 97 105 113 107
148 119 108 108 109 113 115 111 105 101 108 102 102 94 84 67 64 46 40 41 55 66 78 58 29 42 50 72 62 63 83 97 92 83 57 48 57 56 62 61 78 86 93
123 112 112 121 119 129 123 107 116 110 114 114 105 100 90 63 72 72 66 59 50 82 78 101 57 40 40 42 59 73 91 101 89 70 55 43 40 53 57 43 29 61 69
121 122 130 134 130 114 114 120 116 110 112 106 104 102 81 61 58 33 54 70 73 66 67 89 89 89 79 88 88 88 98 99 90 80 63 39 26 22 23 14 19 21 43
129 139 148 140 125 116 109 110 109 99 87 68 62 62 69 55 38 47 71 70 58 68 99 86 71 71 66 90 91 85 87 74 72 58 54 38 27 24 30 10 14 42 51
136 150 142 135 126 114 121 110 103 93 74 73 45 29 45 50 59 73 79 66 64 90 99 90 83 80 74 66 59 66 47 40 39 44 38 43 39 38 28 30 32 32 41
147 126 142 139 125 125 115 118 119 102 86 80 55 38 42 56 62 65 71 77 102 102 124 108 95 92 85 81 85 78 60 56 62 57 70 66 44 33 30 36 32 37 51
145 136 138 137 130 118 117 115 115 100 105 70 55 59 59 52 54 60 75 128 123 121 125 122 112 101 96 96 95 93 88 78 65 65 59 56 47 44 34 50 48 28 31
133 112 118 143 133 120 122 124 113 107 110 64 63 77 84 79 93 92 106 110 121 129 134 136 134 129 125 117 103 81 58 35 22 19 12 11 11 16 56 62 35 39 63
140 137 115 141 136 118 128 128 112 115 95 60 68 76 41 81 82 88 101 106 109 117 134 154 158 158 159 155 144 121 102 86 71 58 51 37 22 18 -16 -6 7 26 43
148 143 143 148 126 117 121 129 109 111 76 59 69 73 47 88 100 112 113 112 109 116 146 168 190 183 178 176 164 148 135 112 82 70 69 68 51 42 23 15 -16 -3 18
155 149 149 145 127 97 125 117 105 115 74 62 72 77 85 92 93 106 121 123 122 138 160 171 188 190 190 183 187 176 155 139 120 96 98 85 72 59 50 16 5 15 26
157 146 146 133 129 127 129 119 102 83 45 48 62 74 83 91 97 105 121 133 141 159 169 176 182 188 179 167 171 189 190 173 151 133 121 106 86 60 35 25 32 44 59
158 142 141 135 127 121 118 112 98 91 55 52 58 71 81 85 100 119 122 135 148 159 158 155 177 200 211 213 199 181 172 140 118 117 122 137 118 98 87 62 55 54 71
151 135 141 137 129 126 127 113 101 79 47 49 56 67 76 81 109 121 126 130 144 132 149 176 192 185 191 177 184 165 97 67 58 66 75 103 114 77 56 69 80 76 72